[[{"header":{"parameterUnit":"m.s-1","parameterCategory":1,"la1":30.6,"la2":29.2853,"lo1":-89.7004,"lo2":-87.6739,"dy":0.0162,"dx":0.0183,"nx":112,"ny":82,"refTime":"2023-04-01T06:00:00:Z","depth":0,"parameterNumber":2,"parameterNumberName":"U-component_of_WINDS"},"data":[0.0,0.0,0.0,0.0,0.0,0.0,0.0,0.0,0.0,0.0,0.0,0.0,0.0,0.0,0.0,0.0,0.0,0.0,0.0,0.0,0.0,0.0,0.0,0.0,0.0,0.0,0.0,0.0,0.0,0.0,0.0,0.0,0.0,0.0,0.0,0.0,0.0,0.0,0.0,0.0,0.0,0.0,0.0,0.0,0.0,0.0,0.0,0.0,0.0,0.0,0.0,0.0,0.0,0.0,0.0,0.0,0.0,0.0,0.0,0.0,0.0,0.0,0.0,0.0,0.0,0.0,0.0,0.0,0.0,0.0,0.0,0.0,0.0,0.0,0.0,0.0,0.0,0.0,0.0,0.0,0.0,0.0,0.0,0.0,0.0,0.0,0.0,0.0,0.0,0.0,-5.7997,-5.7997,-5.7997,-5.7997,-5.7997,-5.7425,-5.7351,-5.7973,0.0,0.0,0.0,0.0,0.0,0.0,0.0,0.0,0.0,0.0,0.0,0.0,0.0,0.0,0.0,0.0,0.0,0.0,0.0,0.0,0.0,0.0,0.0,0.0,0.0,0.0,0.0,0.0,0.0,0.0,0.0,0.0,0.0,0.0,0.0,0.0,0.0,0.0,0.0,0.0,0.0,0.0,0.0,0.0,0.0,0.0,0.0,0.0,0.0,0.0,0.0,0.0,0.0,0.0,0.0,0.0,0.0,0.0,0.0,0.0,0.0,0.0,0.0,0.0,0.0,0.0,0.0,0.0,0.0,0.0,0.0,0.0,0.0,0.0,0.0,0.0,0.0,0.0,0.0,0.0,0.0,0.0,0.0,0.0,0.0,0.0,0.0,0.0,0.0,0.0,0.0,0.0,0.0,0.0,0.0,0.0,0.0,0.0,0.0,0.0,0.0,0.0,0.0,0.0,-5.7997,-5.7997,-5.7997,-5.7997,-5.7997,-5.7904,-5.7867,-5.7997,0.0,0.0,0.0,0.0,0.0,0.0,0.0,0.0,0.0,0.0,0.0,0.0,0.0,0.0,0.0,0.0,0.0,0.0,0.0,0.0,0.0,0.0,0.0,0.0,0.0,0.0,0.0,0.0,0.0,0.0,0.0,0.0,0.0,0.0,0.0,0.0,0.0,0.0,0.0,0.0,0.0,0.0,0.0,0.0,0.0,0.0,0.0,0.0,0.0,0.0,0.0,0.0,0.0,0.0,0.0,0.0,0.0,0.0,0.0,0.0,0.0,0.0,0.0,0.0,0.0,0.0,0.0,0.0,0.0,0.0,0.0,0.0,0.0,0.0,0.0,0.0,0.0,0.0,0.0,0.0,0.0,0.0,0.0,0.0,0.0,0.0,0.0,0.0,0.0,0.0,0.0,0.0,0.0,0.0,0.0,0.0,0.0,0.0,0.0,0.0,0.0,0.0,0.0,-5.7997,-5.7997,-5.7997,-5.7997,-5.7997,-5.7997,-5.7205,-5.6953,-5.7376,-5.6286,0.0,0.0,0.0,0.0,0.0,0.0,0.0,0.0,0.0,0.0,0.0,0.0,0.0,0.0,0.0,0.0,0.0,0.0,0.0,0.0,0.0,0.0,0.0,0.0,0.0,0.0,0.0,0.0,0.0,0.0,0.0,0.0,0.0,0.0,0.0,0.0,0.0,0.0,0.0,0.0,0.0,0.0,0.0,0.0,0.0,0.0,0.0,0.0,0.0,0.0,0.0,0.0,0.0,0.0,0.0,0.0,0.0,0.0,0.0,0.0,0.0,0.0,0.0,0.0,0.0,0.0,0.0,0.0,0.0,0.0,0.0,0.0,0.0,0.0,0.0,0.0,0.0,0.0,0.0,0.0,0.0,0.0,0.0,0.0,0.0,0.0,0.0,0.0,0.0,0.0,0.0,0.0,0.0,0.0,0.0,0.0,0.0,0.0,0.0,0.0,0.0,0.0,-5.7997,-5.7997,-5.7997,-5.7997,-5.7997,-5.7997,-5.6763,-5.6259,-5.6861,-5.5472,0.0,0.0,0.0,0.0,0.0,0.0,0.0,0.0,0.0,0.0,0.0,0.0,0.0,0.0,0.0,0.0,0.0,0.0,0.0,0.0,0.0,0.0,0.0,0.0,0.0,0.0,0.0,0.0,0.0,0.0,0.0,0.0,0.0,0.0,0.0,0.0,0.0,0.0,0.0,0.0,0.0,0.0,0.0,0.0,0.0,0.0,0.0,0.0,0.0,0.0,0.0,0.0,0.0,0.0,0.0,0.0,0.0,0.0,0.0,0.0,0.0,0.0,0.0,0.0,0.0,0.0,0.0,0.0,0.0,0.0,0.0,0.0,0.0,0.0,0.0,0.0,0.0,0.0,0.0,0.0,0.0,0.0,0.0,0.0,0.0,0.0,0.0,0.0,0.0,0.0,0.0,0.0,0.0,0.0,0.0,0.0,0.0,0.0,0.0,0.0,0.0,0.0,-5.7997,-5.7997,-5.7997,-5.7997,-5.7997,-5.7997,-5.7241,-5.6861,-5.6887,-5.5472,0.0,0.0,0.0,0.0,0.0,0.0,0.0,0.0,0.0,0.0,0.0,0.0,0.0,0.0,0.0,0.0,0.0,0.0,0.0,0.0,0.0,0.0,0.0,0.0,0.0,0.0,0.0,0.0,0.0,0.0,0.0,0.0,0.0,0.0,0.0,0.0,0.0,0.0,0.0,0.0,0.0,0.0,0.0,0.0,0.0,0.0,0.0,0.0,0.0,0.0,0.0,0.0,0.0,0.0,0.0,0.0,0.0,0.0,0.0,0.0,0.0,0.0,0.0,0.0,0.0,0.0,0.0,0.0,0.0,0.0,0.0,0.0,0.0,0.0,0.0,0.0,0.0,0.0,0.0,0.0,0.0,0.0,0.0,0.0,0.0,0.0,0.0,0.0,0.0,0.0,0.0,0.0,0.0,0.0,0.0,0.0,0.0,0.0,0.0,0.0,0.0,0.0,-5.7997,-5.7997,-5.7997,-5.7997,-5.7797,-5.7351,-5.658,-5.5984,-5.5501,0.0,0.0,0.0,0.0,0.0,0.0,0.0,0.0,0.0,0.0,0.0,0.0,0.0,0.0,0.0,0.0,0.0,0.0,0.0,0.0,0.0,0.0,0.0,0.0,0.0,0.0,0.0,0.0,0.0,0.0,0.0,0.0,0.0,0.0,0.0,0.0,0.0,0.0,0.0,0.0,0.0,0.0,0.0,0.0,0.0,0.0,0.0,0.0,0.0,0.0,0.0,0.0,0.0,0.0,0.0,0.0,0.0,0.0,0.0,0.0,0.0,0.0,0.0,0.0,0.0,0.0,0.0,0.0,0.0,0.0,0.0,0.0,0.0,0.0,0.0,0.0,0.0,0.0,0.0,0.0,0.0,0.0,0.0,0.0,0.0,0.0,0.0,0.0,0.0,0.0,0.0,0.0,0.0,0.0,0.0,0.0,0.0,0.0,0.0,0.0,0.0,0.0,-5.7997,-5.7997,-5.7997,-5.7997,-5.7997,-5.7703,-5.6964,-5.6141,-5.5379,-5.4634,0.0,0.0,0.0,0.0,0.0,0.0,0.0,0.0,0.0,0.0,0.0,0.0,0.0,0.0,0.0,0.0,0.0,0.0,0.0,0.0,0.0,0.0,0.0,0.0,0.0,0.0,0.0,0.0,0.0,0.0,0.0,0.0,0.0,0.0,0.0,0.0,0.0,0.0,0.0,0.0,0.0,0.0,0.0,0.0,0.0,0.0,0.0,0.0,0.0,0.0,0.0,0.0,0.0,0.0,0.0,0.0,0.0,0.0,0.0,0.0,0.0,0.0,0.0,0.0,0.0,0.0,0.0,0.0,0.0,0.0,0.0,0.0,0.0,0.0,0.0,0.0,0.0,0.0,0.0,0.0,0.0,0.0,0.0,0.0,0.0,0.0,0.0,0.0,0.0,0.0,0.0,0.0,0.0,0.0,0.0,0.0,0.0,0.0,0.0,0.0,0.0,0.0,-5.7997,-5.7997,-5.7997,-5.7997,-5.7997,-5.7703,-5.6964,-5.6177,-5.5379,0.0,0.0,0.0,0.0,0.0,0.0,0.0,0.0,0.0,0.0,0.0,0.0,0.0,0.0,0.0,0.0,0.0,0.0,0.0,0.0,0.0,0.0,0.0,0.0,0.0,0.0,0.0,0.0,0.0,0.0,0.0,0.0,0.0,0.0,0.0,0.0,0.0,0.0,0.0,0.0,0.0,0.0,0.0,0.0,0.0,0.0,0.0,0.0,0.0,0.0,0.0,0.0,0.0,0.0,0.0,0.0,0.0,0.0,0.0,0.0,0.0,0.0,0.0,0.0,0.0,0.0,0.0,0.0,0.0,0.0,0.0,0.0,0.0,0.0,0.0,0.0,0.0,0.0,0.0,0.0,0.0,0.0,0.0,0.0,0.0,0.0,0.0,0.0,0.0,0.0,0.0,0.0,0.0,0.0,0.0,0.0,0.0,0.0,0.0,0.0,0.0,0.0,0.0,-5.7997,-5.7997,-5.7997,-5.7997,-5.7522,-5.6902,-5.6114,-5.535,-5.4606,-5.3848,0.0,0.0,0.0,0.0,0.0,0.0,0.0,0.0,0.0,0.0,0.0,0.0,0.0,0.0,0.0,0.0,0.0,0.0,0.0,0.0,0.0,0.0,0.0,0.0,0.0,0.0,0.0,0.0,0.0,0.0,0.0,0.0,0.0,0.0,0.0,0.0,0.0,0.0,0.0,0.0,0.0,0.0,0.0,0.0,0.0,0.0,0.0,0.0,0.0,0.0,0.0,0.0,0.0,0.0,0.0,0.0,0.0,0.0,0.0,0.0,0.0,0.0,0.0,0.0,0.0,0.0,0.0,0.0,0.0,0.0,0.0,0.0,0.0,0.0,0.0,0.0,0.0,0.0,0.0,0.0,0.0,0.0,0.0,0.0,0.0,0.0,0.0,0.0,0.0,0.0,0.0,0.0,0.0,0.0,0.0,0.0,0.0,0.0,0.0,0.0,0.0,0.0,-5.7997,-5.7997,-5.7904,-5.757,-5.7141,-5.6483,-5.535,-5.4848,-5.4296,-5.3551,0.0,0.0,0.0,0.0,0.0,0.0,0.0,0.0,0.0,0.0,0.0,0.0,0.0,0.0,0.0,0.0,0.0,0.0,0.0,0.0,0.0,0.0,0.0,0.0,0.0,0.0,0.0,0.0,0.0,0.0,0.0,0.0,0.0,0.0,0.0,0.0,0.0,0.0,0.0,0.0,0.0,0.0,0.0,0.0,0.0,0.0,0.0,0.0,0.0,0.0,0.0,0.0,0.0,0.0,0.0,0.0,0.0,0.0,0.0,0.0,0.0,0.0,0.0,0.0,0.0,0.0,0.0,0.0,0.0,0.0,0.0,0.0,0.0,0.0,0.0,0.0,0.0,0.0,0.0,0.0,0.0,0.0,0.0,0.0,0.0,0.0,0.0,0.0,0.0,0.0,0.0,0.0,0.0,0.0,0.0,0.0,0.0,0.0,0.0,0.0,0.0,0.0,-5.7997,-5.7997,-5.775,-5.7065,-5.6887,-5.6204,-5.4818,-5.4575,-5.42,-5.3517,0.0,0.0,0.0,0.0,0.0,0.0,0.0,0.0,0.0,0.0,0.0,0.0,0.0,0.0,0.0,0.0,0.0,0.0,0.0,0.0,0.0,0.0,0.0,0.0,0.0,0.0,0.0,0.0,0.0,0.0,0.0,0.0,0.0,0.0,0.0,0.0,0.0,0.0,0.0,0.0,0.0,0.0,0.0,0.0,0.0,0.0,0.0,0.0,0.0,0.0,0.0,0.0,0.0,0.0,0.0,0.0,0.0,0.0,0.0,0.0,-6.0603,0.0,0.0,0.0,0.0,0.0,0.0,0.0,0.0,0.0,0.0,0.0,0.0,0.0,0.0,0.0,0.0,0.0,0.0,0.0,0.0,0.0,0.0,0.0,0.0,0.0,0.0,0.0,0.0,0.0,0.0,0.0,0.0,0.0,0.0,0.0,0.0,0.0,0.0,0.0,0.0,0.0,-5.7997,-5.7997,-5.795,-5.7774,-5.6659,-5.5836,-5.5495,-5.4422,-5.3685,-5.3518,-5.3518,0.0,0.0,0.0,0.0,0.0,0.0,0.0,0.0,0.0,0.0,0.0,0.0,0.0,0.0,0.0,0.0,0.0,0.0,0.0,0.0,0.0,0.0,0.0,0.0,0.0,0.0,0.0,0.0,0.0,0.0,0.0,0.0,0.0,0.0,0.0,0.0,0.0,0.0,0.0,0.0,0.0,0.0,0.0,0.0,0.0,0.0,0.0,0.0,0.0,0.0,0.0,0.0,0.0,0.0,0.0,0.0,0.0,0.0,0.0,0.0,-6.1814,0.0,0.0,0.0,0.0,0.0,0.0,0.0,0.0,0.0,0.0,0.0,0.0,0.0,0.0,0.0,0.0,0.0,0.0,0.0,0.0,0.0,0.0,0.0,0.0,0.0,0.0,0.0,0.0,0.0,0.0,0.0,0.0,0.0,0.0,0.0,0.0,0.0,0.0,0.0,0.0,-5.7997,-5.7703,-5.7315,-5.6953,-5.5865,-5.5029,-5.4668,-5.3946,-5.3518,-5.3518,-5.3518,0.0,0.0,0.0,0.0,0.0,0.0,0.0,0.0,0.0,0.0,0.0,0.0,0.0,0.0,0.0,0.0,0.0,0.0,0.0,0.0,0.0,0.0,0.0,0.0,0.0,0.0,0.0,0.0,0.0,0.0,0.0,0.0,0.0,0.0,0.0,0.0,0.0,0.0,0.0,0.0,0.0,0.0,0.0,0.0,0.0,0.0,0.0,0.0,0.0,0.0,0.0,0.0,0.0,-6.2475,-6.278,-6.278,-6.278,-6.278,-6.278,-6.278,-6.278,-6.278,-6.278,0.0,0.0,0.0,0.0,0.0,0.0,0.0,0.0,0.0,0.0,0.0,0.0,0.0,0.0,0.0,0.0,0.0,0.0,0.0,0.0,0.0,0.0,-6.163,-6.097,-6.0713,-6.0419,-5.9735,0.0,0.0,0.0,0.0,0.0,0.0,0.0,0.0,0.0,0.0,0.0,-5.7997,-5.7474,-5.6825,-5.6169,-5.532,-5.4544,-5.3946,-5.3651,-5.3518,-5.3518,-5.3518,-5.3518,0.0,0.0,0.0,0.0,0.0,0.0,0.0,0.0,0.0,0.0,0.0,0.0,0.0,0.0,0.0,0.0,0.0,0.0,0.0,0.0,0.0,0.0,0.0,0.0,0.0,0.0,0.0,0.0,0.0,0.0,0.0,0.0,-6.245,-6.245,0.0,0.0,0.0,0.0,0.0,0.0,0.0,0.0,0.0,0.0,0.0,0.0,0.0,-6.2658,-6.2658,-6.2658,-6.2658,-6.2658,-6.2743,-6.278,-6.278,-6.278,-6.278,-6.278,-6.278,0.0,-6.278,-6.278,0.0,0.0,0.0,0.0,0.0,0.0,0.0,0.0,0.0,0.0,0.0,0.0,0.0,0.0,0.0,0.0,0.0,0.0,0.0,0.0,0.0,0.0,-6.2622,-6.2511,-6.1961,-6.141,-6.13,-6.0089,-5.9038,-5.9038,-5.8474,0.0,0.0,0.0,0.0,0.0,0.0,0.0,-5.7997,-5.7927,-5.7797,-5.7726,-5.6411,-5.5524,-5.5408,-5.4235,-5.3518,-5.3518,-5.3518,-5.3518,-5.3518,-5.3518,0.0,0.0,0.0,0.0,0.0,0.0,0.0,0.0,0.0,0.0,0.0,0.0,0.0,0.0,0.0,0.0,0.0,0.0,0.0,0.0,0.0,0.0,0.0,0.0,0.0,0.0,0.0,0.0,0.0,-6.278,-6.278,-6.278,-6.278,-6.278,0.0,0.0,0.0,0.0,0.0,0.0,0.0,0.0,0.0,-6.278,-6.278,-6.278,-6.278,-6.278,-6.278,-6.278,-6.278,-6.278,-6.278,-6.278,-6.278,-6.278,-6.278,-6.278,-6.278,-6.278,-6.278,-6.278,0.0,0.0,0.0,0.0,-6.278,-6.278,-6.278,-6.278,-6.278,-6.278,0.0,0.0,0.0,0.0,0.0,0.0,0.0,-6.278,-6.278,-6.278,-6.278,-6.278,-6.2548,-6.2291,-6.2291,-6.1374,-6.0419,0.0,-5.9245,-5.8694,-5.8694,0.0,0.0,0.0,0.0,-5.7997,-5.7997,-5.7229,-5.6711,-5.6711,-5.535,-5.4485,-5.4485,-5.3848,-5.3518,-5.3518,-5.3518,-5.3518,-5.3518,-5.3518,-5.3518,0.0,0.0,0.0,0.0,0.0,0.0,0.0,0.0,0.0,0.0,0.0,0.0,0.0,0.0,0.0,0.0,0.0,0.0,0.0,0.0,0.0,0.0,0.0,0.0,0.0,0.0,0.0,0.0,-6.278,-6.278,-6.278,-6.278,-6.278,0.0,0.0,0.0,0.0,0.0,0.0,-6.278,-6.278,-6.278,-6.278,-6.278,-6.278,-6.278,-6.278,-6.278,-6.278,-6.278,-6.278,-6.278,-6.278,-6.278,-6.278,-6.278,-6.278,-6.278,-6.278,-6.278,-6.278,-6.278,-6.278,-6.278,-6.278,-6.278,-6.278,-6.278,-6.278,-6.278,-6.278,-6.278,-6.278,-6.278,0.0,0.0,0.0,0.0,-6.278,-6.278,-6.278,-6.278,-6.278,-6.278,-6.278,-6.278,-6.2328,-6.1667,0.0,-6.0052,-5.9515,-5.9515,0.0,0.0,0.0,-5.8437,-5.8364,-5.8584,-5.7583,-5.683,-5.6637,-5.544,-5.4593,-5.4361,-5.3991,-5.3788,-5.3788,-5.3619,-5.3518,-5.3518,-5.3518,-5.3518,-5.3518,0.0,0.0,0.0,0.0,0.0,0.0,0.0,0.0,0.0,0.0,0.0,0.0,0.0,0.0,0.0,0.0,0.0,0.0,0.0,0.0,0.0,0.0,0.0,0.0,0.0,0.0,0.0,0.0,0.0,-6.278,-6.278,0.0,0.0,0.0,0.0,-6.278,-6.278,-6.278,-6.278,-6.278,-6.278,-6.278,-6.278,-6.278,-6.278,-6.278,-6.278,-6.278,-6.278,-6.278,-6.278,-6.278,-6.278,-6.278,-6.278,-6.278,-6.278,-6.278,-6.278,-6.278,-6.278,-6.278,-6.278,-6.278,-6.278,-6.278,-6.278,-6.278,-6.278,-6.278,-6.278,-6.278,-6.278,-6.278,0.0,0.0,-6.278,-6.278,-6.278,-6.278,-6.278,-6.278,-6.278,-6.278,-6.278,-6.2743,-6.2511,0.0,-6.0896,-6.0346,-6.0346,0.0,-5.9404,-6.0162,-5.9648,-5.9404,-6.0199,-6.0224,-5.9857,-5.9114,-5.8303,-5.7504,-5.6722,-5.5348,-5.4532,-5.4532,-5.389,-5.3518,-5.3518,-5.3518,-5.3518,-5.3518,-5.3518,0.0,0.0,0.0,0.0,0.0,0.0,0.0,0.0,0.0,0.0,0.0,0.0,0.0,0.0,0.0,0.0,0.0,0.0,0.0,0.0,0.0,0.0,0.0,0.0,0.0,0.0,0.0,0.0,-6.278,-6.278,0.0,-6.278,-6.278,-6.278,-6.278,-6.278,-6.278,-6.278,-6.278,-6.278,-6.278,-6.278,-6.278,-6.278,-6.278,-6.278,-6.278,-6.278,-6.278,-6.278,-6.278,-6.278,-6.278,-6.278,-6.278,-6.278,-6.278,-6.278,-6.278,-6.278,-6.278,-6.278,-6.278,-6.278,-6.278,-6.278,-6.278,-6.278,-6.278,-6.278,-6.278,-6.278,-6.278,-6.278,-6.278,-6.278,-6.278,-6.278,-6.278,-6.278,-6.278,-6.278,-6.278,-6.278,-6.278,-6.2732,-6.2438,-6.1704,-6.1153,-6.1153,-6.0529,-6.0089,-6.0382,-6.0162,-6.0089,-6.0382,-5.9522,-5.8813,-5.8531,-5.7304,-5.6436,-5.6133,-5.562,-5.531,-5.531,-5.4634,-5.4194,-5.4194,-5.3754,-5.3518,-5.3518,-5.3518,-5.3518,0.0,0.0,0.0,0.0,0.0,0.0,0.0,0.0,0.0,0.0,0.0,0.0,0.0,0.0,0.0,0.0,0.0,0.0,0.0,0.0,0.0,0.0,0.0,0.0,0.0,0.0,-6.278,-6.278,-6.278,-6.278,-6.278,-6.278,-6.278,-6.278,-6.278,-6.278,-6.278,-6.278,-6.278,-6.278,-6.278,-6.278,-6.278,-6.278,-6.278,-6.278,-6.3099,-6.3246,-6.3246,-6.3539,-6.3649,-6.3649,-6.3649,-6.3649,-6.3649,-6.3649,-6.3649,-6.3613,-6.3,-6.278,-6.278,-6.278,-6.278,-6.278,-6.278,-6.278,-6.278,-6.278,-6.278,-6.278,-6.278,-6.278,-6.278,-6.278,-6.278,-6.278,-6.278,-6.278,-6.278,-6.278,-6.278,-6.278,-6.278,-6.278,-6.278,-6.278,-6.2365,-6.1998,-6.1998,-6.1337,-6.0896,-6.119,-6.0737,-6.0514,-6.077,-5.9657,-5.8754,-5.8479,-5.7458,-5.6745,-5.6496,-5.6224,-5.6089,-5.6089,-5.5378,-5.4972,-5.4972,-5.4262,-5.3856,-5.3856,-5.3619,-5.3518,-5.3518,0.0,0.0,0.0,0.0,0.0,0.0,0.0,0.0,0.0,0.0,0.0,0.0,0.0,0.0,0.0,0.0,0.0,0.0,0.0,0.0,0.0,0.0,0.0,-6.278,-6.278,-6.278,-6.278,-6.278,-6.278,-6.278,-6.278,-6.278,-6.278,-6.278,-6.278,-6.278,-6.278,-6.278,-6.278,-6.278,-6.278,-6.2842,-6.2842,-6.2853,-6.289,-6.3723,-6.4127,-6.4163,-6.4934,-6.5301,-6.5301,-6.5301,-6.5301,-6.5301,-6.5301,-6.5301,-6.5154,-6.3514,-6.2853,-6.2853,-6.2853,-6.2853,-6.2853,-6.2853,-6.2853,-6.2853,-6.2853,-6.2853,-6.2853,-6.2853,-6.2853,-6.2853,-6.2853,-6.2853,-6.2853,-6.2853,-6.2853,-6.2853,-6.2853,-6.2853,-6.2853,-6.2853,-6.2853,-6.2853,-6.2853,-6.2853,-6.2853,-6.278,-6.2144,-6.1887,-6.2695,-6.1448,0.0,-6.1496,-6.0879,-6.0023,-5.9178,-5.9077,-5.8737,-5.7954,-5.7239,-5.6833,-5.6833,-5.6156,-5.5715,-5.5715,-5.504,-5.46,-5.46,-5.389,-5.3518,-5.3518,0.0,0.0,0.0,0.0,0.0,0.0,0.0,0.0,0.0,0.0,0.0,0.0,0.0,0.0,0.0,0.0,0.0,0.0,0.0,0.0,0.0,0.0,-6.278,-6.278,-6.278,-6.278,-6.278,-6.278,-6.278,-6.278,-6.278,-6.278,-6.278,-6.278,-6.278,-6.278,-6.278,-6.278,-6.278,-6.278,-6.3099,-6.3723,-6.3723,-6.4053,-6.464,-6.4861,-6.4971,-6.4971,-6.5191,-6.5301,-6.5301,-6.5301,-6.5301,-6.5301,-6.5301,-6.5301,-6.5264,-6.4787,-6.4604,-6.4604,-6.4604,-6.4604,-6.4604,-6.4604,-6.4604,-6.4604,-6.4604,-6.4604,-6.4604,-6.4604,-6.4604,-6.4604,-6.4604,-6.4604,-6.4604,-6.4604,-6.4604,-6.4604,-6.4604,-6.4604,-6.4604,-6.4604,-6.4604,-6.4604,-6.4604,-6.4604,-6.4237,-6.3,-6.2622,-6.2548,-6.2743,-6.1921,0.0,-6.1568,-6.0361,-5.9377,-5.9111,-5.8599,-5.8137,-5.7918,-5.7712,-5.7577,-5.7577,-5.69,-5.6494,-5.6494,-5.5784,-5.5141,-5.46,-5.4397,-5.4025,0.0,0.0,0.0,0.0,0.0,0.0,0.0,0.0,0.0,0.0,0.0,0.0,0.0,0.0,0.0,0.0,0.0,0.0,0.0,0.0,0.0,0.0,-6.278,-6.278,-6.278,-6.278,-6.278,-6.278,-6.278,-6.278,-6.278,-6.278,-6.278,-6.278,-6.278,-6.278,-6.278,-6.278,-6.2989,-6.3319,-6.3356,-6.3759,-6.4604,-6.4604,-6.4861,-6.5301,-6.5632,-6.5815,-6.5815,-6.6145,-6.6329,-6.6329,-6.6329,-6.6329,-6.6329,-6.6329,-6.6329,0.0,0.0,0.0,0.0,0.0,-6.5301,-6.5301,-6.5301,-6.5301,-6.5301,-6.5301,-6.5301,-6.5301,-6.5301,-6.5301,-6.5301,-6.5301,-6.5301,-6.5301,-6.5301,-6.5301,-6.5301,-6.5301,-6.5301,-6.5301,-6.5301,-6.5301,-6.5301,-6.5301,-6.5301,0.0,-6.3491,-6.3591,-6.3844,-6.3844,-6.3121,-6.2607,-6.2607,-6.1164,-6.0081,-6.0081,-5.9344,-5.8693,-5.8389,-5.8355,0.0,0.0,0.0,-5.7137,-5.6799,-5.6393,0.0,0.0,0.0,-5.4702,-5.3957,-5.3957,0.0,0.0,-5.3518,-5.3518,0.0,0.0,0.0,0.0,0.0,0.0,0.0,0.0,0.0,0.0,0.0,0.0,0.0,0.0,0.0,0.0,-6.278,-6.278,-6.278,-6.278,-6.278,-6.278,-6.278,-6.278,-6.278,-6.278,-6.278,-6.278,-6.278,-6.2842,-6.2952,0.0,0.0,0.0,0.0,-6.4604,-6.5448,-6.5448,-6.5485,-6.5595,-6.6292,-6.6623,-6.6659,-6.7357,-6.7724,-6.7834,-6.7834,-6.7871,-6.7944,-6.7944,-6.7944,-6.7797,-6.6219,-6.5595,-6.5595,-6.5595,-6.5595,-6.5595,-6.5595,0.0,0.0,-6.5595,-6.5595,-6.5595,-6.5595,-6.5595,-6.5595,-6.5595,-6.5595,-6.5595,-6.5595,-6.5595,-6.5595,-6.5595,-6.5595,-6.5595,-6.5595,-6.5595,-6.5595,-6.5595,-6.5595,-6.5311,-6.444,-6.4795,-6.5108,-6.5028,-6.4279,-6.3716,-6.3716,-6.231,-6.1362,-6.1362,-6.0606,0.0,-5.9201,-5.9133,-5.8829,-5.8051,-5.7949,-5.7611,-5.6934,-5.6934,-5.6596,-5.5817,-5.5817,-5.548,-5.4702,-5.4702,-5.4397,-5.3754,-5.3585,-5.3518,0.0,0.0,0.0,0.0,0.0,0.0,0.0,0.0,0.0,0.0,0.0,0.0,0.0,0.0,0.0,-6.278,-6.278,-6.278,-6.278,-6.278,-6.278,-6.278,-6.278,-6.278,-6.278,-6.278,-6.278,-6.278,-6.278,-6.3099,-6.3796,-6.3833,-6.4237,-6.5044,-6.5081,-6.5448,-6.6256,-6.6256,-6.6586,-6.7247,0.0,0.0,-6.7467,-6.7614,-6.8054,-6.8678,-6.8678,-6.9045,-6.9633,-6.9633,-6.9633,-6.9486,-6.7871,-6.7247,-6.7247,-6.7247,-6.7247,-6.7247,-6.7247,-6.7247,-6.7247,-6.7247,-6.7247,-6.7247,-6.7247,-6.7247,0.0,-6.7247,-6.7247,-6.7247,-6.7247,-6.7247,-6.7247,-6.7247,-6.7247,-6.7247,-6.7247,-6.7247,-6.7247,-6.7247,-6.7247,-6.7183,-6.7012,-6.5403,-6.3921,-6.3229,-6.2408,-6.1879,-6.1879,-6.1007,-6.0381,-6.0381,-6.0194,-6.0047,-5.9911,-5.9877,-5.9573,-5.8829,-5.822,-5.7814,-5.7679,-5.7679,-5.734,-5.6596,-5.6596,-5.6224,-5.5513,-5.5513,-5.5412,-5.5277,-5.4059,-5.3518,0.0,0.0,0.0,0.0,0.0,0.0,0.0,0.0,0.0,0.0,0.0,-6.278,-6.278,0.0,-6.278,-6.278,-6.278,-6.278,-6.278,-6.278,-6.278,-6.278,-6.278,-6.278,-6.278,-6.278,-6.2989,-6.3429,-6.3466,-6.3833,-6.464,-6.4714,-6.5081,-6.5888,-6.5888,-6.6292,-6.71,-6.71,-6.7283,-6.7687,-6.8091,-6.8311,-6.8311,-6.8715,-6.9119,-6.9486,-6.9486,-6.9743,-7.011,-7.011,-7.011,-7.0,-6.9192,-6.8898,-6.8898,-6.8898,-6.8898,-6.8898,-6.8898,-6.8641,-6.8311,-6.8311,-6.8017,-6.7687,-6.7687,-6.7687,-6.7687,-6.7687,-6.7687,-6.7687,-6.7687,-6.7687,-6.7687,-6.7687,-6.7687,-6.7687,-6.7687,-6.7687,-6.7687,-6.7687,-6.7687,-6.7542,-6.7146,-6.6018,-6.5147,-6.5141,-6.4443,-6.3902,-6.3902,-6.2718,-6.1884,-6.1884,-6.1503,-6.1095,-6.0723,-6.0317,-5.9945,-5.9573,-5.8863,-5.8457,-5.8457,-5.8084,-5.7712,-5.734,-5.734,-5.7002,-5.6258,-5.6258,-5.6089,-5.5647,-5.4938,-5.4397,0.0,0.0,0.0,0.0,0.0,0.0,0.0,-6.278,-6.278,-6.278,-6.278,-6.278,-6.278,-6.278,-6.278,-6.278,-6.278,-6.278,-6.278,-6.278,-6.278,-6.278,-6.278,-6.278,-6.278,-6.2952,-6.3356,-6.4053,-6.4237,-6.4677,-6.5485,-6.5521,-6.5888,-6.6696,-6.6733,-6.7026,-6.7687,-6.7834,-6.7907,-6.7944,-6.8752,-6.9119,-6.9155,-6.9816,-7.0183,-7.033,-7.0513,-7.055,-7.055,-7.055,-7.055,-7.055,-7.055,-7.055,-7.0513,-7.022,-7.011,-7.011,-7.011,-6.9669,-6.9119,-6.9119,-6.8678,-6.8164,-6.8164,-6.8164,-6.8164,-6.8164,-6.8164,-6.8164,-6.8164,-6.8164,-6.8164,-6.8164,-6.8164,-6.8164,-6.8164,-6.8164,-6.8164,-6.8164,-6.8164,-6.7964,-6.723,-6.7003,-6.6939,-6.7146,-6.6582,-6.6064,-6.5909,-6.4599,-6.3647,-6.3462,-6.2817,-6.2144,-6.1569,-6.0791,-6.0317,-6.0317,-5.9641,-5.9235,-5.9235,-5.8524,-5.8118,-5.8118,-5.7949,-5.7611,-5.7002,-5.7002,-5.6697,-5.6156,-5.6156,-5.5683,-6.278,-6.278,-6.278,-6.278,-6.278,-6.278,0.0,-6.278,-6.278,-6.278,-6.278,-6.278,-6.278,-6.278,-6.278,-6.278,-6.278,-6.278,-6.278,-6.278,-6.278,-6.278,-6.278,-6.278,-6.278,-6.3503,-6.398,-6.409,-6.4751,-6.5521,-6.6329,-6.6366,-6.6733,-6.754,-6.7577,-6.7614,-6.7687,-6.8421,-6.8788,-6.8788,-6.9596,-6.9963,-6.9963,-7.0073,-7.0477,-7.1211,-7.1945,-7.2239,-7.2239,-7.2239,-7.2239,-7.2239,-7.2239,-7.2239,-7.2055,-7.0624,-7.011,-7.011,-7.011,-7.0036,-6.9963,-6.9963,-6.9889,-6.9816,-6.9816,-6.9816,-6.9816,-6.9816,-6.9816,-6.9816,-6.9816,-6.9816,-6.9816,-6.9816,-6.9816,-6.9816,-6.9816,-6.9816,-6.9816,-6.9816,-6.9816,-6.9788,-6.9705,-6.9118,-6.789,-6.5625,-6.5229,-6.4902,-6.4113,-6.3827,-6.3425,-6.262,-6.2459,-6.2347,-6.2279,-6.1603,-6.1163,-6.1163,-6.0419,-5.9979,-5.9979,-5.9268,-5.8896,-5.8896,-5.822,-5.7848,-5.778,-5.778,-5.7712,-5.7645,-5.7645,-5.69,-6.278,-6.278,-6.278,-6.278,-6.278,-6.278,-6.278,-6.278,-6.278,-6.278,-6.278,-6.278,-6.278,-6.278,-6.278,-6.278,-6.278,-6.278,-6.278,-6.278,-6.2989,-6.3503,-6.3576,-6.3576,-6.3576,-6.387,-6.4494,-6.5411,-6.5815,-6.6366,-6.7136,-6.7173,-6.7357,-6.7687,-6.8128,-6.8385,-6.8385,-6.9192,-6.9596,-6.9596,-7.0403,-7.0807,-7.0807,-7.1284,-7.1688,-7.2018,-7.2349,-7.2496,-7.2496,-7.2496,-7.2496,-7.2496,-7.2496,-7.2496,-7.2422,-7.1725,-7.1505,-7.1505,-7.1505,-7.1211,-7.0807,-7.0807,-7.0477,-7.011,-7.011,-7.011,-7.011,-7.011,-7.011,-7.011,-7.011,-7.011,-7.011,-7.011,-7.011,-7.011,-7.011,-7.011,-7.011,-7.011,-7.011,-7.011,-7.011,-6.9816,-6.9254,-6.8143,-6.6762,-6.549,-6.4598,-6.4007,-6.3351,-6.2498,-6.2381,-6.2381,-6.2381,-6.211,-6.1941,-6.1941,-6.1231,-6.0791,-6.0791,-6.0047,-5.9641,-5.9641,-5.893,-5.8558,-5.8558,-5.8084,-5.7881,-5.7881,-5.7881,-5.7577,-6.278,-6.278,-6.278,-6.278,-6.278,-6.278,-6.278,-6.278,-6.278,-6.278,-6.278,-6.278,-6.278,-6.278,-6.278,-6.278,-6.278,-6.278,-6.278,-6.3025,-6.3392,-6.4016,-6.431,-6.453,-6.4751,-6.4751,-6.5228,-6.6402,-6.6696,-6.71,-6.765,-6.7907,-6.8017,-6.8017,-6.8825,-6.9229,-6.9229,-7.0036,-7.044,-7.044,-7.1248,-7.1651,-7.1651,-7.2239,-7.2496,-7.2496,-7.2496,-7.2496,-7.2496,-7.2496,-7.2496,-7.2496,-7.2496,-7.2496,-7.2496,-7.2496,-7.2496,-7.2496,-7.2496,-7.2129,-7.1651,-7.1651,-7.1248,-7.077,-7.077,-7.077,-7.077,-7.077,-7.077,-7.077,-7.077,-7.077,-7.077,-7.077,-7.077,-7.077,-7.077,-7.077,-7.077,-7.077,-7.077,-7.077,-7.077,-7.0587,-7.0319,-7.0083,-6.8561,-6.7078,-6.6164,-6.4882,-6.3595,-6.2498,-6.2381,-6.2381,-6.2381,-6.2381,-6.2381,-6.2381,-6.1907,-6.1603,-6.1603,-6.0858,-6.0419,-6.0419,-5.9708,-5.9302,-5.9302,-5.8761,-5.849,-5.849,-5.8287,-5.8186,-6.278,-6.278,-6.278,-6.278,-6.278,-6.278,-6.278,-6.278,-6.278,-6.278,-6.278,-6.278,-6.278,-6.278,-6.278,-6.278,-6.278,-6.278,-6.278,-6.3539,-6.4053,-6.409,-6.4787,-6.5595,0.0,-6.6439,-6.6439,-6.6512,-6.721,-6.765,-6.7687,-6.8458,-6.8862,-6.8862,-6.9633,-7.0073,-7.0073,-7.0881,-7.1284,-7.1256,-7.2092,-7.2459,-7.2459,-7.2496,-7.2496,-7.2496,-7.2496,-7.2496,-7.2496,-7.2496,-7.2496,-7.2496,-7.2496,-7.2496,-7.2496,-7.2496,-7.2496,-7.2496,-7.2496,-7.2496,-7.2459,-7.2459,-7.2459,-7.2422,-7.2422,-7.2422,-7.2422,-7.2422,-7.2422,-7.2422,-7.2422,-7.2422,-7.2422,-7.2422,-7.2422,-7.2422,-7.2422,-7.2422,-7.2422,-7.2422,-7.2422,-7.2422,-7.2422,-7.1798,-7.0953,-7.0061,-6.9923,-6.9681,-6.8806,-6.6457,-6.4218,-6.2566,-6.2381,-6.2381,-6.2381,-6.2381,-6.2381,-6.2381,-6.2381,-6.2347,-6.2347,-6.167,-6.1264,-6.1264,-6.0486,-6.008,-6.008,-6.0047,-6.0047,-6.0013,-5.9302,-5.8998,-6.278,-6.278,-6.278,-6.278,-6.278,-6.278,-6.278,-6.278,-6.278,-6.278,-6.278,-6.278,-6.278,-6.278,-6.278,-6.278,-6.278,-6.3025,-6.3576,-6.3906,-6.4494,-6.5558,-6.5925,0.0,0.0,0.0,0.0,-6.7247,-6.754,-6.7907,-6.8458,-6.8752,-6.9155,-6.9669,-7.0477,-7.0917,-7.0917,-7.1688,-7.2092,-7.2092,-7.2386,-7.2496,-7.2496,-7.2496,-7.2496,-7.2496,-7.2496,-7.2496,-7.2496,-7.2496,-7.2496,-7.2496,-7.2496,-7.2496,-7.2496,-7.2496,-7.2496,-7.2496,-7.2496,-7.2496,-7.2496,-7.2496,-7.2496,-7.2496,-7.2496,-7.2496,-7.2496,-7.2496,-7.2496,-7.2496,-7.2496,-7.2496,-7.2496,-7.2496,-7.2496,-7.2496,-7.2496,-7.2496,-7.2496,-7.2496,-7.2496,-7.2285,-7.1702,-7.1852,-7.1794,-7.0825,-6.8763,-6.7676,-6.8687,-6.6424,-6.4713,-6.4752,-6.3796,-6.3125,-6.3125,-6.2685,-6.2381,-6.2381,-6.2381,-6.2381,-6.2381,-6.2144,-6.2009,-6.2009,-6.1264,-6.0892,-6.0892,-6.0351,-6.0114,-6.008,-5.9844,-5.9742,-6.278,-6.278,-6.278,-6.278,-6.278,-6.278,-6.278,-6.278,-6.278,-6.278,-6.278,-6.278,-6.278,-6.278,-6.278,-6.278,-6.278,-6.3099,-6.398,-6.4347,-6.5007,-6.6329,-6.6733,-6.7136,0.0,0.0,0.0,-6.765,-6.7944,-6.8348,-6.8862,-6.9449,-7.0,-7.0513,-7.1321,-7.1725,-7.1725,-7.2239,-7.2496,-7.2496,-7.2496,-7.2496,-7.2496,-7.2496,-7.2496,-7.2496,-7.2496,-7.2496,-7.2496,-7.2496,-7.2496,-7.2496,-7.2496,-7.2496,-7.2496,-7.2496,-7.2496,-7.2496,-7.2496,-7.2496,-7.2496,-7.2496,-7.2496,-7.2496,-7.2496,-7.2496,-7.2496,-7.2496,-7.2496,-7.2496,-7.2496,-7.2496,-7.2496,-7.2496,-7.2496,-7.2496,-7.2496,-7.2496,-7.2496,-7.2496,-7.2496,-7.2314,-7.1702,-7.1542,-7.1417,-7.1159,-6.8324,-6.6699,-6.8001,-6.6614,-6.5465,-6.5504,-6.454,-6.3903,-6.3903,-6.3226,-6.2787,-6.2787,-6.255,-6.2381,-6.2381,-6.2381,-6.2381,-6.2381,-6.1941,-6.167,-6.167,-6.1163,-6.0926,-6.0926,-6.0655,-6.052,-6.278,-6.278,-6.278,-6.278,-6.278,-6.278,-6.278,-6.278,-6.278,-6.278,-6.278,-6.278,-6.278,-6.278,-6.278,-6.278,-6.2842,-6.3172,-6.4016,-6.4861,-6.5668,-6.6476,-6.7247,0.0,0.0,0.0,0.0,-6.776,0.0,-6.8935,-6.9009,-7.0477,-7.1293,-7.1329,-7.2092,-7.2496,-7.2496,-7.2496,-7.2496,-7.2496,-7.2496,-7.2496,-7.2496,-7.2496,-7.2496,-7.2496,-7.2496,-7.2496,-7.2496,-7.2496,-7.2496,-7.2496,-7.2496,-7.2496,-7.2496,-7.2496,-7.2496,-7.2496,-7.2496,-7.2496,-7.2496,-7.2496,-7.2496,-7.2496,-7.2496,-7.2496,-7.2496,-7.2496,-7.2496,-7.2496,-7.2496,-7.2496,-7.2496,-7.2496,-7.2496,-7.2496,-7.2496,-7.2496,-7.2496,-7.2496,-7.2467,-7.2438,-7.2496,-7.0901,-6.9918,-7.0865,-6.8645,-6.6889,-6.7215,-6.7149,-6.6484,-6.4952,-6.4722,-6.4647,-6.4647,-6.4005,-6.3565,-6.3531,-6.2854,-6.2415,-6.2381,-6.2381,-6.2381,-6.2381,-6.2381,-6.2381,-6.2381,-6.2381,-6.2381,-6.2381,-6.167,-6.1366,-6.278,-6.278,-6.278,-6.278,-6.278,-6.278,-6.278,-6.278,-6.278,-6.278,-6.278,-6.278,-6.278,-6.278,-6.278,-6.278,-6.3356,-6.4053,-6.4897,-6.5705,-6.6476,-6.7283,-6.7577,-6.7687,-6.7687,-6.8238,0.0,0.0,-6.8788,-6.9412,-7.0596,-7.1073,-7.1578,-7.2202,-7.2386,-7.2496,-7.2496,-7.2496,-7.2496,-7.2496,-7.2496,-7.2496,-7.2496,-7.2496,-7.2496,-7.2496,-7.2496,-7.2496,-7.2496,-7.2496,-7.2496,-7.2496,-7.2496,-7.2496,-7.2496,-7.2496,-7.2496,-7.2496,-7.2496,-7.2496,-7.2496,-7.2496,-7.2496,-7.2496,-7.2496,-7.2496,-7.2496,-7.2496,-7.2496,-7.2496,-7.2496,-7.2496,-7.2496,-7.2496,-7.2496,-7.2496,-7.2496,-7.2496,-7.2496,-7.2496,-7.1951,-7.1702,-7.238,-7.0331,-6.891,-6.9883,-6.8219,-6.7345,-6.8849,-6.7787,-6.6991,-6.7276,-6.6153,-6.5425,-6.5425,-6.4749,-6.4106,-6.3531,-6.3328,-6.2956,-6.2415,-6.2381,-6.2381,-6.2381,-6.2381,-6.2381,-6.2381,-6.2381,-6.2381,-6.2381,-6.2212,-6.211,-6.278,-6.278,-6.278,-6.278,-6.278,-6.278,-6.278,-6.278,-6.278,-6.278,-6.278,-6.278,-6.278,-6.278,-6.278,-6.278,-6.3539,-6.4383,-6.5191,-6.5999,-6.6806,-6.7577,-6.7687,-6.7834,-6.8201,-6.8641,-6.9192,0.0,-6.9963,-7.0367,-7.1219,-7.1651,-7.2055,-7.2496,-7.2496,-7.2496,-7.2496,-7.2496,-7.2496,-7.2496,-7.2496,-7.2496,-7.2496,-7.2496,-7.2496,-7.2496,-7.2496,-7.2496,-7.2496,-7.2496,-7.2496,-7.2496,-7.2496,-7.2496,-7.2496,-7.2496,-7.2496,-7.2496,-7.2496,-7.2496,-7.2496,-7.2496,-7.2496,-7.2496,-7.2496,-7.2496,-7.2496,-7.2496,-7.2496,-7.2496,-7.2496,-7.2496,-7.2496,-7.2496,-7.2496,-7.2496,-7.2496,-7.2496,-7.2496,-7.2496,-7.2071,-7.1885,-7.2409,-7.0465,-6.9058,-6.9637,-6.8059,-6.7202,-6.8297,-6.7454,-6.6988,-6.7541,-6.6746,-6.617,-6.617,-6.5493,-6.4918,-6.4478,-6.4174,-6.3666,-6.2922,-6.2888,-6.2719,-6.2381,-6.2381,-6.2381,-6.2381,-6.2381,-6.2381,-6.2381,-6.2381,-6.2381,-6.278,-6.278,-6.278,-6.278,-6.278,-6.278,-6.278,-6.278,-6.278,-6.278,-6.278,-6.278,-6.278,-6.278,-6.278,-6.278,-6.3613,-6.4494,-6.5191,-6.6072,-6.6916,-6.7614,-6.7797,-6.8128,-6.8825,-6.9082,-6.9816,-7.1183,-7.1431,-7.1468,-7.1468,-7.2129,-7.2496,-7.2496,-7.2496,-7.2496,-7.2496,-7.2496,-7.2496,-7.2496,-7.2496,-7.2496,-7.2496,-7.2496,-7.2496,-7.2496,-7.2496,-7.2496,-7.2496,-7.2496,-7.2496,-7.2496,-7.2496,-7.2496,-7.2496,-7.2496,-7.2496,-7.2496,-7.2496,-7.2496,-7.2496,-7.2496,-7.2496,-7.2496,-7.2496,-7.2496,-7.2496,-7.2496,-7.2496,-7.2496,-7.2496,-7.2496,-7.2496,-7.2496,-7.2496,-7.2496,-7.2496,-7.2496,-7.2496,-7.2496,-7.2496,-7.2496,-7.2496,-7.1063,-6.9849,-6.9743,-6.8141,-6.6946,-6.6812,-6.6812,-6.6812,-6.6812,-6.6812,-6.6812,-6.6812,-6.6203,-6.5797,-6.5696,-6.5087,-6.441,-6.37,-6.3666,-6.3294,-6.255,-6.255,-6.2482,-6.2381,-6.2381,-6.2381,-6.2381,-6.2381,-6.2381,-6.278,-6.278,-6.278,-6.278,-6.278,-6.278,-6.278,-6.278,-6.278,-6.278,-6.278,-6.278,-6.278,-6.278,-6.278,-6.278,-6.409,-6.5154,-6.5301,-6.6549,-6.754,-6.7677,-6.8274,-6.8752,-6.8898,-7.011,0.0,0.0,-7.1945,-7.2312,-7.2312,-7.2422,-7.2496,-7.2496,-7.2496,-7.2496,-7.2496,-7.2496,-7.2496,-7.2496,-7.2496,-7.2496,-7.2496,-7.2496,-7.2496,-7.2496,-7.2496,0.0,-7.2496,-7.2496,-7.2496,-7.2496,-7.2496,-7.2496,-7.2496,-7.2496,-7.2496,-7.2496,-7.2496,-7.2496,-7.2496,-7.2496,-7.2496,-7.2496,-7.2496,-7.2496,-7.2496,-7.2496,-7.2496,-7.2496,-7.2496,-7.2496,-7.2496,-7.2496,-7.2496,-7.2496,-7.2496,-7.2496,-7.2496,-7.2496,-7.2496,-7.2496,-7.2496,-7.1573,-7.0601,-6.9814,-6.8685,-6.7668,-6.6904,-6.6812,-6.6812,-6.6812,-6.6812,-6.6812,-6.6812,-6.6677,-6.6339,-6.573,-6.5561,-6.5189,-6.4444,-6.441,-6.4072,-6.3328,-6.3328,-6.3024,-6.2381,-6.2381,-6.2381,-6.2381,-6.2381,-6.2381,-6.278,-6.278,-6.278,-6.278,-6.278,-6.278,-6.278,-6.278,-6.278,-6.278,-6.278,-6.278,-6.278,-6.278,-6.278,-6.278,-6.4237,-6.5301,-6.5301,-6.6696,-6.7687,-6.7687,-6.8421,-6.9082,-6.9486,-7.0624,-7.1439,-7.1908,-7.2275,-7.2496,-7.2496,-7.2496,-7.2496,-7.2496,-7.2496,-7.2496,-7.2496,-7.2496,-7.2496,-7.2496,-7.2496,-7.2496,-7.2496,-7.2496,-7.2496,-7.2496,-7.2496,-7.2496,-7.2496,-7.2496,-7.2496,-7.2496,-7.2496,-7.2496,-7.2496,-7.2496,-7.2496,-7.2496,-7.2496,-7.2496,-7.2496,-7.2496,-7.2496,-7.2496,-7.2496,-7.2496,-7.2496,-7.2496,-7.2496,-7.2496,-7.2496,-7.2496,-7.2496,-7.2496,-7.2496,-7.2496,-7.2496,-7.2496,-7.2496,-7.2496,-7.2496,-7.2496,-7.2496,-7.1732,-7.0767,-6.9849,-6.8835,-6.7866,-6.6904,-6.6812,-6.6812,-6.6812,-6.6812,-6.6812,-6.6812,-6.6812,-6.6643,-6.6305,-6.6271,-6.5933,-6.5189,-6.5155,-6.4816,-6.4106,-6.4072,-6.3734,-6.2956,-6.2956,-6.2787,-6.2381,-6.2381,-6.2381,-6.278,-6.278,-6.278,-6.278,-6.278,-6.278,-6.278,-6.278,-6.278,-6.278,-6.278,-6.278,-6.278,-6.278,-6.278,-6.278,-6.4237,-6.5301,-6.5301,-6.6696,-6.7687,-6.7687,-6.8568,0.0,-7.0036,-7.0991,0.0,-7.2459,-7.2496,-7.2496,-7.2496,-7.2496,-7.2496,-7.2496,-7.2496,-7.2496,-7.2496,-7.2496,-7.2496,-7.2496,-7.2496,-7.2496,-7.2496,-7.2496,-7.2496,-7.2496,-7.2496,-7.2496,-7.2496,-7.2496,-7.2496,-7.2496,-7.2496,-7.2496,-7.2496,-7.2496,-7.2496,-7.2496,-7.2496,-7.2496,-7.2496,-7.2496,-7.2496,-7.2496,-7.2496,-7.2496,-7.2496,-7.2496,-7.2496,-7.2496,-7.2496,-7.2496,-7.2496,-7.2496,-7.2496,-7.2496,-7.2496,-7.2496,-7.2496,-7.2496,-7.2496,-7.2496,-7.2496,-7.1885,-7.1031,-6.9884,-6.9021,-6.8107,-6.6946,-6.6812,-6.6812,-6.6812,-6.6812,-6.6812,-6.6812,-6.6812,-6.6812,-6.6812,-6.6812,-6.6542,-6.5967,-6.5933,-6.5595,-6.485,-6.485,-6.4478,-6.3768,-6.3768,-6.3362,-6.2618,-6.2618,-6.255,-6.278,-6.278,-6.278,-6.278,-6.278,-6.278,-6.278,-6.278,-6.278,-6.278,-6.278,-6.278,-6.278,-6.278,-6.278,-6.278,-6.4237,-6.5301,-6.5301,-6.6696,-6.7687,-6.7687,0.0,0.0,-7.0073,-7.1505,-7.2422,-7.2496,-7.2496,-7.2496,-7.2496,-7.2496,-7.2496,-7.2496,-7.2496,-7.2496,-7.2496,-7.2496,-7.2496,-7.2496,-7.2496,-7.2496,-7.2496,-7.2496,-7.2496,-7.2496,-7.2496,-7.2496,0.0,-7.2496,-7.2496,-7.2496,-7.2496,-7.2496,-7.2496,-7.2496,-7.2496,-7.2496,-7.2496,-7.2496,-7.2496,-7.2496,-7.2496,-7.2496,-7.2496,-7.2496,-7.2496,-7.2496,-7.2496,-7.2496,-7.2496,-7.2496,-7.2496,-7.2496,-7.2496,-7.2496,-7.2496,-7.2496,-7.2496,-7.2496,-7.2496,-7.2496,-7.2496,-7.2438,-7.1763,-6.9989,-6.9637,-6.8908,-6.7029,-6.6812,-6.6812,-6.6812,-6.6812,-6.6812,-6.6812,-6.6812,-6.6812,-6.6812,-6.6812,-6.6779,-6.6711,-6.6711,-6.6339,-6.5595,-6.5595,-6.5222,-6.4512,-6.4512,-6.414,-6.3429,-6.3429,-6.3057,-6.278,-6.278,-6.278,-6.278,-6.278,-6.278,-6.278,-6.278,-6.278,-6.278,-6.278,-6.278,-6.278,-6.278,-6.278,-6.278,-6.4237,-6.5301,-6.5301,-6.6696,-6.7871,-6.8348,-6.9412,-7.0293,0.0,0.0,-7.2496,-7.2496,-7.2496,-7.2496,-7.2496,-7.2496,-7.2496,-7.2496,-7.2496,-7.2496,-7.2496,-7.2496,-7.2496,-7.2496,-7.2496,-7.2496,-7.2496,-7.2496,-7.2496,-7.2496,-7.2496,-7.2496,0.0,-7.2496,-7.2496,-7.2496,-7.2496,-7.2496,-7.2496,-7.2496,-7.2496,-7.2496,-7.2496,-7.2496,-7.2496,-7.2496,-7.2496,-7.2496,-7.2496,-7.2496,-7.2496,-7.2496,-7.2496,-7.2496,-7.2496,-7.2496,-7.2496,-7.2496,-7.2496,-7.2496,-7.2496,-7.2496,-7.2314,-7.1763,-7.2101,-7.2314,-7.1763,-7.2101,-7.1854,-6.9989,-6.9708,-6.9019,-6.7071,-6.6812,-6.6812,-6.6812,-6.6812,-6.6812,-6.6812,-6.6812,-6.6812,-6.6812,-6.6812,-6.6812,-6.6812,-6.6812,-6.6677,-6.6373,-6.6373,-6.6,-6.5256,-6.5256,-6.4884,-6.4174,-6.4174,-6.4005,-6.278,-6.278,-6.278,-6.278,-6.278,-6.278,-6.278,-6.278,-6.278,-6.278,-6.278,-6.278,-6.278,-6.278,-6.278,-6.278,-6.4237,-6.5301,-6.5301,-6.6696,-6.7981,-6.8788,0.0,-7.0403,-7.1219,-7.2055,-7.2496,-7.2496,-7.2496,-7.2496,-7.2496,-7.2496,-7.2496,-7.2496,-7.2496,-7.2496,-7.2496,-7.2496,-7.2496,-7.2496,-7.2496,-7.2496,-7.2496,-7.2496,-7.2496,-7.2496,-7.2496,-7.2496,0.0,-7.2496,-7.2496,-7.2496,-7.2496,-7.2496,-7.2496,-7.2496,-7.2496,-7.2496,-7.2496,-7.2496,-7.2496,-7.2496,-7.2496,-7.2496,-7.2496,-7.2496,-7.2496,-7.2496,-7.2496,-7.2496,-7.2496,-7.2496,-7.2496,-7.2496,-7.2496,-7.2496,-7.2496,-7.2496,-7.2285,-7.1635,-7.2041,-7.2197,-7.1255,-7.1635,-7.1448,-6.953,-6.9241,-6.8682,-6.7029,-6.6812,-6.6812,-6.6812,-6.6812,-6.6812,-6.6812,-6.6812,-6.6812,-6.6812,-6.6812,-6.6812,-6.6812,-6.6812,-6.6812,-6.6812,-6.6812,-6.6542,-6.6034,-6.6034,-6.5628,-6.4918,-6.4918,-6.4816,-6.278,-6.278,-6.278,-6.278,-6.278,-6.278,-6.278,-6.278,-6.278,-6.278,-6.278,-6.278,-6.278,-6.278,-6.278,-6.278,-6.4237,0.0,-6.5301,-6.6696,-6.7981,0.0,-6.9596,-7.0403,-7.1219,-7.2055,-7.2496,-7.2496,-7.2496,0.0,-7.2496,-7.2496,-7.2496,-7.2496,-7.2496,-7.2496,-7.2496,-7.2496,-7.2496,-7.2496,-7.2496,-7.2496,-7.2496,-7.2496,-7.2496,-7.2496,-7.2496,-7.2496,0.0,-7.2496,-7.2496,-7.2496,-7.2496,-7.2496,-7.2496,-7.2496,-7.2496,-7.2496,-7.2496,-7.2496,-7.2496,-7.2496,-7.2496,-7.2496,-7.2496,-7.2496,-7.2496,-7.2496,-7.2496,-7.2496,-7.2496,-7.2496,-7.2496,-7.2496,-7.2496,-7.2496,-7.2496,-7.2496,-7.2496,-7.2467,-7.2496,-7.2197,-7.1255,-7.1127,-7.0465,-6.8534,-6.8189,-6.7866,-6.6904,-6.6812,-6.6812,-6.6812,-6.6812,-6.6812,-6.6812,-6.6812,-6.6812,-6.6812,-6.6812,-6.6812,-6.6812,-6.6812,-6.6812,-6.6812,-6.6812,-6.6812,-6.6812,-6.6812,-6.6406,-6.5662,-6.5662,-6.529,-6.3686,-6.3246,-6.278,-6.278,-6.278,-6.278,-6.278,-6.278,-6.278,-6.278,-6.278,-6.278,-6.278,-6.278,-6.278,-6.278,-6.4237,0.0,0.0,0.0,0.0,-6.9559,-7.0917,-7.1835,0.0,0.0,-7.2496,-7.2496,-7.2496,-7.2496,-7.2496,-7.2496,-7.2496,-7.2496,-7.2496,-7.2496,-7.2496,-7.2496,-7.2496,-7.2496,-7.2496,-7.2496,-7.2496,-7.2496,-7.2496,-7.2496,-7.2496,-7.2496,-7.2496,-7.2496,-7.2496,-7.2496,-7.2496,-7.2496,-7.2496,-7.2496,-7.2496,-7.2496,-7.2496,-7.2496,-7.2496,-7.2496,-7.2496,-7.2496,-7.2496,-7.2496,-7.2496,-7.2496,-7.2496,-7.2496,-7.2496,-7.2496,-7.2496,-7.2496,-7.2496,-7.2496,-7.2496,-7.2011,-7.1542,-7.1542,-7.1031,-7.0501,-7.0196,-7.0162,-6.9708,-6.8381,-6.8189,-6.7866,-6.6904,-6.6812,-6.6812,-6.6812,-6.6812,-6.6812,-6.6812,-6.6812,-6.6812,-6.6812,-6.6812,-6.6812,-6.6812,-6.6812,-6.6812,-6.6812,-6.6812,-6.6812,-6.6812,-6.6812,-6.6677,-6.644,-6.644,-6.6068,-6.464,-6.3943,-6.3282,-6.3282,-6.3062,-6.278,-6.278,-6.278,-6.278,-6.278,-6.278,-6.278,-6.278,-6.278,-6.278,-6.278,-6.4237,-6.5301,0.0,0.0,0.0,-6.9889,0.0,0.0,0.0,-7.2496,-7.2496,-7.2496,-7.2496,-7.2496,-7.2496,-7.2496,-7.2496,-7.2496,-7.2496,-7.2496,-7.2496,-7.2496,-7.2496,-7.2496,-7.2496,-7.2496,-7.2496,-7.2496,-7.2496,-7.2496,-7.2496,-7.2496,0.0,-7.2496,-7.2496,-7.2496,-7.2496,-7.2496,-7.2496,-7.2496,-7.2496,-7.2496,-7.2496,-7.2496,-7.2496,-7.2496,-7.2496,-7.2496,-7.2496,-7.2496,-7.2496,-7.2496,-7.2496,-7.2496,-7.2496,-7.2496,-7.2496,-7.2496,-7.2496,-7.2409,-7.2041,-7.1511,-7.1031,-7.0635,-7.0127,-6.9601,-6.9205,-6.9131,-6.8798,-6.7827,-6.7668,-6.7461,-6.6896,-6.6812,-6.6812,-6.6812,-6.6812,-6.6812,-6.6812,-6.6812,-6.6812,-6.6812,-6.6812,-6.6812,-6.6812,-6.6812,-6.6812,-6.6812,-6.6812,-6.6812,-6.6812,-6.6812,-6.6812,-6.6812,-6.6812,-6.6542,0.0,-6.4824,-6.42,-6.42,-6.3576,-6.2989,-6.2989,-6.2989,0.0,-6.2989,-6.2989,-6.2964,-6.2915,-6.289,-6.289,-6.289,-6.4273,0.0,0.0,-6.6806,0.0,0.0,-7.1505,0.0,-7.2496,-7.2496,-7.2496,-7.2496,-7.2496,-7.2496,-7.2496,-7.2496,-7.2496,-7.2496,-7.2496,-7.2496,-7.2496,-7.2496,-7.2496,-7.2496,-7.2496,-7.2496,-7.2496,-7.2496,-7.2496,0.0,-7.2496,-7.2496,-7.2496,-7.2496,-7.2496,-7.2496,-7.2496,-7.2496,-7.2496,-7.2496,-7.2496,-7.2496,-7.2496,-7.2496,-7.2496,-7.2496,-7.2496,-7.2496,-7.2496,-7.2496,-7.2496,-7.2496,-7.2496,-7.2496,-7.2496,-7.2496,-7.2496,-7.2496,-7.2496,-7.2255,-7.1286,-7.1063,-7.0734,-6.9884,-6.9601,-6.9205,-6.8343,-6.8111,-6.7827,-6.6904,-6.6812,-6.6812,-6.6812,-6.6812,-6.6812,-6.6812,-6.6812,-6.6812,-6.6812,-6.6812,-6.6812,-6.6812,-6.6812,-6.6812,-6.6812,-6.6812,-6.6812,-6.6812,-6.6812,-6.6812,-6.6812,-6.6812,-6.6812,-6.6812,-6.6812,-6.6812,-6.7173,0.0,-6.5007,-6.5007,-6.4861,-6.4714,0.0,-6.4714,-6.4714,-6.4714,-6.4714,-6.453,-6.3906,-6.3796,-6.3796,-6.3796,-6.464,-6.5521,-6.6145,-6.8128,0.0,-7.0036,-7.1505,-7.2496,-7.2496,-7.2496,-7.2496,-7.2496,-7.2496,-7.2496,-7.2496,-7.2496,-7.2496,-7.2496,-7.2496,-7.2496,-7.2496,-7.2496,-7.2496,-7.2496,-7.2496,-7.2496,-7.2496,-7.2496,-7.2496,-7.2496,-7.2496,-7.2496,-7.2496,-7.2496,-7.2496,-7.2496,-7.2496,-7.2496,-7.2496,-7.2496,-7.2496,-7.2496,-7.2496,-7.2496,-7.2496,-7.2496,-7.2496,-7.2496,-7.2496,-7.2496,-7.2496,-7.2496,-7.2496,-7.2496,-7.2496,-7.2496,-7.2496,-7.2496,-7.2496,-7.2255,-7.1286,-7.0535,-6.9989,-6.9743,-6.8527,-6.7622,-6.8146,-6.7622,-6.7037,-6.6854,-6.6812,-6.6812,-6.6812,-6.6812,-6.6812,-6.6812,-6.6812,-6.6812,-6.6812,-6.6812,-6.6812,-6.6812,-6.6812,-6.6812,-6.6812,-6.6812,-6.6812,-6.6812,-6.6812,-6.6812,-6.6812,-6.6812,-6.6812,-6.6812,-6.6812,-6.6812,-6.7687,-6.6769,-6.5852,-6.5852,-6.5595,-6.5301,-6.5301,-6.5301,-6.5301,-6.5301,-6.5301,-6.5191,-6.4714,-6.464,-6.464,-6.464,-6.5338,0.0,0.0,0.0,-7.022,-7.0624,-7.1762,-7.2496,0.0,-7.2496,-7.2496,-7.2496,-7.2496,-7.2496,-7.2496,-7.2496,-7.2496,-7.2496,-7.2496,-7.2496,-7.2496,-7.2496,-7.2496,-7.2496,-7.2496,-7.2496,-7.2496,-7.2496,-7.2496,-7.2496,-7.2496,-7.2496,-7.2496,-7.2496,-7.2496,-7.2496,-7.2496,-7.2496,-7.2496,-7.2496,-7.2496,-7.2496,-7.2496,-7.2496,-7.2496,-7.2496,-7.2496,-7.2496,-7.2496,-7.2496,-7.2496,-7.2496,-7.2496,-7.2496,-7.2496,-7.2496,-7.2496,-7.2496,-7.2496,-7.2101,-7.0734,-7.0058,-6.9457,-6.8531,-6.7535,-6.6946,-6.7461,-6.712,-6.6812,-6.6812,-6.6812,-6.6812,-6.6812,-6.6812,-6.6812,-6.6812,-6.6812,-6.6812,-6.6812,-6.6812,-6.6812,-6.6812,-6.6812,-6.6812,-6.6812,-6.6812,-6.6812,-6.6812,-6.6812,-6.6812,-6.6812,-6.6812,-6.6812,-6.6812,-6.6812,-6.6812,-6.7687,-6.7173,-6.6659,-6.6659,-6.6182,-6.5668,-6.5668,-6.5668,-6.5668,-6.5668,-6.5668,-6.5632,-6.5521,-6.5485,-6.5485,-6.5485,-6.6145,0.0,-6.8678,-6.9596,-7.0403,-7.1183,-7.2018,0.0,-7.2496,-7.2496,-7.2496,-7.2496,-7.2496,-7.2496,-7.2496,-7.2496,-7.2496,-7.2496,-7.2496,-7.2496,-7.2496,-7.2496,-7.2496,-7.2496,-7.2496,-7.2496,-7.2496,-7.2496,-7.2496,-7.2496,-7.2496,-7.2496,-7.2496,-7.2496,-7.2496,-7.2496,-7.2496,-7.2496,-7.2496,-7.2496,-7.2496,-7.2496,-7.2496,-7.2496,-7.2496,-7.2496,-7.2496,-7.2496,-7.2496,-7.2496,-7.2496,-7.2496,-7.2496,-7.2496,-7.2496,-7.2496,-7.2496,-7.2496,-7.2496,-7.2011,-7.0298,-6.9919,-6.9349,-6.7373,-6.7029,-6.6946,-6.6812,-6.6812,-6.6812,-6.6812,-6.6812,-6.6812,-6.6812,-6.6812,-6.6812,-6.6812,-6.6812,-6.6812,-6.6812,-6.6812,-6.6812,-6.6812,-6.6812,-6.6812,-6.6812,-6.6812,-6.6812,-6.6812,-6.6812,-6.6812,-6.6812,-6.6812,-6.6812,-6.6812,-6.6812,-6.6812,-6.7687,-6.7614,-6.7504,-6.7504,-6.7393,-6.732,-6.732,-6.732,-6.732,-6.732,-6.732,-6.71,-6.6439,-6.6329,-6.6329,-6.6329,-6.699,-6.7834,0.0,0.0,-7.0403,-7.1183,0.0,-7.2496,-7.2496,-7.2496,-7.2496,-7.2496,-7.2496,-7.2496,-7.2496,-7.2496,-7.2496,-7.2496,-7.2496,-7.2496,-7.2496,-7.2496,-7.2496,-7.2496,-7.2496,-7.2496,-7.2496,-7.2496,-7.2496,-7.2496,-7.2496,-7.2496,-7.2496,-7.2496,-7.2496,-7.2496,-7.2496,-7.2496,-7.2496,-7.2496,-7.2496,-7.2496,-7.2496,-7.2496,-7.2496,-7.2496,-7.2496,-7.2496,-7.2496,-7.2496,-7.2496,-7.2496,-7.2496,-7.2496,-7.2496,-7.2496,-7.2496,-7.2496,-7.2496,-7.2197,-7.1127,-7.0865,-7.0297,-6.8343,-6.799,-6.7747,-6.6946,-6.6812,-6.6812,-6.6812,-6.6812,-6.6812,-6.6812,-6.6812,-6.6812,-6.6812,-6.6812,-6.6812,-6.6812,-6.6812,-6.6812,-6.6812,-6.6812,-6.6812,-6.6812,-6.6812,-6.6812,-6.6812,-6.6812,-6.6812,-6.6812,-6.6812,-6.6812,-6.6812,-6.6812,-6.6812,-6.7687,-6.7687,-6.7687,-6.7687,-6.7687,-6.7687,-6.7687,-6.7687,-6.7687,-6.7687,-6.7687,-6.7577,-6.721,-6.7136,-6.7136,-6.7136,-6.7797,-6.8641,-6.9449,-7.0257,-7.1064,0.0,0.0,-7.2496,-7.2496,-7.2496,-7.2496,-7.2496,-7.2496,-7.2496,-7.2496,-7.2496,-7.2496,-7.2496,-7.2496,-7.2496,-7.2496,-7.2496,-7.2496,-7.2496,-7.2496,-7.2496,-7.2496,-7.2496,-7.2496,-7.2496,-7.2496,-7.2496,-7.2496,-7.2496,-7.2496,-7.2496,-7.2496,-7.2496,-7.2496,-7.2496,-7.2496,-7.2496,-7.2496,-7.2496,-7.2496,-7.2496,-7.2496,-7.2496,-7.2496,-7.2496,-7.2496,-7.2496,-7.2496,-7.2496,-7.2496,-7.2496,-7.2496,-7.2496,-7.2496,-7.2255,-7.1286,-7.1127,-7.0701,-6.9277,-6.8572,-6.8068,-6.7662,-6.712,-6.6812,-6.6812,-6.6812,-6.6812,-6.6812,-6.6812,-6.6812,-6.6812,-6.6812,-6.6812,-6.6812,-6.6812,-6.6812,-6.6812,-6.6812,-6.6812,-6.6812,-6.6812,-6.6812,-6.6812,-6.6812,-6.6812,-6.6812,-6.6812,-6.6812,-6.6812,-6.6812,-6.6812,-6.7687,-6.7687,-6.7687,-6.7687,-6.7687,-6.7687,-6.7687,-6.7687,-6.7687,-6.7687,-6.7687,-6.7687,-6.7687,-6.7687,-6.7687,-6.7687,-6.8385,-6.9192,-7.0,-7.0807,-7.1615,-7.2422,-7.2496,-7.2496,-7.2496,-7.2496,-7.2496,-7.2496,-7.2496,-7.2496,-7.2496,-7.2496,-7.2496,-7.2496,-7.2496,-7.2496,-7.2496,-7.2496,-7.2496,-7.2496,-7.2496,-7.2496,-7.2496,-7.2496,-7.2606,-7.2789,-7.2789,-7.2899,-7.3083,-7.3083,-7.3083,-7.3083,-7.3083,-7.2936,-7.2753,-7.2569,-7.2496,-7.2496,-7.2496,-7.2496,-7.2496,-7.2496,-7.2496,-7.2496,-7.2496,-7.2496,-7.2496,-7.2496,-7.2496,-7.2496,-7.2496,-7.2496,-7.2496,-7.2496,-7.2496,-7.2285,-7.1573,-7.1448,-7.1159,-7.023,-6.9241,-6.8458,-6.8227,-6.742,-6.6812,-6.6812,-6.6812,-6.6812,-6.6812,-6.6812,-6.6812,-6.6812,-6.6812,-6.6812,-6.6812,-6.6812,-6.6812,-6.6812,-6.6812,-6.6812,-6.6812,-6.6812,-6.6812,-6.6812,-6.6812,-6.6812,-6.6812,-6.6812,-6.6812,-6.6812,-6.6812,-6.6812,-6.7687,-6.7687,-6.7687,-6.7687,-6.7687,-6.7687,-6.7687,-6.7687,-6.7687,-6.7687,-6.7687,-6.7687,-6.7687,-6.7687,-6.7687,-6.7687,-6.8385,-6.9192,-7.0,0.0,-7.1615,-7.2422,-7.2496,-7.2496,-7.2496,-7.2496,-7.2496,-7.2496,-7.2496,-7.2496,-7.2496,-7.2496,-7.2496,-7.2496,-7.2496,-7.2496,-7.2496,-7.2496,-7.2496,-7.2496,-7.2496,-7.2496,-7.2496,-7.2496,-7.2899,-7.3597,-7.3597,-7.4037,-7.4735,-7.4735,-7.4735,-7.4735,-7.4735,-7.4258,-7.3523,-7.2789,-7.2496,-7.2496,-7.2496,-7.2496,-7.2496,-7.2496,-7.2496,-7.2496,-7.2496,-7.2496,-7.2496,-7.2496,-7.2496,-7.2496,-7.2496,-7.2496,-7.2496,-7.2496,-7.2496,-7.2467,-7.2409,-7.2409,-7.2101,-7.1191,-7.0264,-6.9277,-6.8343,-6.742,-6.6812,-6.6812,-6.6812,-6.6812,-6.6812,-6.6812,-6.6812,-6.6812,-6.6812,-6.6812,-6.6812,-6.6812,-6.6812,-6.6812,-6.6812,-6.6812,-6.6812,-6.6812,-6.6812,-6.6812,-6.6812,-6.6812,-6.6812,-6.6812,-6.6812,-6.6812,-6.6812,-6.6812,-6.7687,-6.7687,-6.7687,-6.7687,-6.7687,-6.7687,-6.7687,-6.7687,-6.7687,-6.7687,-6.7687,-6.7687,-6.7687,-6.7687,-6.7834,-6.8348,-6.9119,-6.9926,-7.0734,-7.1541,-7.2165,-7.2459,-7.2496,-7.2496,-7.2496,-7.2496,-7.2496,-7.2496,-7.2496,-7.2496,-7.2496,-7.2496,-7.2496,-7.2496,-7.2496,-7.2496,-7.2496,-7.2496,-7.2496,-7.2496,-7.2496,-7.2753,-7.323,-7.323,-7.3707,-7.4441,-7.4441,-7.4625,-7.4918,-7.4918,-7.4918,-7.4918,-7.4918,-7.4404,-7.367,-7.334,-7.2936,-7.2496,-7.2496,-7.2496,-7.2496,-7.2496,-7.2496,-7.2496,-7.2496,-7.2496,-7.2496,-7.2496,-7.2496,-7.2496,-7.2496,-7.2496,-7.2496,-7.2496,-7.2496,-7.2496,-7.2496,-7.2496,-7.2409,-7.2041,-7.1191,-7.0263,-6.9314,-6.8339,-6.7461,-6.6896,-6.6812,-6.6812,-6.6812,-6.6812,-6.6812,-6.6812,-6.6812,-6.6812,-6.6812,-6.6812,-6.6812,-6.6812,-6.6812,-6.6812,-6.6812,-6.6812,-6.6812,-6.6812,-6.6812,-6.6812,-6.6812,-6.6812,-6.6812,-6.6812,-6.6812,-6.6812,-6.7687,-6.7687,-6.7687,-6.7687,-6.7687,-6.7687,-6.7687,-6.7687,-6.7687,-6.7687,-6.7687,-6.7687,-6.7687,-6.7687,-6.7944,0.0,-6.9596,-7.0367,-7.1211,-7.1982,-7.2496,-7.2496,-7.2496,-7.2496,-7.2496,-7.2496,-7.2496,-7.2496,-7.2496,-7.2496,-7.2496,-7.2496,-7.2496,-7.2496,-7.2496,-7.2496,-7.2496,-7.2496,-7.2642,-7.2899,-7.2899,-7.3156,-7.3707,-7.3964,-7.4515,-7.5285,-7.5285,-7.5432,-7.5689,-7.5689,-7.5689,-7.5652,-7.5395,-7.4808,-7.4037,-7.378,-7.3193,-7.2496,-7.2496,-7.2496,-7.2496,-7.2496,-7.2496,-7.2496,-7.2496,-7.2496,-7.2496,-7.2496,-7.2496,-7.2496,-7.2496,-7.2496,-7.2496,-7.2496,-7.2496,-7.2496,-7.2496,-7.2255,-7.2167,-7.2438,-7.1255,-7.0092,-6.9778,-6.8645,-6.7541,-6.6896,-6.6812,-6.6812,-6.6812,-6.6812,-6.6812,-6.6812,-6.6812,-6.6812,-6.6812,-6.6812,-6.6812,-6.6812,-6.6812,-6.6812,-6.6812,-6.6812,-6.6812,-6.6812,-6.6812,-6.6812,-6.6812,-6.6812,-6.6812,-6.6812,-6.6812,-6.6812,-6.7687,-6.7687,-6.7687,-6.7687,-6.7687,-6.7687,-6.7687,-6.7687,-6.7687,-6.7687,-6.7687,-6.7687,-6.7687,-6.7687,-6.7944,-6.8788,-6.9596,-7.0367,-7.1183,-7.2018,-7.2496,-7.2496,-7.2496,-7.2496,-7.2496,-7.2496,-7.2496,-7.2496,-7.2496,-7.2496,-7.2496,-7.2496,-7.2496,-7.2496,-7.2496,-7.2496,-7.2496,-7.2496,-7.2899,-7.3707,-7.3707,-7.3707,-7.3744,-7.4551,-7.5359,-7.6093,-7.6093,-7.657,-7.7273,-7.7273,-7.7273,-7.72,-7.6423,-7.5616,-7.4808,-7.4001,-7.3193,-7.2496,-7.2496,-7.2496,-7.2496,-7.2496,-7.2496,-7.2496,-7.2496,-7.2496,-7.2496,-7.2496,-7.2496,-7.2496,-7.2496,-7.2467,-7.2496,-7.2496,-7.2496,-7.2467,-7.2467,-7.1763,-7.135,-7.2285,-7.023,-6.8604,-6.9529,-6.8063,-6.6812,-6.6812,-6.6812,-6.6812,-6.6812,-6.6812,-6.6812,-6.6812,-6.6812,-6.6812,-6.6812,-6.6812,-6.6812,-6.6812,-6.6812,-6.6812,-6.6812,-6.6812,-6.6812,-6.6812,-6.6812,-6.6812,-6.6812,-6.6812,-6.6812,-6.6812,-6.6812,-6.6812,-6.7687,-6.7687,-6.7687,-6.7687,-6.7687,-6.7687,-6.7687,-6.7687,-6.7687,-6.7687,-6.7687,-6.7687,-6.7687,-6.7687,-6.8128,-6.9522,-6.9926,-7.0587,-7.1945,-7.2349,-7.2496,-7.2496,-7.2496,-7.2496,-7.2496,-7.2496,-7.2496,-7.2496,-7.2496,-7.2496,-7.2496,-7.2496,-7.2496,-7.2496,-7.2496,-7.2496,-7.2496,-7.3046,-7.345,-7.3707,-7.4845,-7.5395,-7.5395,-7.5652,-7.6203,-7.6937,-7.6937,-7.7053,-7.7273,-7.7273,-7.7273,-7.7273,-7.7017,-7.646,-7.5652,-7.4845,-7.4037,-7.3266,-7.2716,-7.2496,-7.2496,-7.2496,-7.2496,-7.2496,-7.2496,-7.2496,-7.2496,-7.2496,-7.2496,-7.238,-7.1702,-7.1511,-7.1665,-7.2314,-7.2011,-7.1511,-7.1511,-7.1286,-7.0998,-7.0601,-6.9884,-6.9166,-6.8723,-6.8185,-6.7582,-6.6904,-6.6812,-6.6812,-6.6812,-6.6812,-6.6812,-6.6812,-6.6812,-6.6812,-6.6812,-6.6812,-6.6812,-6.6812,-6.6812,-6.6812,-6.6812,-6.6812,-6.6812,-6.6812,-6.6812,-6.6812,-6.6812,-6.6812,-6.6812,-6.6812,-6.6812,-6.6812,-6.7687,-6.7687,-6.7687,-6.7687,-6.7687,-6.7687,-6.7687,-6.7687,-6.7687,-6.7687,-6.7687,-6.7687,-6.7687,-6.7944,-6.8605,-6.9889,-7.0367,-7.1027,-7.2312,-7.2496,-7.2496,-7.2496,-7.2496,-7.2496,-7.2496,-7.2496,-7.2496,-7.2496,-7.2496,-7.2496,-7.2496,-7.2496,-7.2496,-7.2496,-7.2496,-7.2642,-7.2973,-7.345,-7.4001,-7.4661,-7.5652,-7.6276,-7.6607,-7.6607,-7.6864,-7.7273,-7.7273,-7.7273,-7.7273,-7.7273,-7.7273,-7.7273,-7.7273,-7.6827,-7.6056,-7.5579,-7.4661,-7.3634,-7.312,-7.2789,-7.2496,-7.2496,-7.2496,-7.2496,-7.2496,-7.2496,-7.2496,-7.2496,-7.2496,-7.238,-7.1794,-7.1095,-7.0668,-7.1223,-7.0966,-7.0535,-7.0535,-7.0229,-6.9918,-6.9708,-6.9093,-6.8454,-6.8227,-6.7871,-6.742,-6.6896,-6.6812,-6.6812,-6.6812,-6.6812,-6.6812,-6.6812,-6.6812,-6.6812,-6.6812,-6.6812,-6.6812,-6.6812,-6.6812,-6.6812,-6.6812,-6.6812,-6.6812,-6.6812,-6.6812,-6.6812,-6.6812,-6.6812,-6.6812,-6.6812,-6.6812,-6.6812,-6.7687,-6.7687,-6.7687,-6.7687,-6.7687,-6.7687,-6.7687,-6.7687,-6.7687,-6.7687,-6.7687,-6.7724,-6.7797,-6.8421,-6.9192,-7.0073,-7.0844,-7.1578,-7.2386,-7.2496,-7.2496,-7.2496,-7.2496,-7.2496,-7.2496,-7.2496,-7.2496,-7.2496,-7.2496,-7.2496,-7.2496,-7.2496,-7.2496,-7.2496,-7.2496,-7.2899,-7.367,-7.378,-7.4588,-7.6093,-7.6166,-7.6607,-7.7273,-7.7273,-7.7273,-7.7273,-7.7273,-7.7273,-7.7273,-7.7273,-7.7273,-7.7273,-7.7273,-7.6864,-7.6203,-7.613,-7.5139,-7.378,-7.3707,-7.3156,-7.2496,-7.2496,-7.2496,-7.2496,-7.2496,-7.2496,-7.2496,-7.2496,-7.2496,-7.2467,-7.2409,-7.1031,-6.9672,-6.9601,-6.953,-6.9565,-6.9565,-6.8835,-6.842,-6.9241,-6.8019,-6.7037,-6.7911,-6.7373,-6.6812,-6.6812,-6.6812,-6.6812,-6.6812,-6.6812,-6.6812,-6.6812,-6.6812,-6.6812,-6.6812,-6.6812,-6.6812,-6.6812,-6.6812,-6.6812,-6.6812,-6.6812,-6.6812,-6.6812,-6.6812,-6.6812,-6.6812,-6.6812,-6.6812,-6.6812,-6.6812,-6.6812,-6.7687,-6.7687,-6.7687,-6.7687,-6.7687,-6.7687,-6.7687,-6.7687,-6.7687,-6.7687,-6.7687,-6.7871,-6.8531,-6.8788,-6.9376,-7.0807,-7.1211,-7.1578,-7.2386,-7.2496,-7.2496,-7.2496,-7.2496,-7.2496,-7.2496,-7.2496,-7.2496,-7.2496,-7.2496,-7.2496,-7.2496,-7.2496,-7.2496,-7.2496,-7.2496,-7.2899,-7.367,-7.4331,-7.5139,-7.6093,-7.6754,-7.7127,-7.7273,-7.7273,-7.7273,-7.7273,-7.7273,-7.7273,-7.7273,-7.7273,-7.7273,-7.7273,-7.7273,-7.7163,-7.6974,-7.635,-7.5469,-7.4551,-7.3927,-7.3156,-7.2496,-7.2496,-7.2496,-7.2496,-7.2496,-7.2496,-7.2496,-7.2496,-7.2496,-7.2314,-7.1573,-7.0568,-6.9494,-6.8723,-6.8534,-6.8534,-6.8604,-6.8378,-6.8068,-6.7535,-6.7112,-6.6854,-6.7071,-6.6946,-6.6812,-6.6812,-6.6812,-6.6812,-6.6812,-6.6812,-6.6812,-6.6812,-6.6812,-6.6812,-6.6812,-6.6812,-6.6812,-6.6812,-6.6812,-6.6812,-6.6812,-6.6812,-6.6812,-6.6812,-6.6812,-6.6812,-6.6812,-6.6812,-6.6812,-6.6812,-6.6812,-6.6812,-6.7797,-6.7687,-6.7687,-6.7687,-6.7687,-6.7687,-6.7687,-6.7687,-6.7687,-6.7687,-6.7687,-6.7944,-6.8752,-6.9229,-6.9889,-7.1101,-7.1651,-7.2018,-7.2459,-7.2496,-7.2496,-7.2496,-7.2496,-7.2496,-7.2496,-7.2496,-7.2496,-7.2496,-7.2496,-7.2496,-7.2496,-7.2496,-7.2496,-7.2496,-7.2863,-7.345,-7.4258,-7.5065,-7.5873,-7.668,-7.709,-7.7273,-7.7273,-7.7273,-7.7273,-7.7273,-7.7273,-7.7273,-7.7273,-7.7273,-7.7273,-7.7273,-7.7273,-7.7273,-7.7237,-7.6827,-7.6166,-7.5359,-7.4551,-7.3744,-7.301,-7.2642,-7.2496,-7.2496,-7.2496,-7.2496,-7.2496,-7.2496,-7.2496,-7.2409,-7.1885,-7.1095,-7.0229,-6.9708,-6.8534,-6.7541,-6.7576,-6.7541,-6.7414,-6.6862,-6.6812,-6.6812,-6.6812,-6.6812,-6.6812,-6.6812,-6.6812,-6.6812,-6.6812,-6.6812,-6.6812,-6.6812,-6.6812,-6.6812,-6.6812,-6.6812,-6.6812,-6.6812,-6.6812,-6.6812,-6.6812,-6.6812,-6.6812,-6.6812,-6.6812,-6.6812,-6.6812,-6.6812,-6.6812,-6.6812,-6.6812,-6.6812,-6.7907,-6.7687,-6.7687,-6.7687,-6.7687,-6.7687,-6.7687,-6.7687,-6.7687,-6.7687,-6.7687,-6.7981,-6.8935,-6.9633,-7.0403,-7.1358,-7.2092,-7.2496,-7.2496,-7.2496,-7.2496,-7.2496,-7.2496,-7.2496,-7.2496,-7.2496,-7.2496,-7.2496,-7.2496,-7.2496,-7.2496,-7.2496,-7.2496,-7.2496,-7.3266,-7.4074,-7.4918,-7.5689,-7.6497,-7.7273,-7.7273,-7.7273,-7.7273,-7.7273,-7.7273,-7.7273,-7.7273,-7.7273,-7.7273,-7.7273,-7.7273,-7.7273,-7.7273,-7.7273,-7.7273,-7.7273,-7.679,-7.6019,-7.5359,-7.4478,-7.3597,-7.2936,-7.2606,-7.2496,-7.2496,-7.2496,-7.2496,-7.2496,-7.2496,-7.2496,-7.2496,-7.1794,-7.1127,-7.1127,-6.9021,-6.7071,-6.7071,-6.6904,-6.6812,-6.6812,-6.6812,-6.6812,-6.6812,-6.6812,-6.6812,-6.6812,-6.6812,-6.6812,-6.6812,-6.6812,-6.6812,-6.6812,-6.6812,-6.6812,-6.6812,-6.6812,-6.6812,-6.6812,-6.6812,-6.6812,-6.6812,-6.6812,-6.6812,-6.6812,-6.6812,-6.6812,-6.6812,-6.6812,-6.6812,-6.6812,-6.6812,-6.6812,-6.7907,-6.7687,-6.7687,-6.7687,-6.7687,-6.7687,-6.7687,-6.7687,-6.7687,-6.7687,-6.7687,-6.8164,-6.9669,-7.0036,-7.0587,-7.2092,-7.2422,-7.2496,-7.2496,-7.2496,-7.2496,-7.2496,-7.2496,-7.2496,-7.2496,-7.2496,-7.2496,-7.2496,-7.2496,-7.2496,-7.2496,-7.2496,-7.2496,-7.2496,-7.3266,-7.4074,-7.4918,-7.5689,-7.6497,-7.7273,-7.7273,-7.7273,-7.7273,-7.7273,-7.7273,-7.7273,-7.7273,-7.7273,-7.7273,-7.7273,-7.7273,-7.7273,-7.7273,-7.7273,-7.7273,-7.7273,-7.679,-7.6093,-7.5983,-7.4955,-7.367,-7.356,-7.3083,-7.2496,-7.2496,-7.2496,-7.2496,-7.2496,-7.2496,-7.2496,-7.2496,-7.1794,-7.1127,-7.1127,-6.953,-6.8029,-6.8029,-6.7373,-6.6812,-6.6812,-6.6812,-6.6812,-6.6812,-6.6812,-6.6812,-6.6812,-6.6812,-6.6812,-6.6812,-6.6812,-6.6812,-6.6812,-6.6812,-6.6812,-6.6812,-6.6812,-6.6812,-6.6812,-6.6812,-6.6812,-6.6812,-6.6812,-6.6812,-6.6812,-6.6812,-6.6812,-6.6812,-6.6812,-6.6812,-6.6812,-6.6812,-6.6812,-6.8017,-6.7687,-6.7687,-6.7687,-6.7687,-6.7687,-6.7687,-6.7687,-6.7687,-6.7687,-6.8054,-6.8715,-6.9889,-7.0477,-7.1174,-7.2312,-7.2496,-7.2496,-7.2496,-7.2496,-7.2496,-7.2496,-7.2496,-7.2496,-7.2496,-7.2496,-7.2496,-7.2496,-7.2496,-7.2496,-7.2496,-7.2496,-7.2496,-7.2496,-7.3707,-7.4551,-7.4918,-7.6166,-7.6974,-7.7273,-7.7273,-7.7273,-7.7273,-7.7273,-7.7273,-7.7273,-7.7273,-7.7273,-7.7273,-7.7273,-7.7273,-7.7273,-7.7273,-7.7273,-7.7273,-7.7273,-7.7053,-7.6717,-7.6276,-7.5652,-7.4955,-7.4515,-7.3817,-7.3156,-7.3156,-7.2863,-7.2496,-7.2496,-7.2496,-7.2496,-7.2496,-7.2197,-7.1885,-7.1885,-7.0832,-6.9672,-6.9168,-6.7861,-6.6812,-6.6812,-6.6812,-6.6812,-6.6812,-6.6812,-6.6812,-6.6812,-6.6812,-6.6812,-6.6812,-6.6812,-6.6812,-6.6812,-6.6812,-6.6812,-6.6812,-6.6812,-6.6812,-6.6812,-6.6812,-6.6812,-6.6812,-6.6812,-6.6812,-6.6812,-6.6812,-6.6812,-6.6812,-6.6812,-6.6812,-6.6812,-6.6812,-6.6812,-6.8054,-6.7687,-6.7687,-6.7687,-6.7687,-6.7687,-6.7687,-6.7687,-6.7687,0.0,-6.8495,-6.9376,-7.0,-7.077,-7.155,-7.2386,-7.2496,-7.2496,-7.2496,-7.2496,-7.2496,-7.2496,-7.2496,-7.2496,-7.2496,-7.2496,-7.2496,-7.2496,-7.2496,-7.2496,-7.2496,-7.2496,-7.2496,-7.2496,-7.4074,-7.4918,-7.4918,-7.6503,-7.7273,-7.7273,-7.7273,-7.7273,-7.7273,-7.7273,-7.7273,-7.7273,-7.7273,-7.7273,-7.7273,-7.7273,-7.7273,-7.7273,-7.7273,-7.7273,-7.7273,-7.7273,-7.7273,-7.72,-7.6607,-7.6276,-7.6019,-7.5395,-7.4661,-7.4001,-7.4001,-7.345,-7.2789,-7.2789,-7.2679,-7.2496,-7.2496,-7.2314,-7.213,-7.213,-7.1223,-7.0194,-6.9458,-6.7985,-6.6812,-6.6812,-6.6812,-6.6812,-6.6812,-6.6812,-6.6812,-6.6812,-6.6812,-6.6812,-6.6812,-6.6812,-6.6812,-6.6812,-6.6812,-6.6812,-6.6812,-6.6812,-6.6812,-6.6812,-6.6812,-6.6812,-6.6812,-6.6812,-6.6812,-6.6812,-6.6812,-6.6812,-6.6812,-6.6812,-6.6812,-6.6812,-6.6812,-6.6812,-6.7907,-6.7687,-6.7687,-6.7687,-6.7687,-6.7687,-6.7687,-6.7687,-6.7687,-6.7687,-6.8935,-7.0036,-7.0073,-7.077,-7.155,-7.2386,-7.2496,-7.2496,-7.2496,-7.2496,-7.2496,-7.2496,-7.2496,-7.2496,-7.2496,-7.2496,-7.2496,-7.2496,-7.2496,-7.2496,-7.2496,-7.2496,-7.2496,-7.2496,-7.4074,-7.4918,-7.4918,-7.6503,-7.7273,-7.7273,-7.7273,-7.7273,-7.7273,-7.7273,-7.7273,-7.7273,-7.7273,-7.7273,-7.7273,-7.7273,-7.7273,-7.7273,-7.7273,-7.7273,-7.7273,-7.7273,-7.7273,-7.7273,-7.7237,-7.6754,-7.6093,-7.6056,-7.5506,-7.4845,-7.4845,-7.4294,-7.3634,-7.3634,-7.3083,-7.2496,-7.2496,-7.1824,-7.1191,-7.1191,-6.9708,-6.8343,-6.8266,-6.7501,-6.6812,-6.6812,-6.6812,-6.6812,-6.6812,-6.6812,-6.6812,-6.6812,-6.6812,-6.6812,-6.6812,-6.6812,-6.6812,-6.6812,-6.6812,-6.6812,-6.6812,-6.6812,-6.6812,-6.6812,-6.6812,-6.6812,-6.6812,-6.6812,-6.6812,-6.6812,-6.6812,-6.6812,-6.6812,-6.6812,-6.6812,-6.6812,-6.6812,-6.6812,-6.8678,-6.8091,-6.7687,-6.7687,-6.7687,-6.7687,-6.7687,-6.7687,-6.7687,-6.7687,-6.8972,-7.011,-7.011,-7.1174,-7.2165,-7.2459,-7.2496,-7.2496,-7.2496,-7.2496,-7.2496,-7.2496,-7.2496,-7.2496,-7.2496,-7.2496,-7.2496,-7.2496,-7.2496,-7.2496,-7.2496,-7.2496,-7.2496,-7.2496,-7.4074,-7.5402,-7.643,-7.7017,-7.7273,-7.7273,-7.7273,-7.7273,-7.7273,-7.7273,-7.7273,-7.7273,-7.7273,-7.7273,-7.7273,-7.7273,-7.7273,-7.7273,-7.7273,-7.7273,-7.7273,-7.7273,-7.7273,-7.7273,-7.7273,-7.709,-7.69,-7.69,-7.635,-7.5689,-7.5689,-7.4665,-7.3534,-7.3534,-7.2499,-7.1421,-7.1421,-7.0792,-7.023,-7.023,-6.9205,-6.8189,-6.8189,-6.7461,-6.6812,-6.6812,-6.6812,-6.6812,-6.6812,-6.6812,-6.6812,-6.6812,-6.6812,-6.6812,-6.6812,-6.6812,-6.6812,-6.6812,-6.6812,-6.6812,-6.6812,-6.6812,-6.6812,-6.6812,-6.6812,-6.6812,-6.6812,-6.6812,-6.6812,-6.6812,-6.6812,-6.6812,-6.6812,-6.6812,-6.6812,-6.6812,-6.6812,-6.6812,-6.9119,-6.8311,-6.7687,-6.7687,-6.7687,-6.7687,-6.7687,-6.7687,-6.7687,-6.7687,-6.8972,-7.011,-7.011,-7.1431,-7.2496,-7.2496,-7.2496,-7.2496,-7.2496,-7.2496,-7.2496,-7.2496,-7.2496,-7.2496,-7.2496,-7.2496,-7.2496,-7.2496,-7.2496,-7.2496,-7.2496,-7.2496,-7.2753,-7.3303,-7.4368,-7.5659,-7.7273,-7.7273,-7.7273,-7.7273,-7.7273,-7.7273,-7.7273,-7.7273,-7.7273,-7.7273,-7.7273,-7.7273,-7.7273,-7.7273,-7.7273,-7.7273,-7.7273,-7.7273,-7.7273,-7.7273,-7.7273,-7.7273,-7.7273,-7.7082,-7.6793,-7.6793,-7.6199,-7.5498,-7.5498,-7.4452,-7.3292,-7.3292,-7.2264,-7.1123,-7.0875,-6.9987,-6.9095,-6.8795,-6.8219,-6.7708,-6.7708,-6.7243,-6.6812,-6.6812,-6.6812,-6.6812,-6.6812,-6.6812,-6.6812,-6.6812,-6.6812,-6.6812,-6.6812,-6.6812,-6.6812,-6.6812,-6.6812,-6.6812,-6.6812,-6.6812,-6.6812,-6.6812,-6.6812,-6.6812,-6.6812,-6.6812,-6.6812,-6.6812,-6.6812,-6.6812,-6.6812,-6.6812,-6.6812,-6.6812,-6.6812,-6.6812,0.0,0.0,0.0,-6.7714,-6.7687,-6.7687,-6.7687,0.0,-6.7687,-6.7687,-6.8972,-7.011,-7.011,-7.1431,-7.2496,-7.2496,-7.2496,-7.2496,-7.2496,-7.2496,-7.2496,-7.2496,-7.2496,-7.2496,-7.2496,-7.2496,-7.2496,-7.2496,-7.2496,-7.2496,-7.2496,-7.2496,-7.323,-7.4845,-7.4918,-7.5659,-7.7273,-7.7273,-7.7273,-7.7273,-7.7273,-7.7273,-7.7273,-7.7273,-7.7273,-7.7273,-7.7273,-7.7273,-7.7273,-7.7273,-7.7273,-7.7273,-7.7273,-7.7273,-7.7273,-7.7273,-7.7273,-7.7243,-7.7243,-7.6595,-7.5753,-7.5753,-7.5084,-7.4272,-7.4272,-7.3741,-7.3102,-7.3102,-7.2462,-7.1683,-7.0943,-6.9468,-6.7945,-6.7063,-6.6846,-6.6812,-6.6812,-6.6812,-6.6812,-6.6812,-6.6812,-6.6812,-6.6812,-6.6812,-6.6812,-6.6812,-6.6812,-6.6812,-6.6812,-6.6812,-6.6812,-6.6812,-6.6812,-6.6812,-6.6812,-6.6812,-6.6812,-6.6812,-6.6812,-6.6812,-6.6812,-6.6812,-6.6812,-6.6812,-6.6812,-6.6812,-6.6812,-6.6812,-6.6812,-6.6812,-6.6812,-6.6812,-7.0,0.0,0.0,0.0,0.0,0.0,-6.7687,0.0,-6.7687,-6.7687,-6.8972,-7.011,-7.011,-7.1431,-7.2496,-7.2496,-7.2496,-7.2496,-7.2496,-7.2496,-7.2496,-7.2496,-7.2496,-7.2496,-7.2496,-7.2496,-7.2496,0.0,-7.2496,-7.2496,-7.2496,-7.2496,-7.323,-7.4845,-7.4918,-7.5659,-7.7273,-7.7273,-7.7273,-7.7273,-7.7273,-7.7273,-7.7273,-7.7273,-7.7273,-7.7273,-7.7273,-7.7273,-7.7273,-7.7273,-7.7273,-7.7273,-7.7273,-7.7273,-7.7273,-7.7273,-7.6824,-7.6231,-7.6231,-7.5545,-7.472,-7.472,-7.4535,-7.4272,-7.4272,-7.3632,-7.2898,-7.2898,-7.1843,-7.0488,-6.9734,-6.8774,-6.7902,-6.7675,-6.7184,-6.6812,-6.6812,-6.6812,-6.6812,-6.6812,-6.6812,-6.6812,-6.6812,-6.6812,-6.6812,-6.6812,-6.6812,-6.6812,-6.6812,-6.6812,-6.6812,-6.6812,-6.6812,-6.6812,-6.6812,-6.6812,-6.6812,-6.6812,-6.6812,-6.6812,-6.6812,-6.6812,-6.6812,-6.6812,-6.6812,-6.6812,-6.6812,-6.6812,-6.6812,-6.6812,-6.6812,-6.6812,-7.0734,-6.9779,-6.8788,-6.8311,0.0,0.0,-6.7687,-6.7687,-6.7797,0.0,-6.9192,-7.0183,-7.055,-7.1651,-7.2496,-7.2496,-7.2496,-7.2496,-7.2496,-7.2496,-7.2496,-7.2496,-7.2496,-7.2496,-7.2496,-7.2496,-7.2496,-7.2496,-7.2496,-7.2496,-7.2496,-7.2496,-7.323,-7.4845,-7.4918,-7.5659,-7.7273,-7.7273,-7.7273,-7.7273,-7.7273,-7.7273,-7.7273,-7.7273,-7.7273,-7.7273,-7.7273,-7.7273,-7.7273,-7.7273,-7.7273,-7.7273,-7.7273,-7.7051,-7.666,-7.666,-7.6027,-7.5156,-7.5156,-7.4498,-7.369,-7.369,-7.3372,-7.3044,-7.3044,-7.2624,-7.215,-7.215,-7.1197,-7.0094,-6.9654,-6.8977,-6.8335,-6.7996,-6.7557,-6.7184,-6.688,-6.6812,-6.6812,-6.6812,-6.6812,-6.6812,-6.6812,-6.6812,-6.6812,-6.6812,-6.6812,-6.6812,-6.6812,-6.6812,-6.6812,-6.6812,-6.6812,-6.6812,-6.6812,-6.6812,-6.6812,-6.6812,-6.6812,-6.6812,-6.6812,-6.6812,-6.6812,-6.6812,-6.6812,-6.6812,-6.6812,-6.6812,-6.6812,-6.6812,-6.6812,-6.6812,-7.1293,-7.0257,-6.9155,-6.9082,-6.8421,0.0,-6.7834,-6.776,-6.7907,0.0,-6.9522,-7.033,-7.1174,-7.1982,-7.2496,-7.2496,-7.2496,-7.2496,-7.2496,-7.2496,-7.2496,-7.2496,-7.2496,-7.2496,-7.2496,-7.2496,-7.2496,-7.2496,-7.2496,-7.2496,-7.2496,-7.2496,-7.3193,-7.4735,-7.4845,-7.5652,-7.7127,-7.7237,-7.7273,-7.7273,-7.7273,-7.7273,-7.7273,-7.7273,-7.7273,-7.7273,-7.7273,-7.7243,-7.715,-7.715,-7.7212,-7.7273,-7.7181,-7.6595,-7.5787,-7.5684,-7.4976,-7.412,-7.412,-7.3492,-7.2624,-7.2624,-7.2013,-7.1312,-7.1312,-7.1312,-7.1312,-7.1312,-7.0838,-7.0297,-7.0297,-6.9755,-6.9045,-6.8335,-6.8098,-6.7827,-6.7083,-6.6948,-6.6914,-6.6846,-6.6812,-6.6812,-6.6812,-6.6812,-6.6812,-6.6812,-6.6812,-6.6812,-6.6812,-6.6812,-6.6812,-6.6812,-6.6812,-6.6812,-6.6812,-6.6812,-6.6812,-6.6812,-6.6812,-6.6812,-6.6812,-6.6812,-6.6812,-6.6812,-6.6812,-6.6812,-6.6812,-6.6812,-6.6812,-6.6812,-6.6812,-6.6812,-7.1505,-7.1101,-7.0697,-7.0036,-6.9265,0.0,-6.8678,-6.8164,-6.7907,0.0,-6.9522,-7.033,-7.1174,-7.1982,-7.2496,-7.2496,-7.2496,-7.2496,-7.2496,-7.2496,-7.2496,-7.2496,-7.2496,-7.2496,-7.2496,-7.2496,-7.2496,-7.2496,-7.2496,-7.2496,-7.2496,-7.2496,-7.2936,-7.3891,-7.4551,-7.5359,-7.6313,-7.698,-7.7273,-7.7273,-7.7273,-7.7273,-7.7273,-7.7273,-7.7273,-7.7273,-7.7273,-7.6824,-7.6094,-7.6094,-7.6563,-7.7212,-7.6396,-7.5993,-7.5684,-7.4867,-7.3966,-7.309,-7.309,-7.2448,-7.1556,-7.1556,-7.1457,-7.1312,-7.1312,-7.1312,-7.1312,-7.1312,-7.121,-7.1109,-7.1109,-7.0534,-6.9925,-6.9789,-6.9282,-6.8639,-6.7861,-6.7692,-6.7523,-6.6914,-6.6812,-6.6812,-6.6812,-6.6812,-6.6812,-6.6812,-6.6812,-6.6812,-6.6812,-6.6812,-6.6812,-6.6812,-6.6812,-6.6812,-6.6812,-6.6812,-6.6812,-6.6812,-6.6812,-6.6812,-6.6812,-6.6812,-6.6812,-6.6812,-6.6812,-6.6812,-6.6812,-6.6812,-6.6812,-6.6812,-6.6812,-6.6812,-7.2018,-7.1615,-7.1183,-7.0807,-7.011,0.0,0.0,-6.9192,-6.9119,-6.9926,-7.044,-7.0954,-7.1762,-7.2239,-7.2496,-7.2496,-7.2496,-7.2496,-7.2496,-7.2496,-7.2496,-7.2496,-7.2496,-7.2496,-7.2496,-7.2496,-7.2496,-7.2496,-7.2496,-7.2496,-7.2496,-7.2496,-7.2863,-7.367,-7.4478,-7.5285,-7.6093,-7.69,-7.7273,-7.7273,-7.7273,-7.7273,-7.7273,-7.7273,-7.7273,-7.7273,-7.7273,-7.6728,-7.5787,-7.5787,-7.5823,-7.5754,-7.5263,-7.4757,-7.4234,-7.3733,-7.2921,-7.2056,-7.2056,-7.1732,-7.1312,-7.1312,-7.1312,-7.1312,-7.1312,-7.1312,-7.1312,-7.1312,-7.1312,-7.1312,-7.1312,-7.1041,-7.0669,-7.0297,-6.9925,-6.9451,-6.8673,-6.8504,-6.8267,-6.7489,-6.7354,-6.7252,-6.688,-6.6812,-6.6812,-6.6812,-6.6812,-6.6812,-6.6812,-6.6812,-6.6812,-6.6812,-6.6812,-6.6812,-6.6812,-6.6812,-6.6812,-6.6812,-6.6812,-6.6812,-6.6812,-6.6812,-6.6812,-6.6812,-6.6812,-6.6812,-6.6812,-6.6812,-6.6812,-6.6812,-6.6812,-6.6812,-7.2496,-7.2055,-7.1513,-7.1513,-7.0917,-7.033,0.0,0.0,0.0,-7.1138,0.0,0.0,0.0,0.0,0.0,-7.1872,0.0,0.0,0.0,-7.2202,0.0,-7.2496,-7.2496,-7.2496,-7.2496,-7.2496,-7.2496,-7.2496,-7.2496,-7.2496,-7.2496,-7.2496,-7.2789,-7.345,-7.4404,-7.5212,-7.5873,-7.6796,-7.7273,-7.7273,-7.7273,-7.7212,-7.7019,-7.7212,-7.7181,-7.7019,-7.7019,-7.6465,-7.551,-7.5298,-7.4647,-7.3768,-7.3963,-7.3532,-7.2756,-7.2582,-7.1969,-7.1312,-7.1312,-7.1312,-7.1312,-7.1312,-7.1312,-7.1312,-7.1312,-7.1312,-7.1312,-7.1312,-7.1312,-7.1312,-7.1312,-7.1312,-7.1142,-7.0534,-7.0398,-7.0195,-6.9485,-6.9316,-6.9079,-6.8267,-6.8132,-6.7861,-6.6948,-6.6812,-6.6812,-6.6812,-6.6812,-6.6812,-6.6812,-6.6812,-6.6812,-6.6812,-6.6812,-6.6812,-6.6812,-6.6812,-6.6812,-6.6812,-6.6812,-6.6812,-6.6812,-6.6812,-6.6812,-6.6812,-6.6812,-6.6812,-6.6812,-6.6812,-6.6812,-6.6812,-6.6812,-6.6812,-7.2496,-7.2422,-7.2349,-7.2349,-7.1762,-7.1174,-7.1174,0.0,-7.033,-7.1138,0.0,0.0,0.0,0.0,0.0,0.0,0.0,0.0,-6.9633,-7.1138,-7.2496,-7.2496,-7.2496,-7.2496,-7.2496,-7.2496,-7.2496,-7.2496,-7.2496,-7.2496,-7.2496,-7.2496,-7.2532,-7.2642,-7.4111,-7.4955,-7.5065,-7.654,-7.7273,-7.7273,-7.7273,-7.6824,-7.5993,-7.6888,-7.6824,-7.5959,-7.5959,-7.5405,-7.4385,-7.3532,-7.254,-7.1732,-7.2624,-7.2921,-7.2673,-7.1786,-7.1401,-7.1312,-7.1312,-7.1312,-7.1312,-7.1312,-7.1312,-7.1312,-7.1312,-7.1312,-7.1312,-7.1312,-7.1312,-7.1312,-7.1312,-7.1312,-7.1312,-7.121,-7.1176,-7.0973,-7.0229,-7.006,-6.9857,-6.9113,-6.8977,-6.8504,-6.7049,-6.6812,-6.6812,-6.6812,-6.6812,-6.6812,-6.6812,-6.6812,-6.6812,-6.6812,-6.6812,-6.6812,-6.6812,-6.6812,-6.6812,-6.6812,-6.6812,-6.6812,-6.6812,-6.6812,-6.6812,-6.6812,-6.6812,-6.6812,-6.6812,-6.6812,-6.6812,-6.6812,-6.6812,-6.6812,-7.2496,-7.2496,-7.2496,-7.2496,-7.2275,-7.2018,-7.2018,-7.1725,-7.1578,-7.1945,0.0,0.0,0.0,0.0,0.0,0.0,-7.1835,0.0,0.0,0.0,-7.2496,0.0,0.0,0.0,-7.2496,-7.2496,-7.2496,-7.2496,-7.2496,-7.2496,-7.2496,-7.2496,-7.2496,-7.2496,-7.4074,-7.4918,-7.4918,-7.6503,-7.7273,-7.7273,-7.7273,-7.7082,-7.666,-7.6498,-7.6197,-7.5753,-7.5156,-7.4348,-7.3412,-7.3003,-7.2193,-7.1356,-7.1742,-7.196,-7.1873,-7.1457,-7.1312,-7.1312,-7.1312,-7.1312,-7.1312,-7.1312,-7.1312,-7.1312,-7.1312,-7.1312,-7.1312,-7.1312,-7.1312,-7.1312,-7.1312,-7.1312,-7.1312,-7.1312,-7.1312,-7.1244,-7.0906,-7.0838,-7.0635,-6.9857,-6.9722,-6.9383,-6.8335,-6.776,-6.7286,-6.688,-6.6812,-6.6812,-6.6812,-6.6812,-6.6812,-6.6812,-6.6812,-6.6812,-6.6812,-6.6812,-6.6812,-6.6812,-6.6812,-6.6812,-6.6812,-6.6812,-6.6812,-6.6812,-6.6812,-6.6812,-6.6812,-6.6812,-6.6812,-6.6812,-6.6812,-6.6812,-7.2496,-7.2496,-7.2496,-7.2496,-7.2496,-7.2496,-7.2496,-7.2496,-7.2496,-7.2496,-7.2496,0.0,0.0,0.0,0.0,0.0,0.0,-7.2275,0.0,-7.2092,0.0,0.0,0.0,0.0,0.0,-7.2496,-7.2496,-7.2496,-7.2496,-7.2496,-7.2496,-7.2496,-7.2496,-7.2496,-7.4074,-7.4918,-7.4918,-7.6503,-7.7181,-7.6888,-7.6888,-7.6595,-7.6027,-7.558,-7.5227,-7.494,-7.4196,-7.3492,-7.2756,-7.2498,-7.196,-7.1312,-7.1312,-7.1312,-7.1312,-7.1312,-7.1312,-7.1312,-7.1312,-7.1312,-7.1312,-7.1312,-7.1312,-7.1312,-7.1312,-7.1312,-7.1312,-7.1312,-7.1312,-7.1312,-7.1312,-7.1312,-7.1312,-7.1312,-7.1312,-7.1312,-7.1312,-7.1312,-7.1142,-7.0601,-7.05,-7.0263,-6.9519,-6.8571,-6.7726,-6.7184,-6.6948,-6.6812,-6.6812,-6.6812,-6.6812,-6.6812,-6.6812,-6.6812,-6.6812,-6.6812,-6.6812,-6.6812,-6.6812,-6.6812,-6.6812,-6.6812,-6.6812,-6.6812,-6.6812,-6.6812,-6.6812,-6.6812,-6.6812,-6.6812,-6.6812,-6.6812,-7.2496,-7.2496,-7.2496,-7.2496,-7.2496,-7.2496,-7.2496,-7.2496,-7.2496,-7.2496,-7.2496,-7.2496,-7.2496,-7.2496,-7.1725,0.0,0.0,0.0,0.0,0.0,0.0,0.0,0.0,0.0,0.0,-7.2496,-7.2496,-7.2496,-7.2496,-7.2496,-7.2496,-7.2496,-7.2496,-7.2496,-7.4074,-7.4918,-7.4918,-7.6503,-7.6824,-7.5857,-7.5857,-7.483,-7.3003,-7.3889,-7.3846,-7.288,-7.288,-7.2838,-7.2714,-7.1776,-7.1312,-7.1312,-7.1312,-7.1312,-7.1312,-7.1312,-7.1312,-7.1312,-7.1312,-7.1312,-7.1312,-7.1312,-7.1312,-7.1312,-7.1312,-7.1312,-7.1312,-7.1312,-7.1312,-7.1312,-7.1312,-7.1312,-7.1312,-7.1312,-7.1312,-7.1312,-7.1312,-7.1312,-7.1312,-7.1278,-7.1278,-7.1041,-7.0297,-6.891,-6.7895,-6.7861,-6.7252,-6.6812,-6.6812,-6.6812,-6.6812,-6.6812,-6.6812,-6.6812,-6.6812,-6.6812,-6.6812,-6.6812,-6.6812,-6.6812,-6.6812,-6.6812,-6.6812,-6.6812,-6.6812,-6.6812,-6.6812,-6.6812,-6.6812,-6.6812,-6.6812,-6.6812,-7.2496,-7.2496,-7.2496,-7.2496,-7.2496,-7.2496,-7.2496,-7.2496,-7.2496,-7.2496,-7.2496,-7.2496,-7.2496,-7.2496,0.0,0.0,0.0,0.0,0.0,0.0,0.0,0.0,0.0,0.0,0.0,0.0,-7.2496,-7.2496,-7.2496,-7.2496,-7.2496,-7.2496,-7.2496,-7.2496,-7.4074,-7.4918,-7.4918,-7.6503,-7.6793,-7.5787,-7.5787,-7.544,-7.4757,-7.3733,-7.3492,-7.3729,-7.2406,-7.1786,-7.1786,-7.1412,-7.1312,-7.1312,-7.1312,-7.1312,-7.1312,-7.1312,-7.1312,-7.1312,-7.1312,-7.1312,-7.1312,-7.1312,-7.1312,-7.1312,-7.1312,-7.1312,-7.1312,-7.1312,-7.1312,-7.1312,-7.1312,-7.1312,-7.1312,-7.1312,-7.1312,-7.1312,-7.1312,-7.1312,-7.1312,-7.1312,-7.1312,-7.1244,-7.0973,-7.0094,-6.9248,-6.8774,-6.803,-6.7523,-6.7523,-6.7117,-6.6812,-6.6812,-6.6812,-6.6812,-6.6812,-6.6812,-6.6812,-6.6812,-6.6812,-6.6812,-6.6812,-6.6812,-6.6812,-6.6812,-6.6812,-6.6812,-6.6812,-6.6812,-6.6812,-6.6812,-6.6812,-6.6812,-7.2496,-7.2496,-7.2496,-7.2496,-7.2496,-7.2496,-7.2496,-7.2496,-7.2496,-7.2496,-7.2496,-7.2496,-7.2496,-7.2496,0.0,0.0,0.0,0.0,0.0,-7.2496,0.0,0.0,0.0,0.0,0.0,-7.2496,-7.2496,-7.2496,-7.2496,-7.2496,-7.2496,-7.2496,-7.2496,-7.2496,-7.4074,-7.4918,-7.4918,-7.6152,-7.6264,-7.5227,-7.4903,-7.4572,-7.4158,-7.2838,-7.2624,-7.3166,-7.1873,-7.1312,-7.1312,-7.1312,-7.1312,-7.1312,-7.1312,-7.1312,-7.1312,-7.1312,-7.1312,-7.1312,-7.1312,-7.1312,-7.1312,-7.1312,-7.1312,-7.1312,-7.1312,-7.1312,-7.1278,-7.0973,-7.1109,-7.1244,-7.0973,-7.1109,-7.1312,-7.1312,-7.1312,-7.1312,-7.1312,-7.1312,-7.1312,-7.1312,-7.1312,-7.1312,-7.1312,-7.0906,-7.0331,-6.9586,-6.8842,-6.8335,-6.8335,-6.7658,-6.7184,-6.7184,-6.6981,-6.6812,-6.6812,-6.6812,-6.6812,-6.6812,-6.6812,-6.6812,-6.6812,-6.6812,-6.7083,-6.7624,-6.7083,-6.7083,-6.7624,-6.7083,-6.6812,-6.6812,-6.6812,-6.6812]},{"header":{"parameterUnit":"m.s-1","parameterCategory":1,"la1":30.6,"la2":29.2853,"lo1":-89.7004,"lo2":-87.6739,"dy":0.0162,"dx":0.0183,"nx":112,"ny":82,"refTime":"2023-04-01T06:00:00:Z","depth":0,"parameterNumber":3,"parameterNumberName":"V-component_of_WINDS"},"data":[0.0,0.0,0.0,0.0,0.0,0.0,0.0,0.0,0.0,0.0,0.0,0.0,0.0,0.0,0.0,0.0,0.0,0.0,0.0,0.0,0.0,0.0,0.0,0.0,0.0,0.0,0.0,0.0,0.0,0.0,0.0,0.0,0.0,0.0,0.0,0.0,0.0,0.0,0.0,0.0,0.0,0.0,0.0,0.0,0.0,0.0,0.0,0.0,0.0,0.0,0.0,0.0,0.0,0.0,0.0,0.0,0.0,0.0,0.0,0.0,0.0,0.0,0.0,0.0,0.0,0.0,0.0,0.0,0.0,0.0,0.0,0.0,0.0,0.0,0.0,0.0,0.0,0.0,0.0,0.0,0.0,0.0,0.0,0.0,0.0,0.0,0.0,0.0,0.0,0.0,2.1109,2.1109,2.1109,2.1109,2.1109,2.2404,2.2591,2.1172,0.0,0.0,0.0,0.0,0.0,0.0,0.0,0.0,0.0,0.0,0.0,0.0,0.0,0.0,0.0,0.0,0.0,0.0,0.0,0.0,0.0,0.0,0.0,0.0,0.0,0.0,0.0,0.0,0.0,0.0,0.0,0.0,0.0,0.0,0.0,0.0,0.0,0.0,0.0,0.0,0.0,0.0,0.0,0.0,0.0,0.0,0.0,0.0,0.0,0.0,0.0,0.0,0.0,0.0,0.0,0.0,0.0,0.0,0.0,0.0,0.0,0.0,0.0,0.0,0.0,0.0,0.0,0.0,0.0,0.0,0.0,0.0,0.0,0.0,0.0,0.0,0.0,0.0,0.0,0.0,0.0,0.0,0.0,0.0,0.0,0.0,0.0,0.0,0.0,0.0,0.0,0.0,0.0,0.0,0.0,0.0,0.0,0.0,0.0,0.0,0.0,0.0,0.0,0.0,2.1109,2.1109,2.1109,2.1109,2.1109,2.1362,2.1348,2.1109,0.0,0.0,0.0,0.0,0.0,0.0,0.0,0.0,0.0,0.0,0.0,0.0,0.0,0.0,0.0,0.0,0.0,0.0,0.0,0.0,0.0,0.0,0.0,0.0,0.0,0.0,0.0,0.0,0.0,0.0,0.0,0.0,0.0,0.0,0.0,0.0,0.0,0.0,0.0,0.0,0.0,0.0,0.0,0.0,0.0,0.0,0.0,0.0,0.0,0.0,0.0,0.0,0.0,0.0,0.0,0.0,0.0,0.0,0.0,0.0,0.0,0.0,0.0,0.0,0.0,0.0,0.0,0.0,0.0,0.0,0.0,0.0,0.0,0.0,0.0,0.0,0.0,0.0,0.0,0.0,0.0,0.0,0.0,0.0,0.0,0.0,0.0,0.0,0.0,0.0,0.0,0.0,0.0,0.0,0.0,0.0,0.0,0.0,0.0,0.0,0.0,0.0,0.0,2.1109,2.1109,2.1109,2.1109,2.1109,2.1109,2.275,2.3373,2.2529,2.484,0.0,0.0,0.0,0.0,0.0,0.0,0.0,0.0,0.0,0.0,0.0,0.0,0.0,0.0,0.0,0.0,0.0,0.0,0.0,0.0,0.0,0.0,0.0,0.0,0.0,0.0,0.0,0.0,0.0,0.0,0.0,0.0,0.0,0.0,0.0,0.0,0.0,0.0,0.0,0.0,0.0,0.0,0.0,0.0,0.0,0.0,0.0,0.0,0.0,0.0,0.0,0.0,0.0,0.0,0.0,0.0,0.0,0.0,0.0,0.0,0.0,0.0,0.0,0.0,0.0,0.0,0.0,0.0,0.0,0.0,0.0,0.0,0.0,0.0,0.0,0.0,0.0,0.0,0.0,0.0,0.0,0.0,0.0,0.0,0.0,0.0,0.0,0.0,0.0,0.0,0.0,0.0,0.0,0.0,0.0,0.0,0.0,0.0,0.0,0.0,0.0,0.0,2.1109,2.1109,2.1109,2.1109,2.1109,2.1109,2.373,2.4901,2.3698,2.6608,0.0,0.0,0.0,0.0,0.0,0.0,0.0,0.0,0.0,0.0,0.0,0.0,0.0,0.0,0.0,0.0,0.0,0.0,0.0,0.0,0.0,0.0,0.0,0.0,0.0,0.0,0.0,0.0,0.0,0.0,0.0,0.0,0.0,0.0,0.0,0.0,0.0,0.0,0.0,0.0,0.0,0.0,0.0,0.0,0.0,0.0,0.0,0.0,0.0,0.0,0.0,0.0,0.0,0.0,0.0,0.0,0.0,0.0,0.0,0.0,0.0,0.0,0.0,0.0,0.0,0.0,0.0,0.0,0.0,0.0,0.0,0.0,0.0,0.0,0.0,0.0,0.0,0.0,0.0,0.0,0.0,0.0,0.0,0.0,0.0,0.0,0.0,0.0,0.0,0.0,0.0,0.0,0.0,0.0,0.0,0.0,0.0,0.0,0.0,0.0,0.0,0.0,2.1109,2.1109,2.1109,2.1109,2.1109,2.1109,2.2764,2.3698,2.3636,2.6608,0.0,0.0,0.0,0.0,0.0,0.0,0.0,0.0,0.0,0.0,0.0,0.0,0.0,0.0,0.0,0.0,0.0,0.0,0.0,0.0,0.0,0.0,0.0,0.0,0.0,0.0,0.0,0.0,0.0,0.0,0.0,0.0,0.0,0.0,0.0,0.0,0.0,0.0,0.0,0.0,0.0,0.0,0.0,0.0,0.0,0.0,0.0,0.0,0.0,0.0,0.0,0.0,0.0,0.0,0.0,0.0,0.0,0.0,0.0,0.0,0.0,0.0,0.0,0.0,0.0,0.0,0.0,0.0,0.0,0.0,0.0,0.0,0.0,0.0,0.0,0.0,0.0,0.0,0.0,0.0,0.0,0.0,0.0,0.0,0.0,0.0,0.0,0.0,0.0,0.0,0.0,0.0,0.0,0.0,0.0,0.0,0.0,0.0,0.0,0.0,0.0,0.0,2.1109,2.1109,2.1109,2.1109,2.1538,2.2591,2.4163,2.5513,2.6547,0.0,0.0,0.0,0.0,0.0,0.0,0.0,0.0,0.0,0.0,0.0,0.0,0.0,0.0,0.0,0.0,0.0,0.0,0.0,0.0,0.0,0.0,0.0,0.0,0.0,0.0,0.0,0.0,0.0,0.0,0.0,0.0,0.0,0.0,0.0,0.0,0.0,0.0,0.0,0.0,0.0,0.0,0.0,0.0,0.0,0.0,0.0,0.0,0.0,0.0,0.0,0.0,0.0,0.0,0.0,0.0,0.0,0.0,0.0,0.0,0.0,0.0,0.0,0.0,0.0,0.0,0.0,0.0,0.0,0.0,0.0,0.0,0.0,0.0,0.0,0.0,0.0,0.0,0.0,0.0,0.0,0.0,0.0,0.0,0.0,0.0,0.0,0.0,0.0,0.0,0.0,0.0,0.0,0.0,0.0,0.0,0.0,0.0,0.0,0.0,0.0,0.0,2.1109,2.1109,2.1109,2.1109,2.1109,2.179,2.345,2.5069,2.6712,2.8289,0.0,0.0,0.0,0.0,0.0,0.0,0.0,0.0,0.0,0.0,0.0,0.0,0.0,0.0,0.0,0.0,0.0,0.0,0.0,0.0,0.0,0.0,0.0,0.0,0.0,0.0,0.0,0.0,0.0,0.0,0.0,0.0,0.0,0.0,0.0,0.0,0.0,0.0,0.0,0.0,0.0,0.0,0.0,0.0,0.0,0.0,0.0,0.0,0.0,0.0,0.0,0.0,0.0,0.0,0.0,0.0,0.0,0.0,0.0,0.0,0.0,0.0,0.0,0.0,0.0,0.0,0.0,0.0,0.0,0.0,0.0,0.0,0.0,0.0,0.0,0.0,0.0,0.0,0.0,0.0,0.0,0.0,0.0,0.0,0.0,0.0,0.0,0.0,0.0,0.0,0.0,0.0,0.0,0.0,0.0,0.0,0.0,0.0,0.0,0.0,0.0,0.0,2.1109,2.1109,2.1109,2.1109,2.1109,2.179,2.345,2.5085,2.6712,0.0,0.0,0.0,0.0,0.0,0.0,0.0,0.0,0.0,0.0,0.0,0.0,0.0,0.0,0.0,0.0,0.0,0.0,0.0,0.0,0.0,0.0,0.0,0.0,0.0,0.0,0.0,0.0,0.0,0.0,0.0,0.0,0.0,0.0,0.0,0.0,0.0,0.0,0.0,0.0,0.0,0.0,0.0,0.0,0.0,0.0,0.0,0.0,0.0,0.0,0.0,0.0,0.0,0.0,0.0,0.0,0.0,0.0,0.0,0.0,0.0,0.0,0.0,0.0,0.0,0.0,0.0,0.0,0.0,0.0,0.0,0.0,0.0,0.0,0.0,0.0,0.0,0.0,0.0,0.0,0.0,0.0,0.0,0.0,0.0,0.0,0.0,0.0,0.0,0.0,0.0,0.0,0.0,0.0,0.0,0.0,0.0,0.0,0.0,0.0,0.0,0.0,0.0,2.1109,2.1109,2.1109,2.1109,2.2153,2.3497,2.513,2.6772,2.8426,3.0079,0.0,0.0,0.0,0.0,0.0,0.0,0.0,0.0,0.0,0.0,0.0,0.0,0.0,0.0,0.0,0.0,0.0,0.0,0.0,0.0,0.0,0.0,0.0,0.0,0.0,0.0,0.0,0.0,0.0,0.0,0.0,0.0,0.0,0.0,0.0,0.0,0.0,0.0,0.0,0.0,0.0,0.0,0.0,0.0,0.0,0.0,0.0,0.0,0.0,0.0,0.0,0.0,0.0,0.0,0.0,0.0,0.0,0.0,0.0,0.0,0.0,0.0,0.0,0.0,0.0,0.0,0.0,0.0,0.0,0.0,0.0,0.0,0.0,0.0,0.0,0.0,0.0,0.0,0.0,0.0,0.0,0.0,0.0,0.0,0.0,0.0,0.0,0.0,0.0,0.0,0.0,0.0,0.0,0.0,0.0,0.0,0.0,0.0,0.0,0.0,0.0,0.0,2.1109,2.1109,2.1362,2.2027,2.3014,2.4486,2.6772,2.7871,2.9098,3.0762,0.0,0.0,0.0,0.0,0.0,0.0,0.0,0.0,0.0,0.0,0.0,0.0,0.0,0.0,0.0,0.0,0.0,0.0,0.0,0.0,0.0,0.0,0.0,0.0,0.0,0.0,0.0,0.0,0.0,0.0,0.0,0.0,0.0,0.0,0.0,0.0,0.0,0.0,0.0,0.0,0.0,0.0,0.0,0.0,0.0,0.0,0.0,0.0,0.0,0.0,0.0,0.0,0.0,0.0,0.0,0.0,0.0,0.0,0.0,0.0,0.0,0.0,0.0,0.0,0.0,0.0,0.0,0.0,0.0,0.0,0.0,0.0,0.0,0.0,0.0,0.0,0.0,0.0,0.0,0.0,0.0,0.0,0.0,0.0,0.0,0.0,0.0,0.0,0.0,0.0,0.0,0.0,0.0,0.0,0.0,0.0,0.0,0.0,0.0,0.0,0.0,0.0,2.1109,2.1109,2.1664,2.3201,2.3636,2.5024,2.7931,2.8486,2.9275,3.082,0.0,0.0,0.0,0.0,0.0,0.0,0.0,0.0,0.0,0.0,0.0,0.0,0.0,0.0,0.0,0.0,0.0,0.0,0.0,0.0,0.0,0.0,0.0,0.0,0.0,0.0,0.0,0.0,0.0,0.0,0.0,0.0,0.0,0.0,0.0,0.0,0.0,0.0,0.0,0.0,0.0,0.0,0.0,0.0,0.0,0.0,0.0,0.0,0.0,0.0,0.0,0.0,0.0,0.0,0.0,0.0,0.0,0.0,0.0,0.0,2.2058,0.0,0.0,0.0,0.0,0.0,0.0,0.0,0.0,0.0,0.0,0.0,0.0,0.0,0.0,0.0,0.0,0.0,0.0,0.0,0.0,0.0,0.0,0.0,0.0,0.0,0.0,0.0,0.0,0.0,0.0,0.0,0.0,0.0,0.0,0.0,0.0,0.0,0.0,0.0,0.0,0.0,2.1109,2.1109,2.1235,2.1601,2.3977,2.5741,2.647,2.8861,3.0528,3.0898,3.0898,0.0,0.0,0.0,0.0,0.0,0.0,0.0,0.0,0.0,0.0,0.0,0.0,0.0,0.0,0.0,0.0,0.0,0.0,0.0,0.0,0.0,0.0,0.0,0.0,0.0,0.0,0.0,0.0,0.0,0.0,0.0,0.0,0.0,0.0,0.0,0.0,0.0,0.0,0.0,0.0,0.0,0.0,0.0,0.0,0.0,0.0,0.0,0.0,0.0,0.0,0.0,0.0,0.0,0.0,0.0,0.0,0.0,0.0,0.0,0.0,2.2498,0.0,0.0,0.0,0.0,0.0,0.0,0.0,0.0,0.0,0.0,0.0,0.0,0.0,0.0,0.0,0.0,0.0,0.0,0.0,0.0,0.0,0.0,0.0,0.0,0.0,0.0,0.0,0.0,0.0,0.0,0.0,0.0,0.0,0.0,0.0,0.0,0.0,0.0,0.0,0.0,2.1109,2.179,2.2577,2.3373,2.568,2.7512,2.8307,2.9903,3.0898,3.0898,3.0898,0.0,0.0,0.0,0.0,0.0,0.0,0.0,0.0,0.0,0.0,0.0,0.0,0.0,0.0,0.0,0.0,0.0,0.0,0.0,0.0,0.0,0.0,0.0,0.0,0.0,0.0,0.0,0.0,0.0,0.0,0.0,0.0,0.0,0.0,0.0,0.0,0.0,0.0,0.0,0.0,0.0,0.0,0.0,0.0,0.0,0.0,0.0,0.0,0.0,0.0,0.0,0.0,0.0,2.2739,2.2928,2.2928,2.2928,2.2928,2.2928,2.2928,2.2928,2.2928,2.2928,0.0,0.0,0.0,0.0,0.0,0.0,0.0,0.0,0.0,0.0,0.0,0.0,0.0,0.0,0.0,0.0,0.0,0.0,0.0,0.0,0.0,0.0,2.2432,2.2191,2.2098,2.1991,2.1815,0.0,0.0,0.0,0.0,0.0,0.0,0.0,0.0,0.0,0.0,0.0,2.1109,2.2278,2.3683,2.5008,2.6832,2.8545,2.9903,3.0587,3.0898,3.0898,3.0898,3.0898,0.0,0.0,0.0,0.0,0.0,0.0,0.0,0.0,0.0,0.0,0.0,0.0,0.0,0.0,0.0,0.0,0.0,0.0,0.0,0.0,0.0,0.0,0.0,0.0,0.0,0.0,0.0,0.0,0.0,0.0,0.0,0.0,2.2807,2.2807,0.0,0.0,0.0,0.0,0.0,0.0,0.0,0.0,0.0,0.0,0.0,0.0,0.0,2.2806,2.2806,2.2806,2.2806,2.2806,2.2914,2.2928,2.2928,2.2928,2.2928,2.2928,2.2928,0.0,2.2928,2.2928,0.0,0.0,0.0,0.0,0.0,0.0,0.0,0.0,0.0,0.0,0.0,0.0,0.0,0.0,0.0,0.0,0.0,0.0,0.0,0.0,0.0,0.0,2.2792,2.2752,2.2552,2.2352,2.2311,2.1871,2.1561,2.1561,2.1283,0.0,0.0,0.0,0.0,0.0,0.0,0.0,2.1109,2.1299,2.1538,2.1727,2.4455,2.6409,2.6651,2.9294,3.0898,3.0898,3.0898,3.0898,3.0898,3.0898,0.0,0.0,0.0,0.0,0.0,0.0,0.0,0.0,0.0,0.0,0.0,0.0,0.0,0.0,0.0,0.0,0.0,0.0,0.0,0.0,0.0,0.0,0.0,0.0,0.0,0.0,0.0,0.0,0.0,2.2928,2.2928,2.2928,2.2928,2.2928,0.0,0.0,0.0,0.0,0.0,0.0,0.0,0.0,0.0,2.2928,2.2928,2.2928,2.2928,2.2928,2.2928,2.2928,2.2928,2.2928,2.2928,2.2928,2.2928,2.2928,2.2928,2.2928,2.2928,2.2928,2.2928,2.2928,0.0,0.0,0.0,0.0,2.2928,2.2928,2.2928,2.2928,2.2928,2.2928,0.0,0.0,0.0,0.0,0.0,0.0,0.0,2.2928,2.2928,2.2928,2.2928,2.2928,2.2766,2.2672,2.2672,2.2338,2.1991,0.0,2.1563,2.1363,2.1363,0.0,0.0,0.0,0.0,2.1109,2.1109,2.2688,2.3854,2.3854,2.6772,2.8742,2.8742,3.0079,3.0898,3.0898,3.0898,3.0898,3.0898,3.0898,3.0898,0.0,0.0,0.0,0.0,0.0,0.0,0.0,0.0,0.0,0.0,0.0,0.0,0.0,0.0,0.0,0.0,0.0,0.0,0.0,0.0,0.0,0.0,0.0,0.0,0.0,0.0,0.0,0.0,2.2928,2.2928,2.2928,2.2928,2.2928,0.0,0.0,0.0,0.0,0.0,0.0,2.2928,2.2928,2.2928,2.2928,2.2928,2.2928,2.2928,2.2928,2.2928,2.2928,2.2928,2.2928,2.2928,2.2928,2.2928,2.2928,2.2928,2.2928,2.2928,2.2928,2.2928,2.2928,2.2928,2.2928,2.2928,2.2928,2.2928,2.2928,2.2928,2.2928,2.2928,2.2928,2.2928,2.2928,2.2928,0.0,0.0,0.0,0.0,2.2928,2.2928,2.2928,2.2928,2.2928,2.2928,2.2928,2.2928,2.2686,2.2445,0.0,2.1857,2.1735,2.1735,0.0,0.0,0.0,2.1269,2.1243,2.1323,2.3484,2.5154,2.5587,2.8172,3.0106,3.0522,3.0858,3.1055,3.1055,3.0957,3.0898,3.0898,3.0898,3.0898,3.0898,0.0,0.0,0.0,0.0,0.0,0.0,0.0,0.0,0.0,0.0,0.0,0.0,0.0,0.0,0.0,0.0,0.0,0.0,0.0,0.0,0.0,0.0,0.0,0.0,0.0,0.0,0.0,0.0,0.0,2.2928,2.2928,0.0,0.0,0.0,0.0,2.2928,2.2928,2.2928,2.2928,2.2928,2.2928,2.2928,2.2928,2.2928,2.2928,2.2928,2.2928,2.2928,2.2928,2.2928,2.2928,2.2928,2.2928,2.2928,2.2928,2.2928,2.2928,2.2928,2.2928,2.2928,2.2928,2.2928,2.2928,2.2928,2.2928,2.2928,2.2928,2.2928,2.2928,2.2928,2.2928,2.2928,2.2928,2.2928,0.0,0.0,2.2928,2.2928,2.2928,2.2928,2.2928,2.2928,2.2928,2.2928,2.2928,2.2914,2.2752,0.0,2.2164,2.1964,2.1964,0.0,2.1695,2.1897,2.171,2.1695,2.1911,2.2069,2.2827,2.4486,2.6263,2.7969,2.9607,3.0838,3.1484,3.1484,3.1113,3.0898,3.0898,3.0898,3.0898,3.0898,3.0898,0.0,0.0,0.0,0.0,0.0,0.0,0.0,0.0,0.0,0.0,0.0,0.0,0.0,0.0,0.0,0.0,0.0,0.0,0.0,0.0,0.0,0.0,0.0,0.0,0.0,0.0,0.0,0.0,2.2928,2.2928,0.0,2.2928,2.2928,2.2928,2.2928,2.2928,2.2928,2.2928,2.2928,2.2928,2.2928,2.2928,2.2928,2.2928,2.2928,2.2928,2.2928,2.2928,2.2928,2.2928,2.2928,2.2928,2.2928,2.2928,2.2928,2.2928,2.2928,2.2928,2.2928,2.2928,2.2928,2.2928,2.2928,2.2928,2.2928,2.2928,2.2928,2.2928,2.2928,2.2928,2.2928,2.2928,2.2928,2.2928,2.2928,2.2928,2.2928,2.2928,2.2928,2.2928,2.2928,2.2928,2.2928,2.2928,2.2928,2.2832,2.2726,2.2458,2.2258,2.2258,2.2031,2.1871,2.1977,2.1897,2.1871,2.1977,2.3898,2.5496,2.6136,2.8727,3.0642,3.1275,3.1709,3.1934,3.1934,3.1543,3.1289,3.1289,3.1035,3.0898,3.0898,3.0898,3.0898,0.0,0.0,0.0,0.0,0.0,0.0,0.0,0.0,0.0,0.0,0.0,0.0,0.0,0.0,0.0,0.0,0.0,0.0,0.0,0.0,0.0,0.0,0.0,0.0,0.0,0.0,2.2928,2.2928,2.2928,2.2928,2.2928,2.2928,2.2928,2.2928,2.2928,2.2928,2.2928,2.2928,2.2928,2.2928,2.2928,2.2928,2.2928,2.2928,2.2928,2.2928,2.2966,2.302,2.302,2.3126,2.3166,2.3166,2.3166,2.3166,2.3166,2.3166,2.3166,2.3153,2.3008,2.2928,2.2928,2.2928,2.2928,2.2928,2.2928,2.2928,2.2928,2.2928,2.2928,2.2928,2.2928,2.2928,2.2928,2.2928,2.2928,2.2928,2.2928,2.2928,2.2928,2.2928,2.2928,2.2928,2.2928,2.2928,2.2928,2.2928,2.2699,2.2565,2.2565,2.2325,2.2164,2.2271,2.2709,2.3078,2.3175,2.5708,2.771,2.8286,3.039,3.1941,3.2536,3.2461,3.2383,3.2383,3.1973,3.1738,3.1738,3.1328,3.1094,3.1094,3.0957,3.0898,3.0898,0.0,0.0,0.0,0.0,0.0,0.0,0.0,0.0,0.0,0.0,0.0,0.0,0.0,0.0,0.0,0.0,0.0,0.0,0.0,0.0,0.0,0.0,0.0,2.2928,2.2928,2.2928,2.2928,2.2928,2.2928,2.2928,2.2928,2.2928,2.2928,2.2928,2.2928,2.2928,2.2928,2.2928,2.2928,2.2928,2.2928,2.2873,2.2873,2.2954,2.2968,2.3193,2.334,2.3354,2.3634,2.3768,2.3768,2.3768,2.3768,2.3768,2.3768,2.3768,2.3714,2.3196,2.2954,2.2954,2.2954,2.2954,2.2954,2.2954,2.2954,2.2954,2.2954,2.2954,2.2954,2.2954,2.2954,2.2954,2.2954,2.2954,2.2954,2.2954,2.2954,2.2954,2.2954,2.2954,2.2954,2.2954,2.2954,2.2954,2.2954,2.2954,2.2954,2.2928,2.2619,2.2525,2.2819,2.4128,0.0,2.5472,2.7105,2.8952,3.0642,3.0836,3.1561,3.3292,3.3047,3.2812,3.2812,3.2422,3.2248,3.2248,3.1777,3.1523,3.1523,3.1113,3.0898,3.0898,0.0,0.0,0.0,0.0,0.0,0.0,0.0,0.0,0.0,0.0,0.0,0.0,0.0,0.0,0.0,0.0,0.0,0.0,0.0,0.0,0.0,0.0,2.2928,2.2928,2.2928,2.2928,2.2928,2.2928,2.2928,2.2928,2.2928,2.2928,2.2928,2.2928,2.2928,2.2928,2.2928,2.2928,2.2928,2.2928,2.2966,2.3193,2.3193,2.3313,2.3527,2.3607,2.3647,2.3647,2.3728,2.3768,2.3768,2.3768,2.3768,2.3768,2.3768,2.3768,2.3754,2.3581,2.3514,2.3514,2.3514,2.3514,2.3514,2.3514,2.3514,2.3514,2.3514,2.3514,2.3514,2.3514,2.3514,2.3514,2.3514,2.3514,2.3514,2.3514,2.3514,2.3514,2.3514,2.3514,2.3514,2.3514,2.3514,2.3514,2.3514,2.3514,2.338,2.3008,2.2792,2.2766,2.2914,2.4313,0.0,2.5502,2.8147,3.0254,3.0771,3.1899,3.2892,3.3355,3.332,3.3242,3.3242,3.2851,3.2617,3.2617,3.2207,3.1836,3.1523,3.1406,3.1191,0.0,0.0,0.0,0.0,0.0,0.0,0.0,0.0,0.0,0.0,0.0,0.0,0.0,0.0,0.0,0.0,0.0,0.0,0.0,0.0,0.0,0.0,2.2928,2.2928,2.2928,2.2928,2.2928,2.2928,2.2928,2.2928,2.2928,2.2928,2.2928,2.2928,2.2928,2.2928,2.2928,2.2928,2.2926,2.3046,2.306,2.3207,2.3514,2.3514,2.3607,2.3768,2.3888,2.3955,2.3955,2.4075,2.4142,2.4142,2.4142,2.4142,2.4142,2.4142,2.4142,0.0,0.0,0.0,0.0,0.0,2.3768,2.3768,2.3768,2.3768,2.3768,2.3768,2.3768,2.3768,2.3768,2.3768,2.3768,2.3768,2.3768,2.3768,2.3768,2.3768,2.3768,2.3768,2.3768,2.3768,2.3768,2.3768,2.3768,2.3768,2.3768,0.0,2.4372,2.3776,2.3316,2.3316,2.4784,2.5852,2.5852,2.901,3.1276,3.1276,3.2895,3.3887,3.3711,3.3691,0.0,0.0,0.0,3.2988,3.2793,3.2559,0.0,0.0,0.0,3.1582,3.1152,3.1152,0.0,0.0,3.0898,3.0898,0.0,0.0,0.0,0.0,0.0,0.0,0.0,0.0,0.0,0.0,0.0,0.0,0.0,0.0,0.0,0.0,2.2928,2.2928,2.2928,2.2928,2.2928,2.2928,2.2928,2.2928,2.2928,2.2928,2.2928,2.2928,2.2928,2.2873,2.2913,0.0,0.0,0.0,0.0,2.3514,2.3821,2.3821,2.3834,2.3875,2.4128,2.4249,2.4262,2.4516,2.4649,2.469,2.469,2.4703,2.473,2.473,2.473,2.4676,2.4102,2.3875,2.3875,2.3875,2.3875,2.3875,2.3875,0.0,0.0,2.3875,2.3875,2.3875,2.3875,2.3875,2.3875,2.3875,2.3875,2.3875,2.3875,2.3875,2.3875,2.3875,2.3875,2.3875,2.3875,2.3875,2.3875,2.3875,2.3875,2.4419,2.6117,2.5116,2.4181,2.4394,2.5889,2.7046,2.7046,3.0055,3.2199,3.2199,3.3681,0.0,3.418,3.4141,3.3965,3.3516,3.3457,3.3262,3.2871,3.2871,3.2676,3.2307,3.2307,3.2031,3.1582,3.1582,3.1406,3.1035,3.0937,3.0898,0.0,0.0,0.0,0.0,0.0,0.0,0.0,0.0,0.0,0.0,0.0,0.0,0.0,0.0,0.0,2.2928,2.2928,2.2928,2.2928,2.2928,2.2928,2.2928,2.2928,2.2928,2.2928,2.2928,2.2928,2.2928,2.2928,2.2966,2.322,2.3233,2.338,2.3674,2.3688,2.3821,2.4115,2.4115,2.4235,2.4476,0.0,0.0,2.4556,2.4609,2.477,2.4997,2.4997,2.513,2.5344,2.5344,2.5344,2.5291,2.4703,2.4476,2.4476,2.4476,2.4476,2.4476,2.4476,2.4476,2.4476,2.4476,2.4476,2.4476,2.4476,2.4476,0.0,2.4476,2.4476,2.4476,2.4476,2.4476,2.4476,2.4476,2.4476,2.4476,2.4476,2.4476,2.4476,2.4476,2.4476,2.4536,2.4888,2.5598,2.6559,2.8069,2.9851,3.102,3.102,3.2866,3.4162,3.4162,3.4491,3.4668,3.459,3.457,3.4394,3.3965,3.3613,3.3379,3.3301,3.3301,3.3105,3.2676,3.2676,3.2461,3.2051,3.2051,3.1992,3.1914,3.1211,3.0898,0.0,0.0,0.0,0.0,0.0,0.0,0.0,0.0,0.0,0.0,0.0,2.2928,2.2928,0.0,2.2928,2.2928,2.2928,2.2928,2.2928,2.2928,2.2928,2.2928,2.2928,2.2928,2.2928,2.2928,2.2926,2.3086,2.31,2.3233,2.3527,2.3554,2.3688,2.3981,2.3981,2.4128,2.4422,2.4422,2.4489,2.4636,2.4783,2.4863,2.4863,2.501,2.5157,2.5291,2.5291,2.5384,2.5518,2.5518,2.5518,2.5478,2.5184,2.5077,2.5077,2.5077,2.5077,2.5077,2.5077,2.4983,2.4863,2.4863,2.4756,2.4636,2.4636,2.4636,2.4636,2.4636,2.4636,2.4636,2.4636,2.4636,2.4636,2.4636,2.4636,2.4636,2.4636,2.4636,2.4636,2.4636,2.4636,2.4918,2.5859,2.6589,2.7068,2.6982,2.8608,2.9798,2.9798,3.2215,3.3951,3.3951,3.4797,3.5273,3.5059,3.4824,3.4609,3.4394,3.3984,3.375,3.375,3.3535,3.332,3.3105,3.3105,3.291,3.248,3.248,3.2383,3.2209,3.1719,3.1406,0.0,0.0,0.0,0.0,0.0,0.0,0.0,2.2928,2.2928,2.2928,2.2928,2.2928,2.2928,2.2928,2.2928,2.2928,2.2928,2.2928,2.2928,2.2928,2.2928,2.2928,2.2928,2.2928,2.2928,2.2913,2.306,2.3313,2.338,2.3541,2.3834,2.3848,2.3981,2.4275,2.4289,2.4396,2.4636,2.469,2.4716,2.473,2.5024,2.5157,2.517,2.5411,2.5545,2.5598,2.5665,2.5678,2.5678,2.5678,2.5678,2.5678,2.5678,2.5678,2.5665,2.5558,2.5518,2.5518,2.5518,2.5358,2.5157,2.5157,2.4997,2.481,2.481,2.481,2.481,2.481,2.481,2.481,2.481,2.481,2.481,2.481,2.481,2.481,2.481,2.481,2.481,2.481,2.481,2.5242,2.6822,2.7071,2.6706,2.5859,2.707,2.8213,2.8573,3.1333,3.3309,3.3743,3.5089,3.5879,3.5547,3.5098,3.4824,3.4824,3.4434,3.4199,3.4199,3.3789,3.3555,3.3555,3.3457,3.3262,3.291,3.291,3.2734,3.2422,3.2422,3.2148,2.2928,2.2928,2.2928,2.2928,2.2928,2.2928,0.0,2.2928,2.2928,2.2928,2.2928,2.2928,2.2928,2.2928,2.2928,2.2928,2.2928,2.2928,2.2928,2.2928,2.2928,2.2928,2.2928,2.2928,2.2928,2.3113,2.3287,2.3327,2.3567,2.3848,2.4142,2.4155,2.4289,2.4583,2.4596,2.4609,2.4636,2.4903,2.5037,2.5037,2.5331,2.5464,2.5464,2.5504,2.5651,2.5919,2.6186,2.6293,2.6293,2.6293,2.6293,2.6293,2.6293,2.6293,2.6226,2.5705,2.5518,2.5518,2.5518,2.5491,2.5464,2.5464,2.5438,2.5411,2.5411,2.5411,2.5411,2.5411,2.5411,2.5411,2.5411,2.5411,2.5411,2.5411,2.5411,2.5411,2.5411,2.5411,2.5411,2.5411,2.5411,2.5487,2.5715,2.5499,2.6316,2.9218,2.9812,3.061,3.2316,3.2961,3.3812,3.5519,3.5879,3.5996,3.5957,3.5566,3.5312,3.5312,3.4883,3.4629,3.4629,3.4219,3.4004,3.4004,3.3613,3.3398,3.3359,3.3359,3.332,3.3281,3.3281,3.2851,2.2928,2.2928,2.2928,2.2928,2.2928,2.2928,2.2928,2.2928,2.2928,2.2928,2.2928,2.2928,2.2928,2.2928,2.2928,2.2928,2.2928,2.2928,2.2928,2.2928,2.2926,2.3113,2.314,2.314,2.314,2.3247,2.3474,2.3808,2.3955,2.4155,2.4436,2.4449,2.4516,2.4636,2.4796,2.489,2.489,2.5184,2.5331,2.5331,2.5625,2.5772,2.5772,2.5945,2.6092,2.6213,2.6333,2.6386,2.6386,2.6386,2.6386,2.6386,2.6386,2.6386,2.636,2.6106,2.6026,2.6026,2.6026,2.5919,2.5772,2.5772,2.5651,2.5518,2.5518,2.5518,2.5518,2.5518,2.5518,2.5518,2.5518,2.5518,2.5518,2.5518,2.5518,2.5518,2.5518,2.5518,2.5518,2.5518,2.5518,2.5518,2.5518,2.5411,2.5807,2.7273,2.8167,2.9329,3.1245,3.2525,3.3951,3.5811,3.6016,3.6016,3.6016,3.5859,3.5762,3.5762,3.5351,3.5098,3.5098,3.4668,3.4434,3.4434,3.4023,3.3809,3.3809,3.3535,3.3418,3.3418,3.3418,3.3242,2.2928,2.2928,2.2928,2.2928,2.2928,2.2928,2.2928,2.2928,2.2928,2.2928,2.2928,2.2928,2.2928,2.2928,2.2928,2.2928,2.2928,2.2928,2.2928,2.2939,2.3073,2.33,2.3407,2.3487,2.3567,2.3567,2.3741,2.4168,2.4275,2.4422,2.4623,2.4716,2.4756,2.4756,2.505,2.5197,2.5197,2.5491,2.5638,2.5638,2.5932,2.6079,2.6079,2.6293,2.6386,2.6386,2.6386,2.6386,2.6386,2.6386,2.6386,2.6386,2.6386,2.6386,2.6386,2.6386,2.6386,2.6386,2.6386,2.6253,2.6079,2.6079,2.5932,2.5758,2.5758,2.5758,2.5758,2.5758,2.5758,2.5758,2.5758,2.5758,2.5758,2.5758,2.5758,2.5758,2.5758,2.5758,2.5758,2.5758,2.5758,2.5758,2.5758,2.5692,2.5855,2.6377,2.6748,2.7613,2.9545,3.1821,3.3992,3.5811,3.6016,3.6016,3.6016,3.6016,3.6016,3.6016,3.5742,3.5566,3.5566,3.5137,3.4883,3.4883,3.4473,3.4238,3.4238,3.3926,3.3769,3.3769,3.3652,3.3594,2.2928,2.2928,2.2928,2.2928,2.2928,2.2928,2.2928,2.2928,2.2928,2.2928,2.2928,2.2928,2.2928,2.2928,2.2928,2.2928,2.2928,2.2928,2.2928,2.3126,2.3313,2.3327,2.3581,2.3875,0.0,2.4182,2.4182,2.4209,2.4462,2.4623,2.4636,2.4917,2.5064,2.5064,2.5344,2.5504,2.5504,2.5798,2.5945,2.6023,2.6239,2.6373,2.6373,2.6386,2.6386,2.6386,2.6386,2.6386,2.6386,2.6386,2.6386,2.6386,2.6386,2.6386,2.6386,2.6386,2.6386,2.6386,2.6386,2.6386,2.6373,2.6373,2.6373,2.636,2.636,2.636,2.636,2.636,2.636,2.636,2.636,2.636,2.636,2.636,2.636,2.636,2.636,2.636,2.636,2.636,2.636,2.636,2.636,2.6132,2.6617,2.8574,2.7016,2.6226,2.8237,3.1432,3.4235,3.585,3.6016,3.6016,3.6016,3.6016,3.6016,3.6016,3.6016,3.5996,3.5996,3.5605,3.5371,3.5371,3.4922,3.4687,3.4687,3.4668,3.4668,3.4648,3.4238,3.4062,2.2928,2.2928,2.2928,2.2928,2.2928,2.2928,2.2928,2.2928,2.2928,2.2928,2.2928,2.2928,2.2928,2.2928,2.2928,2.2928,2.2928,2.2939,2.314,2.326,2.3474,2.3861,2.3995,0.0,0.0,0.0,0.0,2.4476,2.4583,2.4716,2.4917,2.5024,2.517,2.5358,2.5651,2.5812,2.5812,2.6092,2.6239,2.6239,2.6346,2.6386,2.6386,2.6386,2.6386,2.6386,2.6386,2.6386,2.6386,2.6386,2.6386,2.6386,2.6386,2.6386,2.6386,2.6386,2.6386,2.6386,2.6386,2.6386,2.6386,2.6386,2.6386,2.6386,2.6386,2.6386,2.6386,2.6386,2.6386,2.6386,2.6386,2.6386,2.6386,2.6386,2.6386,2.6386,2.6386,2.6386,2.6386,2.6386,2.6386,2.6847,2.8154,2.7222,2.6932,2.8975,3.0526,3.0753,2.8627,3.2847,3.5779,3.4975,3.5819,3.6445,3.6445,3.6191,3.6016,3.6016,3.6016,3.6016,3.6016,3.5879,3.5801,3.5801,3.5371,3.5156,3.5156,3.4844,3.4707,3.4687,3.4551,3.4492,2.2928,2.2928,2.2928,2.2928,2.2928,2.2928,2.2928,2.2928,2.2928,2.2928,2.2928,2.2928,2.2928,2.2928,2.2928,2.2928,2.2928,2.2966,2.3287,2.342,2.3661,2.4142,2.4289,2.4436,0.0,0.0,0.0,2.4623,2.473,2.4877,2.5064,2.5277,2.5478,2.5665,2.5959,2.6106,2.6106,2.6293,2.6386,2.6386,2.6386,2.6386,2.6386,2.6386,2.6386,2.6386,2.6386,2.6386,2.6386,2.6386,2.6386,2.6386,2.6386,2.6386,2.6386,2.6386,2.6386,2.6386,2.6386,2.6386,2.6386,2.6386,2.6386,2.6386,2.6386,2.6386,2.6386,2.6386,2.6386,2.6386,2.6386,2.6386,2.6386,2.6386,2.6386,2.6386,2.6386,2.6386,2.6386,2.6386,2.6386,2.6768,2.8154,2.8452,2.8764,2.9293,3.314,3.4721,3.1169,3.4033,3.6195,3.5473,3.6329,3.6894,3.6894,3.6504,3.625,3.625,3.6113,3.6016,3.6016,3.6016,3.6016,3.6016,3.5762,3.5605,3.5605,3.5312,3.5176,3.5176,3.5019,3.4941,2.2928,2.2928,2.2928,2.2928,2.2928,2.2928,2.2928,2.2928,2.2928,2.2928,2.2928,2.2928,2.2928,2.2928,2.2928,2.2928,2.2873,2.2993,2.33,2.3607,2.3901,2.4195,2.4476,0.0,0.0,0.0,0.0,2.4663,0.0,2.509,2.5117,2.5651,2.6037,2.605,2.6239,2.6386,2.6386,2.6386,2.6386,2.6386,2.6386,2.6386,2.6386,2.6386,2.6386,2.6386,2.6386,2.6386,2.6386,2.6386,2.6386,2.6386,2.6386,2.6386,2.6386,2.6386,2.6386,2.6386,2.6386,2.6386,2.6386,2.6386,2.6386,2.6386,2.6386,2.6386,2.6386,2.6386,2.6386,2.6386,2.6386,2.6386,2.6386,2.6386,2.6386,2.6386,2.6386,2.6386,2.6386,2.6386,2.6465,2.6544,2.6386,2.9913,3.1956,2.9898,3.4694,3.7651,3.5083,3.4956,3.563,3.7029,3.7273,3.7324,3.7324,3.6953,3.6699,3.668,3.6289,3.6035,3.6016,3.6016,3.6016,3.6016,3.6016,3.6016,3.6016,3.6016,3.6016,3.6016,3.5605,3.543,2.2928,2.2928,2.2928,2.2928,2.2928,2.2928,2.2928,2.2928,2.2928,2.2928,2.2928,2.2928,2.2928,2.2928,2.2928,2.2928,2.306,2.3313,2.3621,2.3915,2.4195,2.4489,2.4596,2.4636,2.4636,2.4836,0.0,0.0,2.5037,2.5264,2.5782,2.5956,2.6052,2.6279,2.6346,2.6386,2.6386,2.6386,2.6386,2.6386,2.6386,2.6386,2.6386,2.6386,2.6386,2.6386,2.6386,2.6386,2.6386,2.6386,2.6386,2.6386,2.6386,2.6386,2.6386,2.6386,2.6386,2.6386,2.6386,2.6386,2.6386,2.6386,2.6386,2.6386,2.6386,2.6386,2.6386,2.6386,2.6386,2.6386,2.6386,2.6386,2.6386,2.6386,2.6386,2.6386,2.6386,2.6386,2.6386,2.6386,2.7619,2.8154,2.6702,3.1038,3.4076,3.2032,3.5607,3.7234,3.358,3.5759,3.7229,3.6054,3.7047,3.7773,3.7773,3.7383,3.7012,3.668,3.6562,3.6348,3.6035,3.6016,3.6016,3.6016,3.6016,3.6016,3.6016,3.6016,3.6016,3.6016,3.5918,3.5859,2.2928,2.2928,2.2928,2.2928,2.2928,2.2928,2.2928,2.2928,2.2928,2.2928,2.2928,2.2928,2.2928,2.2928,2.2928,2.2928,2.3126,2.3434,2.3728,2.4022,2.4315,2.4596,2.4636,2.469,2.4823,2.4983,2.5184,0.0,2.5464,2.5611,2.601,2.6079,2.6226,2.6386,2.6386,2.6386,2.6386,2.6386,2.6386,2.6386,2.6386,2.6386,2.6386,2.6386,2.6386,2.6386,2.6386,2.6386,2.6386,2.6386,2.6386,2.6386,2.6386,2.6386,2.6386,2.6386,2.6386,2.6386,2.6386,2.6386,2.6386,2.6386,2.6386,2.6386,2.6386,2.6386,2.6386,2.6386,2.6386,2.6386,2.6386,2.6386,2.6386,2.6386,2.6386,2.6386,2.6386,2.6386,2.6386,2.6386,2.7305,2.7684,2.6623,3.0731,3.3775,3.2657,3.5997,3.7731,3.5458,3.7198,3.819,3.6959,3.7667,3.8203,3.8203,3.7812,3.748,3.7226,3.7051,3.6758,3.6328,3.6309,3.6211,3.6016,3.6016,3.6016,3.6016,3.6016,3.6016,3.6016,3.6016,3.6016,2.2928,2.2928,2.2928,2.2928,2.2928,2.2928,2.2928,2.2928,2.2928,2.2928,2.2928,2.2928,2.2928,2.2928,2.2928,2.2928,2.3153,2.3474,2.3728,2.4048,2.4356,2.4609,2.4676,2.4796,2.505,2.5144,2.5411,2.5996,2.5999,2.6012,2.6012,2.6253,2.6386,2.6386,2.6386,2.6386,2.6386,2.6386,2.6386,2.6386,2.6386,2.6386,2.6386,2.6386,2.6386,2.6386,2.6386,2.6386,2.6386,2.6386,2.6386,2.6386,2.6386,2.6386,2.6386,2.6386,2.6386,2.6386,2.6386,2.6386,2.6386,2.6386,2.6386,2.6386,2.6386,2.6386,2.6386,2.6386,2.6386,2.6386,2.6386,2.6386,2.6386,2.6386,2.6386,2.6386,2.6386,2.6386,2.6386,2.6386,2.6386,2.6386,2.6386,2.9526,3.2201,3.2429,3.5756,3.8263,3.8574,3.8574,3.8574,3.8574,3.8574,3.8574,3.8574,3.8223,3.7988,3.793,3.7578,3.7187,3.6777,3.6758,3.6543,3.6113,3.6113,3.6074,3.6016,3.6016,3.6016,3.6016,3.6016,3.6016,2.2928,2.2928,2.2928,2.2928,2.2928,2.2928,2.2928,2.2928,2.2928,2.2928,2.2928,2.2928,2.2928,2.2928,2.2928,2.2928,2.3327,2.3714,2.3768,2.4222,2.4583,2.4549,2.485,2.5024,2.5077,2.5518,0.0,0.0,2.6186,2.6319,2.6319,2.636,2.6386,2.6386,2.6386,2.6386,2.6386,2.6386,2.6386,2.6386,2.6386,2.6386,2.6386,2.6386,2.6386,2.6386,2.6386,0.0,2.6386,2.6386,2.6386,2.6386,2.6386,2.6386,2.6386,2.6386,2.6386,2.6386,2.6386,2.6386,2.6386,2.6386,2.6386,2.6386,2.6386,2.6386,2.6386,2.6386,2.6386,2.6386,2.6386,2.6386,2.6386,2.6386,2.6386,2.6386,2.6386,2.6386,2.6386,2.6386,2.6386,2.6386,2.6386,2.8374,3.0515,3.2277,3.4526,3.6645,3.8336,3.8574,3.8574,3.8574,3.8574,3.8574,3.8574,3.8496,3.8301,3.7949,3.7851,3.7637,3.7207,3.7187,3.6992,3.6562,3.6562,3.6387,3.6016,3.6016,3.6016,3.6016,3.6016,3.6016,2.2928,2.2928,2.2928,2.2928,2.2928,2.2928,2.2928,2.2928,2.2928,2.2928,2.2928,2.2928,2.2928,2.2928,2.2928,2.2928,2.338,2.3768,2.3768,2.4275,2.4636,2.4636,2.4903,2.5144,2.5291,2.5705,2.609,2.6172,2.6306,2.6386,2.6386,2.6386,2.6386,2.6386,2.6386,2.6386,2.6386,2.6386,2.6386,2.6386,2.6386,2.6386,2.6386,2.6386,2.6386,2.6386,2.6386,2.6386,2.6386,2.6386,2.6386,2.6386,2.6386,2.6386,2.6386,2.6386,2.6386,2.6386,2.6386,2.6386,2.6386,2.6386,2.6386,2.6386,2.6386,2.6386,2.6386,2.6386,2.6386,2.6386,2.6386,2.6386,2.6386,2.6386,2.6386,2.6386,2.6386,2.6386,2.6386,2.6386,2.6386,2.6386,2.6386,2.8076,3.013,3.2201,3.4226,3.6275,3.8336,3.8574,3.8574,3.8574,3.8574,3.8574,3.8574,3.8574,3.8476,3.8281,3.8262,3.8066,3.7637,3.7617,3.7422,3.7012,3.6992,3.6797,3.6348,3.6348,3.625,3.6016,3.6016,3.6016,2.2928,2.2928,2.2928,2.2928,2.2928,2.2928,2.2928,2.2928,2.2928,2.2928,2.2928,2.2928,2.2928,2.2928,2.2928,2.2928,2.338,2.3768,2.3768,2.4275,2.4636,2.4636,2.4957,0.0,2.5491,2.5838,0.0,2.6373,2.6386,2.6386,2.6386,2.6386,2.6386,2.6386,2.6386,2.6386,2.6386,2.6386,2.6386,2.6386,2.6386,2.6386,2.6386,2.6386,2.6386,2.6386,2.6386,2.6386,2.6386,2.6386,2.6386,2.6386,2.6386,2.6386,2.6386,2.6386,2.6386,2.6386,2.6386,2.6386,2.6386,2.6386,2.6386,2.6386,2.6386,2.6386,2.6386,2.6386,2.6386,2.6386,2.6386,2.6386,2.6386,2.6386,2.6386,2.6386,2.6386,2.6386,2.6386,2.6386,2.6386,2.6386,2.6386,2.7684,2.9604,3.2125,3.385,3.5738,3.8263,3.8574,3.8574,3.8574,3.8574,3.8574,3.8574,3.8574,3.8574,3.8574,3.8574,3.8418,3.8086,3.8066,3.7871,3.7441,3.7441,3.7226,3.6816,3.6816,3.6582,3.6152,3.6152,3.6113,2.2928,2.2928,2.2928,2.2928,2.2928,2.2928,2.2928,2.2928,2.2928,2.2928,2.2928,2.2928,2.2928,2.2928,2.2928,2.2928,2.338,2.3768,2.3768,2.4275,2.4636,2.4636,0.0,0.0,2.5504,2.6026,2.636,2.6386,2.6386,2.6386,2.6386,2.6386,2.6386,2.6386,2.6386,2.6386,2.6386,2.6386,2.6386,2.6386,2.6386,2.6386,2.6386,2.6386,2.6386,2.6386,2.6386,2.6386,0.0,2.6386,2.6386,2.6386,2.6386,2.6386,2.6386,2.6386,2.6386,2.6386,2.6386,2.6386,2.6386,2.6386,2.6386,2.6386,2.6386,2.6386,2.6386,2.6386,2.6386,2.6386,2.6386,2.6386,2.6386,2.6386,2.6386,2.6386,2.6386,2.6386,2.6386,2.6386,2.6386,2.6386,2.6386,2.6544,2.7997,3.1896,3.2657,3.4169,3.8117,3.8574,3.8574,3.8574,3.8574,3.8574,3.8574,3.8574,3.8574,3.8574,3.8574,3.8555,3.8516,3.8516,3.8301,3.7871,3.7871,3.7656,3.7246,3.7246,3.7031,3.6621,3.6621,3.6406,2.2928,2.2928,2.2928,2.2928,2.2928,2.2928,2.2928,2.2928,2.2928,2.2928,2.2928,2.2928,2.2928,2.2928,2.2928,2.2928,2.338,2.3768,2.3768,2.4275,2.4703,2.4877,2.5264,2.5585,0.0,0.0,2.6386,2.6386,2.6386,2.6386,2.6386,2.6386,2.6386,2.6386,2.6386,2.6386,2.6386,2.6386,2.6386,2.6386,2.6386,2.6386,2.6386,2.6386,2.6386,2.6386,2.6386,2.6386,0.0,2.6386,2.6386,2.6386,2.6386,2.6386,2.6386,2.6386,2.6386,2.6386,2.6386,2.6386,2.6386,2.6386,2.6386,2.6386,2.6386,2.6386,2.6386,2.6386,2.6386,2.6386,2.6386,2.6386,2.6386,2.6386,2.6386,2.6386,2.6386,2.6386,2.6768,2.7997,2.7227,2.6768,2.7997,2.7227,2.7762,3.1896,3.2505,3.3943,3.8044,3.8574,3.8574,3.8574,3.8574,3.8574,3.8574,3.8574,3.8574,3.8574,3.8574,3.8574,3.8574,3.8574,3.8496,3.832,3.832,3.8105,3.7676,3.7676,3.7461,3.7051,3.7051,3.6953,2.2928,2.2928,2.2928,2.2928,2.2928,2.2928,2.2928,2.2928,2.2928,2.2928,2.2928,2.2928,2.2928,2.2928,2.2928,2.2928,2.338,2.3768,2.3768,2.4275,2.4743,2.5037,0.0,2.5625,2.601,2.6226,2.6386,2.6386,2.6386,2.6386,2.6386,2.6386,2.6386,2.6386,2.6386,2.6386,2.6386,2.6386,2.6386,2.6386,2.6386,2.6386,2.6386,2.6386,2.6386,2.6386,2.6386,2.6386,0.0,2.6386,2.6386,2.6386,2.6386,2.6386,2.6386,2.6386,2.6386,2.6386,2.6386,2.6386,2.6386,2.6386,2.6386,2.6386,2.6386,2.6386,2.6386,2.6386,2.6386,2.6386,2.6386,2.6386,2.6386,2.6386,2.6386,2.6386,2.6386,2.6386,2.6847,2.8218,2.7384,2.7083,2.906,2.8218,2.8686,3.2792,3.3398,3.4619,3.8117,3.8574,3.8574,3.8574,3.8574,3.8574,3.8574,3.8574,3.8574,3.8574,3.8574,3.8574,3.8574,3.8574,3.8574,3.8574,3.8574,3.8418,3.8125,3.8125,3.7891,3.748,3.748,3.7422,2.2928,2.2928,2.2928,2.2928,2.2928,2.2928,2.2928,2.2928,2.2928,2.2928,2.2928,2.2928,2.2928,2.2928,2.2928,2.2928,2.338,0.0,2.3768,2.4275,2.4743,0.0,2.5331,2.5625,2.601,2.6226,2.6386,2.6386,2.6386,0.0,2.6386,2.6386,2.6386,2.6386,2.6386,2.6386,2.6386,2.6386,2.6386,2.6386,2.6386,2.6386,2.6386,2.6386,2.6386,2.6386,2.6386,2.6386,0.0,2.6386,2.6386,2.6386,2.6386,2.6386,2.6386,2.6386,2.6386,2.6386,2.6386,2.6386,2.6386,2.6386,2.6386,2.6386,2.6386,2.6386,2.6386,2.6386,2.6386,2.6386,2.6386,2.6386,2.6386,2.6386,2.6386,2.6386,2.6386,2.6386,2.6386,2.6465,2.6386,2.7083,2.906,2.9371,3.0731,3.4826,3.5497,3.6275,3.8336,3.8574,3.8574,3.8574,3.8574,3.8574,3.8574,3.8574,3.8574,3.8574,3.8574,3.8574,3.8574,3.8574,3.8574,3.8574,3.8574,3.8574,3.8574,3.8574,3.834,3.791,3.791,3.7695,2.318,2.302,2.2928,2.2928,2.2928,2.2928,2.2928,2.2928,2.2928,2.2928,2.2928,2.2928,2.2928,2.2928,2.2928,2.2928,2.338,0.0,0.0,0.0,0.0,2.5317,2.5812,2.6146,0.0,0.0,2.6386,2.6386,2.6386,2.6386,2.6386,2.6386,2.6386,2.6386,2.6386,2.6386,2.6386,2.6386,2.6386,2.6386,2.6386,2.6386,2.6386,2.6386,2.6386,2.6386,2.6386,2.6386,2.6386,2.6386,2.6386,2.6386,2.6386,2.6386,2.6386,2.6386,2.6386,2.6386,2.6386,2.6386,2.6386,2.6386,2.6386,2.6386,2.6386,2.6386,2.6386,2.6386,2.6386,2.6386,2.6386,2.6386,2.6386,2.6386,2.6386,2.6386,2.6386,2.7462,2.8452,2.8452,2.9604,3.0746,3.1437,3.1513,3.2413,3.5124,3.5497,3.6275,3.8336,3.8574,3.8574,3.8574,3.8574,3.8574,3.8574,3.8574,3.8574,3.8574,3.8574,3.8574,3.8574,3.8574,3.8574,3.8574,3.8574,3.8574,3.8574,3.8574,3.8496,3.8359,3.8359,3.8144,2.3527,2.3273,2.3033,2.3033,2.2953,2.2928,2.2928,2.2928,2.2928,2.2928,2.2928,2.2928,2.2928,2.2928,2.2928,2.2928,2.338,2.3768,0.0,0.0,0.0,2.5438,0.0,0.0,0.0,2.6386,2.6386,2.6386,2.6386,2.6386,2.6386,2.6386,2.6386,2.6386,2.6386,2.6386,2.6386,2.6386,2.6386,2.6386,2.6386,2.6386,2.6386,2.6386,2.6386,2.6386,2.6386,2.6386,0.0,2.6386,2.6386,2.6386,2.6386,2.6386,2.6386,2.6386,2.6386,2.6386,2.6386,2.6386,2.6386,2.6386,2.6386,2.6386,2.6386,2.6386,2.6386,2.6386,2.6386,2.6386,2.6386,2.6386,2.6386,2.6386,2.6386,2.6623,2.7384,2.853,2.9604,3.0438,3.159,3.2733,3.3473,3.3624,3.4301,3.6349,3.6645,3.7106,3.8428,3.8574,3.8574,3.8574,3.8574,3.8574,3.8574,3.8574,3.8574,3.8574,3.8574,3.8574,3.8574,3.8574,3.8574,3.8574,3.8574,3.8574,3.8574,3.8574,3.8574,3.8574,3.8574,3.8418,0.0,2.3594,2.3367,2.3367,2.314,2.2926,2.2926,2.2926,0.0,2.2926,2.2926,2.2995,2.2899,2.2968,2.2968,2.2968,2.3394,0.0,0.0,2.4315,0.0,0.0,2.6026,0.0,2.6386,2.6386,2.6386,2.6386,2.6386,2.6386,2.6386,2.6386,2.6386,2.6386,2.6386,2.6386,2.6386,2.6386,2.6386,2.6386,2.6386,2.6386,2.6386,2.6386,2.6386,0.0,2.6386,2.6386,2.6386,2.6386,2.6386,2.6386,2.6386,2.6386,2.6386,2.6386,2.6386,2.6386,2.6386,2.6386,2.6386,2.6386,2.6386,2.6386,2.6386,2.6386,2.6386,2.6386,2.6386,2.6386,2.6386,2.6386,2.6386,2.6386,2.6386,2.6925,2.8983,2.9526,3.0207,3.2125,3.2733,3.3473,3.5199,3.5646,3.6349,3.8336,3.8574,3.8574,3.8574,3.8574,3.8574,3.8574,3.8574,3.8574,3.8574,3.8574,3.8574,3.8574,3.8574,3.8574,3.8574,3.8574,3.8574,3.8574,3.8574,3.8574,3.8574,3.8574,3.8574,3.8574,3.8574,3.8574,2.4449,0.0,2.3661,2.3661,2.3607,2.3554,0.0,2.3554,2.3554,2.3554,2.3554,2.3487,2.326,2.322,2.322,2.322,2.3527,2.3848,2.4075,2.4796,0.0,2.5491,2.6026,2.6386,2.6386,2.6386,2.6386,2.6386,2.6386,2.6386,2.6386,2.6386,2.6386,2.6386,2.6386,2.6386,2.6386,2.6386,2.6386,2.6386,2.6386,2.6386,2.6386,2.6386,2.6386,2.6386,2.6386,2.6386,2.6386,2.6386,2.6386,2.6386,2.6386,2.6386,2.6386,2.6386,2.6386,2.6386,2.6386,2.6386,2.6386,2.6386,2.6386,2.6386,2.6386,2.6386,2.6386,2.6386,2.6386,2.6386,2.6386,2.6386,2.6386,2.6386,2.6386,2.6925,2.8983,3.0669,3.1896,3.2429,3.5011,3.6811,3.5664,3.6811,3.8024,3.8501,3.8574,3.8574,3.8574,3.8574,3.8574,3.8574,3.8574,3.8574,3.8574,3.8574,3.8574,3.8574,3.8574,3.8574,3.8574,3.8574,3.8574,3.8574,3.8574,3.8574,3.8574,3.8574,3.8574,3.8574,3.8574,3.8574,2.4636,2.4302,2.3968,2.3968,2.3875,2.3768,2.3768,2.3768,2.3768,2.3768,2.3768,2.3728,2.3554,2.3527,2.3527,2.3527,2.3781,0.0,0.0,0.0,2.5558,2.5705,2.6119,2.6386,0.0,2.6386,2.6386,2.6386,2.6386,2.6386,2.6386,2.6386,2.6386,2.6386,2.6386,2.6386,2.6386,2.6386,2.6386,2.6386,2.6386,2.6386,2.6386,2.6386,2.6386,2.6386,2.6386,2.6386,2.6386,2.6386,2.6386,2.6386,2.6386,2.6386,2.6386,2.6386,2.6386,2.6386,2.6386,2.6386,2.6386,2.6386,2.6386,2.6386,2.6386,2.6386,2.6386,2.6386,2.6386,2.6386,2.6386,2.6386,2.6386,2.6386,2.6386,2.7227,3.0207,3.1743,3.3037,3.4918,3.7051,3.8263,3.7106,3.7878,3.8574,3.8574,3.8574,3.8574,3.8574,3.8574,3.8574,3.8574,3.8574,3.8574,3.8574,3.8574,3.8574,3.8574,3.8574,3.8574,3.8574,3.8574,3.8574,3.8574,3.8574,3.8574,3.8574,3.8574,3.8574,3.8574,3.8574,3.8574,2.4636,2.4449,2.4262,2.4262,2.4088,2.3901,2.3901,2.3901,2.3901,2.3901,2.3901,2.3888,2.3848,2.3834,2.3834,2.3834,2.4075,0.0,2.4997,2.5331,2.5625,2.5996,2.6213,0.0,2.6386,2.6386,2.6386,2.6386,2.6386,2.6386,2.6386,2.6386,2.6386,2.6386,2.6386,2.6386,2.6386,2.6386,2.6386,2.6386,2.6386,2.6386,2.6386,2.6386,2.6386,2.6386,2.6386,2.6386,2.6386,2.6386,2.6386,2.6386,2.6386,2.6386,2.6386,2.6386,2.6386,2.6386,2.6386,2.6386,2.6386,2.6386,2.6386,2.6386,2.6386,2.6386,2.6386,2.6386,2.6386,2.6386,2.6386,2.6386,2.6386,2.6386,2.6386,2.7462,3.1207,3.2048,3.3264,3.7345,3.8117,3.8263,3.8574,3.8574,3.8574,3.8574,3.8574,3.8574,3.8574,3.8574,3.8574,3.8574,3.8574,3.8574,3.8574,3.8574,3.8574,3.8574,3.8574,3.8574,3.8574,3.8574,3.8574,3.8574,3.8574,3.8574,3.8574,3.8574,3.8574,3.8574,3.8574,3.8574,2.4636,2.4609,2.4569,2.4569,2.4529,2.4502,2.4502,2.4502,2.4502,2.4502,2.4502,2.4422,2.4182,2.4142,2.4142,2.4142,2.4382,2.469,0.0,0.0,2.5625,2.5996,0.0,2.6386,2.6386,2.6386,2.6386,2.6386,2.6386,2.6386,2.6386,2.6386,2.6386,2.6386,2.6386,2.6386,2.6386,2.6386,2.6386,2.6386,2.6386,2.6386,2.6386,2.6386,2.6386,2.6386,2.6386,2.6386,2.6386,2.6386,2.6386,2.6386,2.6386,2.6386,2.6386,2.6386,2.6386,2.6386,2.6386,2.6386,2.6386,2.6386,2.6386,2.6386,2.6386,2.6386,2.6386,2.6386,2.6386,2.6386,2.6386,2.6386,2.6386,2.6386,2.6386,2.7083,2.9371,2.9898,3.1115,3.5199,3.5961,3.6497,3.8263,3.8574,3.8574,3.8574,3.8574,3.8574,3.8574,3.8574,3.8574,3.8574,3.8574,3.8574,3.8574,3.8574,3.8574,3.8574,3.8574,3.8574,3.8574,3.8574,3.8574,3.8574,3.8574,3.8574,3.8574,3.8574,3.8574,3.8574,3.8574,3.8574,2.4636,2.4636,2.4636,2.4636,2.4636,2.4636,2.4636,2.4636,2.4636,2.4636,2.4636,2.4596,2.4462,2.4436,2.4436,2.4436,2.4676,2.4983,2.5277,2.5571,2.5865,0.0,0.0,2.6386,2.6386,2.6386,2.6386,2.6386,2.6386,2.6386,2.6386,2.6386,2.6386,2.6386,2.6386,2.6386,2.6386,2.6386,2.6386,2.6386,2.6386,2.6386,2.6386,2.6386,2.6386,2.6386,2.6386,2.6386,2.6386,2.6386,2.6386,2.6386,2.6386,2.6386,2.6386,2.6386,2.6386,2.6386,2.6386,2.6386,2.6386,2.6386,2.6386,2.6386,2.6386,2.6386,2.6386,2.6386,2.6386,2.6386,2.6386,2.6386,2.6386,2.6386,2.6386,2.6925,2.8983,2.9371,3.0284,3.3322,3.4751,3.5812,3.6737,3.7878,3.8574,3.8574,3.8574,3.8574,3.8574,3.8574,3.8574,3.8574,3.8574,3.8574,3.8574,3.8574,3.8574,3.8574,3.8574,3.8574,3.8574,3.8574,3.8574,3.8574,3.8574,3.8574,3.8574,3.8574,3.8574,3.8574,3.8574,3.8574,2.4636,2.4636,2.4636,2.4636,2.4636,2.4636,2.4636,2.4636,2.4636,2.4636,2.4636,2.4636,2.4636,2.4636,2.4636,2.4636,2.489,2.5184,2.5478,2.5772,2.6066,2.636,2.6386,2.6386,2.6386,2.6386,2.6386,2.6386,2.6386,2.6386,2.6386,2.6386,2.6386,2.6386,2.6386,2.6386,2.6386,2.6386,2.6386,2.6386,2.6386,2.6386,2.6386,2.6386,2.6426,2.6493,2.6493,2.6533,2.66,2.66,2.66,2.66,2.66,2.6547,2.648,2.6413,2.6386,2.6386,2.6386,2.6386,2.6386,2.6386,2.6386,2.6386,2.6386,2.6386,2.6386,2.6386,2.6386,2.6386,2.6386,2.6386,2.6386,2.6386,2.6386,2.6847,2.8374,2.8686,2.9293,3.136,3.3398,3.4975,3.5422,3.7179,3.8574,3.8574,3.8574,3.8574,3.8574,3.8574,3.8574,3.8574,3.8574,3.8574,3.8574,3.8574,3.8574,3.8574,3.8574,3.8574,3.8574,3.8574,3.8574,3.8574,3.8574,3.8574,3.8574,3.8574,3.8574,3.8574,3.8574,3.8574,2.4636,2.4636,2.4636,2.4636,2.4636,2.4636,2.4636,2.4636,2.4636,2.4636,2.4636,2.4636,2.4636,2.4636,2.4636,2.4636,2.489,2.5184,2.5478,0.0,2.6066,2.636,2.6386,2.6386,2.6386,2.6386,2.6386,2.6386,2.6386,2.6386,2.6386,2.6386,2.6386,2.6386,2.6386,2.6386,2.6386,2.6386,2.6386,2.6386,2.6386,2.6386,2.6386,2.6386,2.6533,2.6787,2.6787,2.6947,2.7201,2.7201,2.7201,2.7201,2.7201,2.7028,2.676,2.6493,2.6386,2.6386,2.6386,2.6386,2.6386,2.6386,2.6386,2.6386,2.6386,2.6386,2.6386,2.6386,2.6386,2.6386,2.6386,2.6386,2.6386,2.6386,2.6386,2.6465,2.6623,2.6623,2.7227,2.9216,3.1284,3.3322,3.5199,3.7179,3.8574,3.8574,3.8574,3.8574,3.8574,3.8574,3.8574,3.8574,3.8574,3.8574,3.8574,3.8574,3.8574,3.8574,3.8574,3.8574,3.8574,3.8574,3.8574,3.8574,3.8574,3.8574,3.8574,3.8574,3.8574,3.8574,3.8574,3.8574,2.4636,2.4636,2.4636,2.4636,2.4636,2.4636,2.4636,2.4636,2.4636,2.4636,2.4636,2.4636,2.4636,2.4636,2.469,2.4877,2.5157,2.5451,2.5745,2.6039,2.6266,2.6373,2.6386,2.6386,2.6386,2.6386,2.6386,2.6386,2.6386,2.6386,2.6386,2.6386,2.6386,2.6386,2.6386,2.6386,2.6386,2.6386,2.6386,2.6386,2.6386,2.648,2.6653,2.6653,2.6827,2.7094,2.7094,2.7161,2.7268,2.7268,2.7268,2.7268,2.7268,2.7081,2.6814,2.6694,2.6547,2.6386,2.6386,2.6386,2.6386,2.6386,2.6386,2.6386,2.6386,2.6386,2.6386,2.6386,2.6386,2.6386,2.6386,2.6386,2.6386,2.6386,2.6386,2.6386,2.6386,2.6386,2.6623,2.7384,2.9216,3.1191,3.3247,3.5291,3.7106,3.8428,3.8574,3.8574,3.8574,3.8574,3.8574,3.8574,3.8574,3.8574,3.8574,3.8574,3.8574,3.8574,3.8574,3.8574,3.8574,3.8574,3.8574,3.8574,3.8574,3.8574,3.8574,3.8574,3.8574,3.8574,3.8574,3.8574,2.4636,2.4636,2.4636,2.4636,2.4636,2.4636,2.4636,2.4636,2.4636,2.4636,2.4636,2.4636,2.4636,2.4636,2.473,0.0,2.5331,2.5611,2.5919,2.6199,2.6386,2.6386,2.6386,2.6386,2.6386,2.6386,2.6386,2.6386,2.6386,2.6386,2.6386,2.6386,2.6386,2.6386,2.6386,2.6386,2.6386,2.6386,2.644,2.6533,2.6533,2.6627,2.6827,2.6921,2.7121,2.7402,2.7402,2.7455,2.7549,2.7549,2.7549,2.7535,2.7442,2.7228,2.6947,2.6854,2.664,2.6386,2.6386,2.6386,2.6386,2.6386,2.6386,2.6386,2.6386,2.6386,2.6386,2.6386,2.6386,2.6386,2.6386,2.6386,2.6386,2.6386,2.6386,2.6386,2.6386,2.6925,2.7162,2.6544,2.906,3.1574,3.2353,3.4694,3.6959,3.8428,3.8574,3.8574,3.8574,3.8574,3.8574,3.8574,3.8574,3.8574,3.8574,3.8574,3.8574,3.8574,3.8574,3.8574,3.8574,3.8574,3.8574,3.8574,3.8574,3.8574,3.8574,3.8574,3.8574,3.8574,3.8574,3.8574,2.4636,2.4636,2.4636,2.4636,2.4636,2.4636,2.4636,2.4636,2.4636,2.4636,2.4636,2.4636,2.4636,2.4636,2.473,2.5037,2.5331,2.5611,2.5996,2.6213,2.6386,2.6386,2.6386,2.6386,2.6386,2.6386,2.6386,2.6386,2.6386,2.6386,2.6386,2.6386,2.6386,2.6386,2.6386,2.6386,2.6386,2.6386,2.6533,2.6827,2.6827,2.6827,2.6841,2.7134,2.7428,2.7696,2.7696,2.7869,2.8221,2.8221,2.8221,2.8194,2.7816,2.7522,2.7228,2.6934,2.664,2.6386,2.6386,2.6386,2.6386,2.6386,2.6386,2.6386,2.6386,2.6386,2.6386,2.6386,2.6386,2.6386,2.6386,2.6465,2.6386,2.6386,2.6386,2.6465,2.6465,2.7997,2.8827,2.6847,3.136,3.4861,3.2885,3.5905,3.8574,3.8574,3.8574,3.8574,3.8574,3.8574,3.8574,3.8574,3.8574,3.8574,3.8574,3.8574,3.8574,3.8574,3.8574,3.8574,3.8574,3.8574,3.8574,3.8574,3.8574,3.8574,3.8574,3.8574,3.8574,3.8574,3.8574,3.8574,2.4636,2.4636,2.4636,2.4636,2.4636,2.4636,2.4636,2.4636,2.4636,2.4636,2.4636,2.4636,2.4636,2.4636,2.4796,2.5304,2.5451,2.5692,2.6186,2.6333,2.6386,2.6386,2.6386,2.6386,2.6386,2.6386,2.6386,2.6386,2.6386,2.6386,2.6386,2.6386,2.6386,2.6386,2.6386,2.6386,2.6386,2.6587,2.6734,2.6827,2.7241,2.7442,2.7442,2.7535,2.7736,2.8003,2.8003,2.814,2.8221,2.8221,2.8221,2.8221,2.8127,2.7829,2.7535,2.7241,2.6947,2.6667,2.6466,2.6386,2.6386,2.6386,2.6386,2.6386,2.6386,2.6386,2.6386,2.6386,2.6386,2.6702,2.8154,2.853,2.814,2.6768,2.7462,2.853,2.853,2.8983,2.9681,3.0515,3.2125,3.3641,3.4451,3.5589,3.6885,3.8336,3.8574,3.8574,3.8574,3.8574,3.8574,3.8574,3.8574,3.8574,3.8574,3.8574,3.8574,3.8574,3.8574,3.8574,3.8574,3.8574,3.8574,3.8574,3.8574,3.8574,3.8574,3.8574,3.8574,3.8574,3.8574,3.8574,2.4636,2.4636,2.4636,2.4636,2.4636,2.4636,2.4636,2.4636,2.4636,2.4636,2.4636,2.4636,2.4636,2.473,2.497,2.5438,2.5611,2.5852,2.6319,2.6386,2.6386,2.6386,2.6386,2.6386,2.6386,2.6386,2.6386,2.6386,2.6386,2.6386,2.6386,2.6386,2.6386,2.6386,2.6386,2.644,2.656,2.6734,2.6934,2.7175,2.7535,2.7762,2.7883,2.7883,2.7976,2.8221,2.8221,2.8221,2.8221,2.8221,2.8221,2.8221,2.8221,2.7963,2.7682,2.7509,2.7175,2.68,2.6613,2.6493,2.6386,2.6386,2.6386,2.6386,2.6386,2.6386,2.6386,2.6386,2.6386,2.6702,2.7919,2.9449,3.0361,2.9138,2.9759,3.0669,3.0669,3.1268,3.1956,3.2413,3.3792,3.5068,3.5422,3.6183,3.7179,3.8428,3.8574,3.8574,3.8574,3.8574,3.8574,3.8574,3.8574,3.8574,3.8574,3.8574,3.8574,3.8574,3.8574,3.8574,3.8574,3.8574,3.8574,3.8574,3.8574,3.8574,3.8574,3.8574,3.8574,3.8574,3.8574,3.8574,2.4636,2.4636,2.4636,2.4636,2.4636,2.4636,2.4636,2.4636,2.4636,2.4636,2.4636,2.4649,2.4676,2.4903,2.5184,2.5504,2.5785,2.6052,2.6346,2.6386,2.6386,2.6386,2.6386,2.6386,2.6386,2.6386,2.6386,2.6386,2.6386,2.6386,2.6386,2.6386,2.6386,2.6386,2.6386,2.6533,2.6814,2.6854,2.7148,2.7696,2.7722,2.7883,2.8221,2.8221,2.8221,2.8221,2.8221,2.8221,2.8221,2.8221,2.8221,2.8221,2.8221,2.7976,2.7736,2.7709,2.7348,2.6854,2.6827,2.6627,2.6386,2.6386,2.6386,2.6386,2.6386,2.6386,2.6386,2.6386,2.6386,2.6465,2.6623,2.9604,3.2581,3.2733,3.2792,3.2809,3.2809,3.4226,3.505,3.3398,3.6071,3.8024,3.6109,3.7345,3.8574,3.8574,3.8574,3.8574,3.8574,3.8574,3.8574,3.8574,3.8574,3.8574,3.8574,3.8574,3.8574,3.8574,3.8574,3.8574,3.8574,3.8574,3.8574,3.8574,3.8574,3.8574,3.8574,3.8574,3.8574,3.8574,3.8574,3.8574,2.4636,2.4636,2.4636,2.4636,2.4636,2.4636,2.4636,2.4636,2.4636,2.4636,2.4636,2.4703,2.4943,2.5037,2.5251,2.5772,2.5919,2.6052,2.6346,2.6386,2.6386,2.6386,2.6386,2.6386,2.6386,2.6386,2.6386,2.6386,2.6386,2.6386,2.6386,2.6386,2.6386,2.6386,2.6386,2.6533,2.6814,2.7054,2.7348,2.7696,2.7936,2.8167,2.8221,2.8221,2.8221,2.8221,2.8221,2.8221,2.8221,2.8221,2.8221,2.8221,2.8221,2.8181,2.8016,2.7789,2.7468,2.7134,2.6907,2.6627,2.6386,2.6386,2.6386,2.6386,2.6386,2.6386,2.6386,2.6386,2.6386,2.6768,2.8374,3.0592,3.2868,3.4451,3.4826,3.4826,3.4861,3.5217,3.5812,3.7051,3.797,3.8501,3.8044,3.8263,3.8574,3.8574,3.8574,3.8574,3.8574,3.8574,3.8574,3.8574,3.8574,3.8574,3.8574,3.8574,3.8574,3.8574,3.8574,3.8574,3.8574,3.8574,3.8574,3.8574,3.8574,3.8574,3.8574,3.8574,3.8574,3.8574,3.8574,3.8574,2.4676,2.4636,2.4636,2.4636,2.4636,2.4636,2.4636,2.4636,2.4636,2.4636,2.4636,2.473,2.5024,2.5197,2.5438,2.5879,2.6079,2.6213,2.6373,2.6386,2.6386,2.6386,2.6386,2.6386,2.6386,2.6386,2.6386,2.6386,2.6386,2.6386,2.6386,2.6386,2.6386,2.6386,2.652,2.6734,2.7028,2.7321,2.7615,2.7909,2.8154,2.8221,2.8221,2.8221,2.8221,2.8221,2.8221,2.8221,2.8221,2.8221,2.8221,2.8221,2.8221,2.8221,2.8207,2.7963,2.7722,2.7428,2.7134,2.6841,2.6573,2.644,2.6386,2.6386,2.6386,2.6386,2.6386,2.6386,2.6386,2.6623,2.7684,2.9449,3.1268,3.232,3.4826,3.6959,3.6977,3.6959,3.7272,3.8409,3.8574,3.8574,3.8574,3.8574,3.8574,3.8574,3.8574,3.8574,3.8574,3.8574,3.8574,3.8574,3.8574,3.8574,3.8574,3.8574,3.8574,3.8574,3.8574,3.8574,3.8574,3.8574,3.8574,3.8574,3.8574,3.8574,3.8574,3.8574,3.8574,3.8574,3.8574,3.8574,2.4716,2.4636,2.4636,2.4636,2.4636,2.4636,2.4636,2.4636,2.4636,2.4636,2.4636,2.4743,2.509,2.5344,2.5625,2.5972,2.6239,2.6386,2.6386,2.6386,2.6386,2.6386,2.6386,2.6386,2.6386,2.6386,2.6386,2.6386,2.6386,2.6386,2.6386,2.6386,2.6386,2.6386,2.6667,2.6961,2.7268,2.7549,2.7843,2.8221,2.8221,2.8221,2.8221,2.8221,2.8221,2.8221,2.8221,2.8221,2.8221,2.8221,2.8221,2.8221,2.8221,2.8221,2.8221,2.8221,2.7949,2.7669,2.7428,2.7108,2.6787,2.6547,2.6426,2.6386,2.6386,2.6386,2.6386,2.6386,2.6386,2.6386,2.6386,2.7919,2.9371,2.9371,3.385,3.8044,3.8044,3.8336,3.8574,3.8574,3.8574,3.8574,3.8574,3.8574,3.8574,3.8574,3.8574,3.8574,3.8574,3.8574,3.8574,3.8574,3.8574,3.8574,3.8574,3.8574,3.8574,3.8574,3.8574,3.8574,3.8574,3.8574,3.8574,3.8574,3.8574,3.8574,3.8574,3.8574,3.8574,3.8574,3.8574,3.8574,2.4716,2.4636,2.4636,2.4636,2.4636,2.4636,2.4636,2.4636,2.4636,2.4636,2.4636,2.481,2.5358,2.5491,2.5692,2.6239,2.636,2.6386,2.6386,2.6386,2.6386,2.6386,2.6386,2.6386,2.6386,2.6386,2.6386,2.6386,2.6386,2.6386,2.6386,2.6386,2.6386,2.6386,2.6667,2.6961,2.7268,2.7549,2.7843,2.8221,2.8221,2.8221,2.8221,2.8221,2.8221,2.8221,2.8221,2.8221,2.8221,2.8221,2.8221,2.8221,2.8221,2.8221,2.8221,2.8221,2.7949,2.7696,2.7655,2.7281,2.6814,2.6774,2.66,2.6386,2.6386,2.6386,2.6386,2.6386,2.6386,2.6386,2.6386,2.7919,2.9371,2.9371,3.27,3.5886,3.5886,3.7345,3.8574,3.8574,3.8574,3.8574,3.8574,3.8574,3.8574,3.8574,3.8574,3.8574,3.8574,3.8574,3.8574,3.8574,3.8574,3.8574,3.8574,3.8574,3.8574,3.8574,3.8574,3.8574,3.8574,3.8574,3.8574,3.8574,3.8574,3.8574,3.8574,3.8574,3.8574,3.8574,3.8574,3.8574,2.4756,2.4636,2.4636,2.4636,2.4636,2.4636,2.4636,2.4636,2.4636,2.4636,2.477,2.501,2.5438,2.5651,2.5905,2.6319,2.6386,2.6386,2.6386,2.6386,2.6386,2.6386,2.6386,2.6386,2.6386,2.6386,2.6386,2.6386,2.6386,2.6386,2.6386,2.6386,2.6386,2.6386,2.6827,2.7134,2.7268,2.7722,2.8016,2.8221,2.8221,2.8221,2.8221,2.8221,2.8221,2.8221,2.8221,2.8221,2.8221,2.8221,2.8221,2.8221,2.8221,2.8221,2.8221,2.8221,2.814,2.7923,2.7762,2.7535,2.7281,2.7121,2.6867,2.6627,2.6627,2.652,2.6386,2.6386,2.6386,2.6386,2.6386,2.7083,2.7684,2.7684,2.9975,3.2396,3.3549,3.6368,3.8574,3.8574,3.8574,3.8574,3.8574,3.8574,3.8574,3.8574,3.8574,3.8574,3.8574,3.8574,3.8574,3.8574,3.8574,3.8574,3.8574,3.8574,3.8574,3.8574,3.8574,3.8574,3.8574,3.8574,3.8574,3.8574,3.8574,3.8574,3.8574,3.8574,3.8574,3.8574,3.8574,3.8574,2.477,2.4636,2.4636,2.4636,2.4636,2.4636,2.4636,2.4636,2.4636,0.0,2.493,2.5251,2.5478,2.5758,2.613,2.6346,2.6386,2.6386,2.6386,2.6386,2.6386,2.6386,2.6386,2.6386,2.6386,2.6386,2.6386,2.6386,2.6386,2.6386,2.6386,2.6386,2.6386,2.6386,2.6961,2.7268,2.7268,2.7939,2.8221,2.8221,2.8221,2.8221,2.8221,2.8221,2.8221,2.8221,2.8221,2.8221,2.8221,2.8221,2.8221,2.8221,2.8221,2.8221,2.8221,2.8221,2.8221,2.8194,2.7883,2.7762,2.7669,2.7442,2.7175,2.6934,2.6934,2.6734,2.6493,2.6493,2.6453,2.6386,2.6386,2.6768,2.7148,2.7148,2.9138,3.1344,3.2944,3.6053,3.8574,3.8574,3.8574,3.8574,3.8574,3.8574,3.8574,3.8574,3.8574,3.8574,3.8574,3.8574,3.8574,3.8574,3.8574,3.8574,3.8574,3.8574,3.8574,3.8574,3.8574,3.8574,3.8574,3.8574,3.8574,3.8574,3.8574,3.8574,3.8574,3.8574,3.8574,3.8574,3.8574,3.8574,2.4716,2.4636,2.4636,2.4636,2.4636,2.4636,2.4636,2.4636,2.4636,2.4636,2.509,2.5491,2.5504,2.5758,2.613,2.6346,2.6386,2.6386,2.6386,2.6386,2.6386,2.6386,2.6386,2.6386,2.6386,2.6386,2.6386,2.6386,2.6386,2.6386,2.6386,2.6386,2.6386,2.6386,2.6961,2.7268,2.7268,2.7939,2.8221,2.8221,2.8221,2.8221,2.8221,2.8221,2.8221,2.8221,2.8221,2.8221,2.8221,2.8221,2.8221,2.8221,2.8221,2.8221,2.8221,2.8221,2.8221,2.8221,2.8207,2.7936,2.7696,2.7682,2.7482,2.7241,2.7241,2.7041,2.68,2.68,2.66,2.6386,2.6386,2.7841,2.9216,2.9216,3.232,3.5199,3.5348,3.7032,3.8574,3.8574,3.8574,3.8574,3.8574,3.8574,3.8574,3.8574,3.8574,3.8574,3.8574,3.8574,3.8574,3.8574,3.8574,3.8574,3.8574,3.8574,3.8574,3.8574,3.8574,3.8574,3.8574,3.8574,3.8574,3.8574,3.8574,3.8574,3.8574,3.8574,3.8574,3.8574,3.8574,3.8574,2.4997,2.4783,2.4636,2.4636,2.4636,2.4636,2.4636,2.4636,2.4636,2.4636,2.5104,2.5518,2.5518,2.5905,2.6266,2.6373,2.6386,2.6386,2.6386,2.6386,2.6386,2.6386,2.6386,2.6386,2.6386,2.6386,2.6386,2.6386,2.6386,2.6386,2.6386,2.6386,2.6386,2.6386,2.6961,2.7537,2.7913,2.8127,2.8221,2.8221,2.8221,2.8221,2.8221,2.8221,2.8221,2.8221,2.8221,2.8221,2.8221,2.8221,2.8221,2.8221,2.8221,2.8221,2.8221,2.8221,2.8221,2.8221,2.8221,2.8154,2.7989,2.7989,2.7789,2.7549,2.7549,2.8288,2.9151,2.9151,2.9938,3.0685,3.0685,3.1057,3.136,3.136,3.3473,3.5497,3.5497,3.7106,3.8574,3.8574,3.8574,3.8574,3.8574,3.8574,3.8574,3.8574,3.8574,3.8574,3.8574,3.8574,3.8574,3.8574,3.8574,3.8574,3.8574,3.8574,3.8574,3.8574,3.8574,3.8574,3.8574,3.8574,3.8574,3.8574,3.8574,3.8574,3.8574,3.8574,3.8574,3.8574,3.8574,3.8574,2.5157,2.4863,2.4636,2.4636,2.4636,2.4636,2.4636,2.4636,2.4636,2.4636,2.5104,2.5518,2.5518,2.5999,2.6386,2.6386,2.6386,2.6386,2.6386,2.6386,2.6386,2.6386,2.6386,2.6386,2.6386,2.6386,2.6386,2.6386,2.6386,2.6386,2.6386,2.6386,2.648,2.668,2.7068,2.7631,2.8221,2.8221,2.8221,2.8221,2.8221,2.8221,2.8221,2.8221,2.8221,2.8221,2.8221,2.8221,2.8221,2.8221,2.8221,2.8221,2.8221,2.8221,2.8221,2.8221,2.8221,2.8221,2.8221,2.8628,2.9286,2.9286,2.9632,3.0025,3.0025,3.0839,3.1773,3.1773,3.2553,3.326,3.3144,3.3288,3.37,3.4394,3.5607,3.6571,3.6571,3.7658,3.8574,3.8574,3.8574,3.8574,3.8574,3.8574,3.8574,3.8574,3.8574,3.8574,3.8574,3.8574,3.8574,3.8574,3.8574,3.8574,3.8574,3.8574,3.8574,3.8574,3.8574,3.8574,3.8574,3.8574,3.8574,3.8574,3.8574,3.8574,3.8574,3.8574,3.8574,3.8574,3.8574,3.8574,0.0,0.0,0.0,2.4562,2.4636,2.4636,2.4636,0.0,2.4636,2.4636,2.5104,2.5518,2.5518,2.5999,2.6386,2.6386,2.6386,2.6386,2.6386,2.6386,2.6386,2.6386,2.6386,2.6386,2.6386,2.6386,2.6386,2.6386,2.6386,2.6386,2.6386,2.6386,2.6653,2.7241,2.7268,2.7631,2.8221,2.8221,2.8221,2.8221,2.8221,2.8221,2.8221,2.8221,2.8221,2.8221,2.8221,2.8221,2.8221,2.8221,2.8221,2.8221,2.8221,2.8221,2.8221,2.8221,2.8221,2.8305,2.8305,2.969,3.1475,3.1475,3.294,3.4732,3.4732,3.4484,3.4283,3.4283,3.4175,3.3904,3.3459,3.4446,3.6127,3.8136,3.8594,3.8574,3.8574,3.8574,3.8574,3.8574,3.8574,3.8574,3.8574,3.8574,3.8574,3.8574,3.8574,3.8574,3.8574,3.8574,3.8574,3.8574,3.8574,3.8574,3.8574,3.8574,3.8574,3.8574,3.8574,3.8574,3.8574,3.8574,3.8574,3.8574,3.8574,3.8574,3.8574,3.8574,3.8574,3.8574,3.8574,3.8574,2.5478,0.0,0.0,0.0,0.0,0.0,2.4636,0.0,2.4636,2.4636,2.5104,2.5518,2.5518,2.5999,2.6386,2.6386,2.6386,2.6386,2.6386,2.6386,2.6386,2.6386,2.6386,2.6386,2.6386,2.6386,2.6386,0.0,2.6386,2.6386,2.6386,2.6386,2.6653,2.7241,2.7268,2.7631,2.8221,2.8221,2.8221,2.8221,2.8221,2.8221,2.8221,2.8221,2.8221,2.8221,2.8221,2.8221,2.8221,2.8221,2.8221,2.8221,2.8221,2.8221,2.8221,2.8221,2.9202,3.0509,3.0509,3.197,3.3757,3.3757,3.4164,3.4732,3.4732,3.5714,3.6843,3.6843,3.7698,3.8571,3.8159,3.8122,3.832,3.8876,3.8789,3.8574,3.8574,3.8574,3.8574,3.8574,3.8574,3.8574,3.8574,3.8574,3.8574,3.8574,3.8574,3.8574,3.8574,3.8574,3.8574,3.8574,3.8574,3.8574,3.8574,3.8574,3.8574,3.8574,3.8574,3.8574,3.8574,3.8574,3.8574,3.8574,3.8574,3.8574,3.8574,3.8574,3.8574,3.8574,3.8574,3.8574,2.5745,2.5398,2.5037,2.4863,0.0,0.0,2.4636,2.4636,2.4676,0.0,2.5184,2.5545,2.5678,2.6079,2.6386,2.6386,2.6386,2.6386,2.6386,2.6386,2.6386,2.6386,2.6386,2.6386,2.6386,2.6386,2.6386,2.6386,2.6386,2.6386,2.6386,2.6386,2.6653,2.7241,2.7268,2.7631,2.8221,2.8221,2.8221,2.8221,2.8221,2.8221,2.8221,2.8221,2.8221,2.8221,2.8221,2.8221,2.8221,2.8221,2.8221,2.8221,2.8221,2.8712,2.9523,2.9523,3.091,3.2776,3.2776,3.4246,3.604,3.604,3.6682,3.7419,3.7419,3.831,3.9276,3.9276,3.9872,4.0469,4.0215,3.9824,3.9453,3.9258,3.9004,3.8789,3.8613,3.8574,3.8574,3.8574,3.8574,3.8574,3.8574,3.8574,3.8574,3.8574,3.8574,3.8574,3.8574,3.8574,3.8574,3.8574,3.8574,3.8574,3.8574,3.8574,3.8574,3.8574,3.8574,3.8574,3.8574,3.8574,3.8574,3.8574,3.8574,3.8574,3.8574,3.8574,3.8574,3.8574,3.8574,3.8574,2.6037,2.5571,2.517,2.5144,2.4903,0.0,2.469,2.4663,2.4716,0.0,2.5304,2.5598,2.5905,2.6199,2.6386,2.6386,2.6386,2.6386,2.6386,2.6386,2.6386,2.6386,2.6386,2.6386,2.6386,2.6386,2.6386,2.6386,2.6386,2.6386,2.6386,2.6386,2.664,2.7201,2.7241,2.7535,2.8167,2.8207,2.8221,2.8221,2.8221,2.8221,2.8221,2.8221,2.8221,2.8221,2.8221,2.8305,2.8558,2.8558,2.8389,2.8221,2.8473,2.969,3.1392,3.164,3.3186,3.5056,3.5056,3.6442,3.831,3.831,3.961,4.1172,4.1172,4.1172,4.1172,4.1172,4.0898,4.0586,4.0586,4.0273,3.9863,3.9453,3.9316,3.916,3.873,3.8652,3.8633,3.8594,3.8574,3.8574,3.8574,3.8574,3.8574,3.8574,3.8574,3.8574,3.8574,3.8574,3.8574,3.8574,3.8574,3.8574,3.8574,3.8574,3.8574,3.8574,3.8574,3.8574,3.8574,3.8574,3.8574,3.8574,3.8574,3.8574,3.8574,3.8574,3.8574,3.8574,3.8574,3.8574,2.6026,2.5879,2.5732,2.5491,2.5211,0.0,2.4997,2.481,2.4716,0.0,2.5304,2.5598,2.5905,2.6199,2.6386,2.6386,2.6386,2.6386,2.6386,2.6386,2.6386,2.6386,2.6386,2.6386,2.6386,2.6386,2.6386,2.6386,2.6386,2.6386,2.6386,2.6386,2.6547,2.6894,2.7134,2.7428,2.7776,2.8114,2.8221,2.8221,2.8221,2.8221,2.8221,2.8221,2.8221,2.8221,2.8221,2.9202,3.0744,3.0744,2.9774,2.8389,3.0093,3.0993,3.164,3.3431,3.5379,3.7241,3.7241,3.8724,4.0588,4.0588,4.0841,4.1172,4.1172,4.1172,4.1172,4.1172,4.1113,4.1055,4.1055,4.0723,4.0371,4.0293,4.0,3.9629,3.918,3.9082,3.8984,3.8633,3.8574,3.8574,3.8574,3.8574,3.8574,3.8574,3.8574,3.8574,3.8574,3.8574,3.8574,3.8574,3.8574,3.8574,3.8574,3.8574,3.8574,3.8574,3.8574,3.8574,3.8574,3.8574,3.8574,3.8574,3.8574,3.8574,3.8574,3.8574,3.8574,3.8574,3.8574,3.8574,2.6213,2.6066,2.5996,2.5772,2.5518,0.0,0.0,2.5184,2.5157,2.5451,2.5638,2.5825,2.6119,2.6293,2.6386,2.6386,2.6386,2.6386,2.6386,2.6386,2.6386,2.6386,2.6386,2.6386,2.6386,2.6386,2.6386,2.6386,2.6386,2.6386,2.6386,2.6386,2.652,2.6814,2.7108,2.7402,2.7696,2.7989,2.8221,2.8221,2.8221,2.8221,2.8221,2.8221,2.8221,2.8221,2.8221,2.9453,3.1392,3.1392,3.1407,3.1572,3.2628,3.3676,3.4813,3.5863,3.7657,3.9531,3.9531,4.0275,4.1172,4.1172,4.1172,4.1172,4.1172,4.1172,4.1172,4.1172,4.1172,4.1172,4.1172,4.1016,4.0801,4.0586,4.0371,4.0098,3.9648,3.9551,3.9414,3.8965,3.8887,3.8828,3.8613,3.8574,3.8574,3.8574,3.8574,3.8574,3.8574,3.8574,3.8574,3.8574,3.8574,3.8574,3.8574,3.8574,3.8574,3.8574,3.8574,3.8574,3.8574,3.8574,3.8574,3.8574,3.8574,3.8574,3.8574,3.8574,3.8574,3.8574,3.8574,3.8574,2.6386,2.6226,2.6117,2.6117,2.5812,2.5598,0.0,0.0,0.0,2.5892,0.0,0.0,0.0,0.0,0.0,2.6159,0.0,0.0,0.0,2.6279,0.0,2.6386,2.6386,2.6386,2.6386,2.6386,2.6386,2.6386,2.6386,2.6386,2.6386,2.6386,2.6493,2.6734,2.7081,2.7375,2.7615,2.8047,2.8221,2.8221,2.8221,2.8389,2.8796,2.8389,2.8473,2.8796,2.8796,3.0024,3.2052,3.2448,3.392,3.588,3.5477,3.6362,3.7975,3.839,3.9688,4.1172,4.1172,4.1172,4.1172,4.1172,4.1172,4.1172,4.1172,4.1172,4.1172,4.1172,4.1172,4.1172,4.1172,4.1172,4.1074,4.0723,4.0644,4.0527,4.0117,4.0019,3.9883,3.9414,3.9336,3.918,3.8652,3.8574,3.8574,3.8574,3.8574,3.8574,3.8574,3.8574,3.8574,3.8574,3.8574,3.8574,3.8574,3.8574,3.8574,3.8574,3.8574,3.8574,3.8574,3.8574,3.8574,3.8574,3.8574,3.8574,3.8574,3.8574,3.8574,3.8574,3.8574,3.8574,2.6386,2.636,2.6333,2.6333,2.6119,2.5905,2.5905,0.0,2.5598,2.5892,0.0,0.0,0.0,0.0,0.0,0.0,0.0,0.0,2.5344,2.5892,2.6386,2.6386,2.6386,2.6386,2.6386,2.6386,2.6386,2.6386,2.6386,2.6386,2.6386,2.6386,2.64,2.644,2.6974,2.7281,2.7321,2.7953,2.8221,2.8221,2.8221,2.9202,3.0993,2.9034,2.9202,3.1076,3.1076,3.2299,3.4489,3.6362,3.8469,4.0275,3.831,3.7657,3.8134,4.0099,4.1016,4.1172,4.1172,4.1172,4.1172,4.1172,4.1172,4.1172,4.1172,4.1172,4.1172,4.1172,4.1172,4.1172,4.1172,4.1172,4.1172,4.1113,4.1094,4.0976,4.0547,4.0449,4.0332,3.9902,3.9824,3.9551,3.8711,3.8574,3.8574,3.8574,3.8574,3.8574,3.8574,3.8574,3.8574,3.8574,3.8574,3.8574,3.8574,3.8574,3.8574,3.8574,3.8574,3.8574,3.8574,3.8574,3.8574,3.8574,3.8574,3.8574,3.8574,3.8574,3.8574,3.8574,3.8574,3.8574,2.6386,2.6386,2.6386,2.6386,2.6306,2.6213,2.6213,2.6106,2.6052,2.6186,0.0,0.0,0.0,0.0,0.0,0.0,2.6146,0.0,0.0,0.0,2.6386,0.0,0.0,0.0,2.6386,2.6386,2.6386,2.6386,2.6386,2.6386,2.6386,2.6386,2.6386,2.6386,2.6961,2.7268,2.7268,2.7939,2.8221,2.8221,2.8221,2.8628,2.9523,2.9941,3.0592,3.1475,3.2776,3.457,3.6602,3.7498,3.9198,4.1094,4.0178,3.9786,3.9943,4.0841,4.1172,4.1172,4.1172,4.1172,4.1172,4.1172,4.1172,4.1172,4.1172,4.1172,4.1172,4.1172,4.1172,4.1172,4.1172,4.1172,4.1172,4.1172,4.1172,4.1133,4.0937,4.0898,4.0781,4.0332,4.0254,4.0059,3.9453,3.9121,3.8848,3.8613,3.8574,3.8574,3.8574,3.8574,3.8574,3.8574,3.8574,3.8574,3.8574,3.8574,3.8574,3.8574,3.8574,3.8574,3.8574,3.8574,3.8574,3.8574,3.8574,3.8574,3.8574,3.8574,3.8574,3.8574,3.8574,3.8574,2.6386,2.6386,2.6386,2.6386,2.6386,2.6386,2.6386,2.6386,2.6386,2.6386,2.6386,0.0,0.0,0.0,0.0,0.0,0.0,2.6306,0.0,2.6239,0.0,0.0,0.0,0.0,0.0,2.6386,2.6386,2.6386,2.6386,2.6386,2.6386,2.6386,2.6386,2.6386,2.6961,2.7268,2.7268,2.7939,2.8473,2.9034,2.9034,2.969,3.091,3.1887,3.2612,3.3267,3.4894,3.6442,3.7975,3.8548,3.9786,4.1172,4.1172,4.1172,4.1172,4.1172,4.1172,4.1172,4.1172,4.1172,4.1172,4.1172,4.1172,4.1172,4.1172,4.1172,4.1172,4.1172,4.1172,4.1172,4.1172,4.1172,4.1172,4.1172,4.1172,4.1172,4.1172,4.1172,4.1074,4.0762,4.0703,4.0566,4.0137,3.959,3.9101,3.8789,3.8652,3.8574,3.8574,3.8574,3.8574,3.8574,3.8574,3.8574,3.8574,3.8574,3.8574,3.8574,3.8574,3.8574,3.8574,3.8574,3.8574,3.8574,3.8574,3.8574,3.8574,3.8574,3.8574,3.8574,3.8574,3.8574,2.6386,2.6386,2.6386,2.6386,2.6386,2.6386,2.6386,2.6386,2.6386,2.6386,2.6386,2.6386,2.6386,2.6386,2.6106,0.0,0.0,0.0,0.0,0.0,0.0,0.0,0.0,0.0,0.0,2.6386,2.6386,2.6386,2.6386,2.6386,2.6386,2.6386,2.6386,2.6386,2.6961,2.7268,2.7268,2.7939,2.9202,3.1324,3.1324,3.3512,3.7498,3.554,3.5719,3.7737,3.7737,3.7816,3.8054,4.0197,4.1172,4.1172,4.1172,4.1172,4.1172,4.1172,4.1172,4.1172,4.1172,4.1172,4.1172,4.1172,4.1172,4.1172,4.1172,4.1172,4.1172,4.1172,4.1172,4.1172,4.1172,4.1172,4.1172,4.1172,4.1172,4.1172,4.1172,4.1172,4.1172,4.1152,4.1152,4.1016,4.0586,3.9785,3.9199,3.918,3.8828,3.8574,3.8574,3.8574,3.8574,3.8574,3.8574,3.8574,3.8574,3.8574,3.8574,3.8574,3.8574,3.8574,3.8574,3.8574,3.8574,3.8574,3.8574,3.8574,3.8574,3.8574,3.8574,3.8574,3.8574,3.8574,2.6386,2.6386,2.6386,2.6386,2.6386,2.6386,2.6386,2.6386,2.6386,2.6386,2.6386,2.6386,2.6386,2.6386,0.0,0.0,0.0,0.0,0.0,0.0,0.0,0.0,0.0,0.0,0.0,0.0,2.6386,2.6386,2.6386,2.6386,2.6386,2.6386,2.6386,2.6386,2.6961,2.7268,2.7268,2.7939,2.9286,3.1392,3.1392,3.2217,3.3676,3.5863,3.6442,3.596,3.8803,4.0099,4.0099,4.0919,4.1172,4.1172,4.1172,4.1172,4.1172,4.1172,4.1172,4.1172,4.1172,4.1172,4.1172,4.1172,4.1172,4.1172,4.1172,4.1172,4.1172,4.1172,4.1172,4.1172,4.1172,4.1172,4.1172,4.1172,4.1172,4.1172,4.1172,4.1172,4.1172,4.1172,4.1172,4.1133,4.0976,4.0469,3.998,3.9707,3.9277,3.8984,3.8984,3.875,3.8574,3.8574,3.8574,3.8574,3.8574,3.8574,3.8574,3.8574,3.8574,3.8574,3.8574,3.8574,3.8574,3.8574,3.8574,3.8574,3.8574,3.8574,3.8574,3.8574,3.8574,3.8574,2.6386,2.6386,2.6386,2.6386,2.6386,2.6386,2.6386,2.6386,2.6386,2.6386,2.6386,2.6386,2.6386,2.6386,0.0,0.0,0.0,0.0,0.0,2.6386,0.0,0.0,0.0,0.0,0.0,2.6386,2.6386,2.6386,2.6386,2.6386,2.6386,2.6386,2.6386,2.6386,2.6961,2.7268,2.7268,2.8662,3.0426,3.2612,3.3349,3.4083,3.4975,3.7816,3.831,3.7179,3.9943,4.1172,4.1172,4.1172,4.1172,4.1172,4.1172,4.1172,4.1172,4.1172,4.1172,4.1172,4.1172,4.1172,4.1172,4.1172,4.1172,4.1172,4.1172,4.1172,4.1152,4.0976,4.1055,4.1133,4.0976,4.1055,4.1172,4.1172,4.1172,4.1172,4.1172,4.1172,4.1172,4.1172,4.1172,4.1172,4.1172,4.0937,4.0605,4.0176,3.9746,3.9453,3.9453,3.9062,3.8789,3.8789,3.8672,3.8574,3.8574,3.8574,3.8574,3.8574,3.8574,3.8574,3.8574,3.8574,3.873,3.9043,3.873,3.873,3.9043,3.873,3.8574,3.8574,3.8574,3.8574]}]]